[[{"header":{"parameterUnit":"m.s-1","parameterCategory":1,"la1":30.6,"la2":29.2853,"lo1":-89.7004,"lo2":-87.6739,"dy":0.0162,"dx":0.0183,"nx":112,"ny":82,"refTime":"2024-08-22T06:00:00:Z","depth":0,"parameterNumber":2,"parameterNumberName":"U-component_of_WINDS"},"data":[0.0,0.0,0.0,0.0,0.0,0.0,0.0,0.0,0.0,0.0,0.0,0.0,0.0,0.0,0.0,0.0,0.0,0.0,0.0,0.0,0.0,0.0,0.0,0.0,0.0,0.0,0.0,0.0,0.0,0.0,0.0,0.0,0.0,0.0,0.0,0.0,0.0,0.0,0.0,0.0,0.0,0.0,0.0,0.0,0.0,0.0,0.0,0.0,0.0,0.0,0.0,0.0,0.0,0.0,0.0,0.0,0.0,0.0,0.0,0.0,0.0,0.0,0.0,0.0,0.0,0.0,0.0,0.0,0.0,0.0,0.0,0.0,0.0,0.0,0.0,0.0,0.0,0.0,0.0,0.0,0.0,0.0,0.0,0.0,0.0,0.0,0.0,0.0,0.0,0.0,0.0,0.0,0.0,0.0,0.0,0.0978,0.1465,0.1118,0.0,0.0,0.0,0.0,0.0,0.0,0.0,0.0,0.0,0.0,0.0,0.0,0.0,0.0,0.0,0.0,0.0,0.0,0.0,0.0,0.0,0.0,0.0,0.0,0.0,0.0,0.0,0.0,0.0,0.0,0.0,0.0,0.0,0.0,0.0,0.0,0.0,0.0,0.0,0.0,0.0,0.0,0.0,0.0,0.0,0.0,0.0,0.0,0.0,0.0,0.0,0.0,0.0,0.0,0.0,0.0,0.0,0.0,0.0,0.0,0.0,0.0,0.0,0.0,0.0,0.0,0.0,0.0,0.0,0.0,0.0,0.0,0.0,0.0,0.0,0.0,0.0,0.0,0.0,0.0,0.0,0.0,0.0,0.0,0.0,0.0,0.0,0.0,0.0,0.0,0.0,0.0,0.0,0.0,0.0,0.0,0.0,0.0,0.0,0.0,0.0,0.0,0.0,0.0,0.0,0.0,0.0,0.0,0.0,0.0984,0.1198,0.0261,0.0,0.0,0.0,0.0,0.0,0.0,0.0,0.0,0.0,0.0,0.0,0.0,0.0,0.0,0.0,0.0,0.0,0.0,0.0,0.0,0.0,0.0,0.0,0.0,0.0,0.0,0.0,0.0,0.0,0.0,0.0,0.0,0.0,0.0,0.0,0.0,0.0,0.0,0.0,0.0,0.0,0.0,0.0,0.0,0.0,0.0,0.0,0.0,0.0,0.0,0.0,0.0,0.0,0.0,0.0,0.0,0.0,0.0,0.0,0.0,0.0,0.0,0.0,0.0,0.0,0.0,0.0,0.0,0.0,0.0,0.0,0.0,0.0,0.0,0.0,0.0,0.0,0.0,0.0,0.0,0.0,0.0,0.0,0.0,0.0,0.0,0.0,0.0,0.0,0.0,0.0,0.0,0.0,0.0,0.0,0.0,0.0,0.0,0.0,0.0,0.0,0.0,0.0,0.0,0.0,0.0,0.0,0.0,0.0,0.0449,0.0523,0.0031,0.1477,0.0,0.0,0.0,0.0,0.0,0.0,0.0,0.0,0.0,0.0,0.0,0.0,0.0,0.0,0.0,0.0,0.0,0.0,0.0,0.0,0.0,0.0,0.0,0.0,0.0,0.0,0.0,0.0,0.0,0.0,0.0,0.0,0.0,0.0,0.0,0.0,0.0,0.0,0.0,0.0,0.0,0.0,0.0,0.0,0.0,0.0,0.0,0.0,0.0,0.0,0.0,0.0,0.0,0.0,0.0,0.0,0.0,0.0,0.0,0.0,0.0,0.0,0.0,0.0,0.0,0.0,0.0,0.0,0.0,0.0,0.0,0.0,0.0,0.0,0.0,0.0,0.0,0.0,0.0,0.0,0.0,0.0,0.0,0.0,0.0,0.0,0.0,0.0,0.0,0.0,0.0,0.0,0.0,0.0,0.0,0.0,0.0,0.0,0.0,0.0,0.0,0.0,0.0,0.0,0.0,0.0,0.0,0.0,0.0,0.0,0.0,0.0692,0.0,0.0,0.0,0.0,0.0,0.0,0.0,0.0,0.0,0.0,0.0,0.0,0.0,0.0,0.0,0.0,0.0,0.0,0.0,0.0,0.0,0.0,0.0,0.0,0.0,0.0,0.0,0.0,0.0,0.0,0.0,0.0,0.0,0.0,0.0,0.0,0.0,0.0,0.0,0.0,0.0,0.0,0.0,0.0,0.0,0.0,0.0,0.0,0.0,0.0,0.0,0.0,0.0,0.0,0.0,0.0,0.0,0.0,0.0,0.0,0.0,0.0,0.0,0.0,0.0,0.0,0.0,0.0,0.0,0.0,0.0,0.0,0.0,0.0,0.0,0.0,0.0,0.0,0.0,0.0,0.0,0.0,0.0,0.0,0.0,0.0,0.0,0.0,0.0,0.0,0.0,0.0,0.0,0.0,0.0,0.0,0.0,0.0,0.0,0.0,0.0,0.0,0.0,0.0,0.0,0.0,0.0,0.0,0.0,0.0,0.0,0.0692,0.0,0.0,0.0,0.0,0.0,0.0,0.0,0.0,0.0,0.0,0.0,0.0,0.0,0.0,0.0,0.0,0.0,0.0,0.0,0.0,0.0,0.0,0.0,0.0,0.0,0.0,0.0,0.0,0.0,0.0,0.0,0.0,0.0,0.0,0.0,0.0,0.0,0.0,0.0,0.0,0.0,0.0,0.0,0.0,0.0,0.0,0.0,0.0,0.0,0.0,0.0,0.0,0.0,0.0,0.0,0.0,0.0,0.0,0.0,0.0,0.0,0.0,0.0,0.0,0.0,0.0,0.0,0.0,0.0,0.0,0.0,0.0,0.0,0.0,0.0,0.0,0.0,0.0,0.0,0.0,0.0,0.0,0.0,0.0,0.0,0.0,0.0,0.0,0.0,0.0,0.0,0.0,0.0,0.0,0.0,0.0,0.0,0.0,0.0,0.0,0.0,0.0,0.0,0.0,0.0,0.0,0.0,0.0,0.0,0.0,0.0,0.0,0.0,0.0,0.0,0.0,0.0,0.0,0.0,0.0,0.0,0.0,0.0,0.0,0.0,0.0,0.0,0.0,0.0,0.0,0.0,0.0,0.0,0.0,0.0,0.0,0.0,0.0,0.0,0.0,0.0,0.0,0.0,0.0,0.0,0.0,0.0,0.0,0.0,0.0,0.0,0.0,0.0,0.0,0.0,0.0,0.0,0.0,0.0,0.0,0.0,0.0,0.0,0.0,0.0,0.0,0.0,0.0,0.0,0.0,0.0,0.0,0.0,0.0,0.0,0.0,0.0,0.0,0.0,0.0,0.0,0.0,0.0,0.0,0.0,0.0,0.0,0.0,0.0,0.0,0.0,0.0,0.0,0.0,0.0,0.0,0.0,0.0,0.0,0.0,0.0,0.0,0.0,0.0,0.0,0.0,0.0,0.0,0.0,0.0,0.0,0.0,0.0,0.0,0.0,0.0,0.0,0.0,0.0,0.0,0.0,0.0,0.0,0.0,0.0,0.0,0.0,0.0,0.0,0.0,0.0,0.0,0.0,0.0,0.0,0.0,0.0,0.0,0.0,0.0,0.0,0.0,0.0,0.0,0.0,0.0,0.0,0.0,0.0,0.0,0.0,0.0,0.0,0.0,0.0,0.0,0.0,0.0,0.0,0.0,0.0,0.0,0.0,0.0,0.0,0.0,0.0,0.0,0.0,0.0,0.0,0.0,0.0,0.0,0.0,0.0,0.0,0.0,0.0,0.0,0.0,0.0,0.0,0.0,0.0,0.0,0.0,0.0,0.0,0.0,0.0,0.0,0.0,0.0,0.0,0.0,0.0,0.0,0.0,0.0,0.0,0.0,0.0,0.0,0.0,0.0,0.0,0.0,0.0,0.0,0.0,0.0,0.0,0.0,0.0,0.0,0.0,0.0,0.0,0.0,0.0,0.0,0.0,0.0,0.0,0.0,0.0,0.0,0.0,0.0,0.0,0.0,0.0,0.0,0.0,0.0,0.0,0.0,0.0,0.0,0.0,0.0,0.0,0.0,0.0,0.0,0.0,0.0,0.0,0.0,0.0,0.0,0.0,0.0,0.0,0.0,0.0,0.0,0.0,0.0,0.0,0.0,0.0,0.0,0.0,0.0,0.0,0.0,0.0,0.0,0.0,0.0,0.0,0.0,0.0,0.0,0.0,0.0,0.0,0.0,0.0,0.0,0.0,0.0,0.0,0.0,0.0,0.0,0.0,0.0,0.0,0.0,0.0,0.0,0.0,0.0,0.0,0.0,0.0,0.0,0.0,0.0,0.0,0.0,0.0,0.0,0.0,0.0,0.0,0.0,0.0,0.0,0.0,0.0,0.0,0.0,0.0,0.0,0.0,0.0,0.0,0.0,0.0,0.0,0.0,0.0,0.0,0.0,0.0,0.0,0.0,0.0,0.0,0.0,0.0,0.0,0.0,0.0,0.0,0.0,0.0,0.0,0.0,0.0,0.0,0.0,0.0,0.0,0.0,0.0,0.0,0.0,0.0,0.0,0.0,0.0,0.0,0.0,0.0,0.0,0.0,0.0,0.0,0.0,0.0,0.0,0.0,0.0,0.0,0.0,0.0,0.0,0.0,0.0,0.0,0.0,0.0,0.0,0.0,0.0,0.0,0.0,0.0,0.0,0.0,0.0,0.0,0.0,0.0,0.0,0.0,0.0,0.0,0.0,0.0,0.0,0.0,0.0,0.0,0.0,0.0,0.0,0.0,0.0,0.0,0.0,0.0,0.0,0.0,0.0,0.0,0.0,0.0,0.0,0.0,0.0,0.0,0.0,0.0,0.0,0.0,0.0,0.0,0.0,0.0,0.0,0.0,0.0,0.0,0.0,0.0,0.0,0.0,0.0,0.0,0.0,0.0,0.0,0.0,0.0,0.0,0.0,0.0,0.0,0.0,0.0,0.0,0.0,0.0,-0.0036,0.0,0.0,0.0,0.0,0.0,0.0,0.0,0.0,0.0,0.0,0.0,0.0,0.0,0.0,0.0,0.0,0.0,0.0,0.0,0.0,0.0,0.0,0.0,0.0,0.0,0.0,0.0,0.0,0.0,0.0,0.0,0.0,0.0,0.0,0.0,0.0,0.0,0.0,0.0,0.0,0.0,0.0,0.0,0.0,0.0,0.0,0.0,0.0,0.0,0.0,0.0,0.0,0.0,0.0,0.0,0.0,0.0,0.0,0.0,0.0,0.0,0.0,0.0,0.0,0.0,0.0,0.0,0.0,0.0,0.0,0.0,0.0,0.0,0.0,0.0,0.0,0.0,0.0,0.0,0.0,0.0,0.0,0.0,0.0,0.0,0.0,0.0,0.0,0.0,0.0,0.0,0.0,0.0,0.0,0.0,0.0,0.0,0.0,0.0,0.0,0.0,0.0,0.0,0.0,0.0,0.0,0.0,0.0,0.0,0.0,0.0,-0.0255,-0.0055,0.0,0.0,0.0,0.0,0.0,0.0,0.0,0.0,0.0,0.0,0.0,0.0,0.0,0.0,0.0,0.0,0.0,0.0,0.0,0.0,0.0,0.0,0.0,0.0,0.0,0.0,0.0,0.0,0.0,0.0,0.0,0.0,0.0,0.0,0.0,0.0,0.0,0.0,0.0,0.0,0.0,0.0,0.0,0.0,0.0,0.0,0.0,0.0,0.0,0.0,0.0,0.0,0.0,0.0,0.0,0.0,0.0,0.0,0.0,0.0,0.0,0.0,0.0,0.0,0.0,0.0,0.0,0.0,-0.7511,0.0,0.0,0.0,0.0,0.0,0.0,0.0,0.0,0.0,0.0,0.0,0.0,0.0,0.0,0.0,0.0,0.0,0.0,0.0,0.0,0.0,0.0,0.0,0.0,0.0,0.0,0.0,0.0,0.0,0.0,0.0,0.0,0.0,0.0,0.0,0.0,0.0,0.0,0.0,0.0,0.0,-0.1292,-0.0515,0.0,0.0,0.0,0.0,0.0,0.0,0.0,0.0,0.0,0.0,0.0,0.0,0.0,0.0,0.0,0.0,0.0,0.0,0.0,0.0,0.0,0.0,0.0,0.0,0.0,0.0,0.0,0.0,0.0,0.0,0.0,0.0,0.0,0.0,0.0,0.0,0.0,0.0,0.0,0.0,0.0,0.0,0.0,0.0,0.0,0.0,0.0,0.0,0.0,0.0,0.0,0.0,0.0,0.0,0.0,0.0,0.0,0.0,0.0,0.0,0.0,0.0,0.0,0.0,0.0,0.0,0.0,0.0,0.0,-0.74,0.0,0.0,0.0,0.0,0.0,0.0,0.0,0.0,0.0,0.0,0.0,0.0,0.0,0.0,0.0,0.0,0.0,0.0,0.0,0.0,0.0,0.0,0.0,0.0,0.0,0.0,0.0,0.0,0.0,0.0,0.0,0.0,0.0,0.0,0.0,0.0,0.0,0.0,0.0,0.0,-0.1645,-0.0657,0.0,0.0,0.0,0.0,0.0,0.0,0.0,0.0,0.0,0.0,0.0,0.0,0.0,0.0,0.0,0.0,0.0,0.0,0.0,0.0,0.0,0.0,0.0,0.0,0.0,0.0,0.0,0.0,0.0,0.0,0.0,0.0,0.0,0.0,0.0,0.0,0.0,0.0,0.0,0.0,0.0,0.0,0.0,0.0,0.0,0.0,0.0,0.0,0.0,0.0,0.0,0.0,0.0,0.0,0.0,0.0,0.0,0.0,0.0,0.0,0.0,0.0,0.0,-1.1363,-1.1557,-1.133,-1.0646,-0.9504,-0.8188,-0.7558,-0.7454,0.0,0.0,0.0,0.0,0.0,0.0,0.0,0.0,0.0,0.0,0.0,0.0,0.0,0.0,0.0,0.0,0.0,0.0,0.0,0.0,0.0,0.0,0.0,0.0,0.0,-0.5913,-0.4891,0.0,0.0,0.0,0.0,0.0,0.0,0.0,0.0,0.0,0.0,0.0,0.0,-0.1957,-0.0939,-0.033,-0.0494,-0.05,-0.0488,-0.0472,-0.0471,-0.0489,-0.0508,-0.0508,-0.0511,0.0,0.0,0.0,0.0,0.0,0.0,0.0,0.0,0.0,0.0,0.0,0.0,0.0,0.0,0.0,0.0,0.0,0.0,0.0,0.0,0.0,0.0,0.0,0.0,0.0,0.0,0.0,0.0,0.0,0.0,0.0,0.0,-0.7139,-0.7555,0.0,0.0,0.0,0.0,0.0,0.0,0.0,0.0,0.0,0.0,0.0,0.0,0.0,0.0,-1.5154,-1.4156,-1.3546,-1.3341,-1.2304,-1.1802,-1.1851,-1.1797,-1.1099,-0.9911,-0.9713,0.0,-0.775,-0.7709,0.0,0.0,0.0,0.0,0.0,0.0,0.0,0.0,0.0,0.0,0.0,0.0,0.0,0.0,0.0,0.0,0.0,0.0,0.0,0.0,0.0,0.0,-0.4255,-0.4381,-0.4318,-0.415,0.0,-0.4328,-0.4489,-0.3488,0.0,0.0,0.0,0.0,0.0,0.0,0.0,0.0,-0.2944,-0.2027,-0.1689,-0.2439,-0.2516,-0.2479,-0.2356,-0.2344,-0.2386,-0.2514,-0.2518,-0.2572,-0.2691,-0.283,0.0,0.0,0.0,0.0,0.0,0.0,0.0,0.0,0.0,0.0,0.0,0.0,0.0,0.0,0.0,0.0,0.0,0.0,0.0,0.0,0.0,0.0,0.0,0.0,0.0,0.0,0.0,0.0,0.0,-0.7584,-0.8272,-1.0653,-1.0649,-1.1048,0.0,0.0,0.0,0.0,0.0,0.0,0.0,0.0,0.0,-1.5238,-1.5238,-1.4875,-1.4124,-1.3518,-1.3076,-1.2764,-1.2188,-1.1896,-1.1896,-1.1896,-1.119,-0.9998,-0.9998,-0.9195,-0.7908,-0.782,-0.8103,-0.8555,0.0,0.0,0.0,0.0,0.0,-0.8478,-0.798,0.0,0.0,0.0,0.0,0.0,0.0,0.0,0.0,0.0,0.0,0.0,0.0,0.0,0.0,-0.6249,-0.6249,-0.6049,-0.5297,-0.5382,-0.5192,0.0,-0.3457,-0.3732,-0.4749,0.0,0.0,0.0,0.0,0.0,-0.4131,-0.3241,-0.2724,-0.2977,-0.3006,-0.2962,-0.2823,-0.2886,-0.2924,-0.2898,-0.2979,-0.304,-0.3092,-0.3755,-0.4073,0.0,0.0,0.0,0.0,0.0,0.0,0.0,0.0,0.0,0.0,0.0,0.0,0.0,0.0,0.0,0.0,0.0,0.0,0.0,0.0,0.0,0.0,0.0,0.0,0.0,0.0,0.0,0.0,-0.8317,-0.9072,-1.2801,-1.2032,-1.2042,0.0,0.0,0.0,0.0,0.0,0.0,-1.5984,-1.6028,-1.5833,-1.5428,-1.5415,-1.4837,-1.3638,-1.3552,-1.3347,-1.3032,-1.2948,-1.2721,-1.2406,-1.2406,-1.1531,-0.9998,-0.9998,-0.9242,-0.7982,-0.7891,-0.806,-0.8372,-0.8372,-0.8496,-0.8684,-0.8564,-0.8452,-0.8317,-0.8075,-0.7988,-0.7996,-0.7881,0.0,-0.7634,-0.7542,0.0,0.0,0.0,0.0,-0.7844,-0.7844,0.0,-0.7988,-0.7988,-0.7988,-0.7739,-0.6734,-0.6506,-0.5979,0.0,-0.3569,-0.3636,-0.4612,0.0,0.0,0.0,0.0,-0.4751,-0.4892,-0.425,-0.3796,-0.3838,-0.3845,-0.3796,-0.3661,-0.3732,-0.377,-0.3706,-0.3785,-0.3856,-0.392,-0.4814,-0.5257,-0.5162,0.0,0.0,0.0,0.0,0.0,0.0,0.0,0.0,0.0,0.0,0.0,0.0,0.0,0.0,0.0,0.0,0.0,0.0,0.0,0.0,0.0,0.0,0.0,0.0,0.0,0.0,0.0,0.0,0.0,-1.1663,-1.074,0.0,0.0,0.0,0.0,-1.3861,-1.4375,-1.5231,-1.6585,-1.666,-1.6775,-1.7063,-1.707,-1.7044,-1.6973,-1.6644,-1.636,-1.6075,-1.5767,-1.4973,-1.38,-1.38,-1.2396,-0.9998,-0.9998,-0.9242,-0.7988,-0.7982,-0.874,-0.9887,-0.9887,-1.0609,-1.1551,-1.0333,-0.9895,-0.9719,-0.8428,-0.7988,-0.7988,-0.7982,-0.7902,-0.7797,-0.779,-0.7787,0.0,0.0,-0.7885,-0.8003,-0.8003,-0.7985,-0.7988,-0.7988,-0.7988,-0.7988,-0.7914,-0.7889,-0.7129,0.0,-0.2961,-0.247,-0.3663,0.0,-0.2381,-0.3574,-0.3714,-0.3974,-0.4785,-0.4858,-0.508,-0.5773,-0.5862,-0.5796,-0.5659,-0.5653,-0.5712,-0.5829,-0.5852,-0.5944,-0.6125,-0.6314,-0.6408,-0.6401,-0.6583,0.0,0.0,0.0,0.0,0.0,0.0,0.0,0.0,0.0,0.0,0.0,0.0,0.0,0.0,0.0,0.0,0.0,0.0,0.0,0.0,0.0,0.0,0.0,0.0,0.0,0.0,0.0,0.0,-1.1901,-1.1122,0.0,-1.1969,-1.2118,-1.2742,-1.4173,-1.4441,-1.5264,-1.693,-1.7013,-1.7153,-1.7448,-1.7454,-1.7361,-1.7206,-1.6879,-1.6118,-1.5004,-1.4715,-1.3878,-1.26,-1.26,-1.1653,-0.9998,-0.9998,-0.9242,-0.7988,-0.7988,-0.8283,-0.8701,-0.8701,-0.8994,-0.9336,-0.8874,-0.8701,-0.8651,-0.8162,-0.7988,-0.7988,-0.7988,-0.7979,-0.7935,-0.7935,-0.7935,-0.7935,-0.7935,-0.7973,-0.7988,-0.7988,-0.7988,-0.7988,-0.7988,-0.7988,-0.7988,-0.7988,-0.7988,-0.7711,-0.6753,-0.55,-0.4694,-0.5023,-0.3983,-0.35,-0.4705,-0.4143,-0.3935,-0.4906,-0.4942,-0.5261,-0.6224,-0.6253,-0.6115,-0.5944,-0.604,-0.6078,-0.5996,-0.6125,-0.6222,-0.6296,-0.6512,-0.662,-0.662,-0.677,-0.7005,0.0,0.0,0.0,0.0,0.0,0.0,0.0,0.0,0.0,0.0,0.0,0.0,0.0,0.0,0.0,0.0,0.0,0.0,0.0,0.0,0.0,0.0,0.0,0.0,0.0,0.0,-0.9409,-1.2084,-1.098,-1.0467,-1.1622,-1.1383,-1.1732,-1.3179,-1.3325,-1.4093,-1.5793,-1.5883,-1.5963,-1.6142,-1.6148,-1.6062,-1.5883,-1.5562,-1.4831,-1.3729,-1.3458,-1.2597,-1.1268,-1.1268,-1.0558,-0.9312,-0.9312,-0.8821,-0.7988,-0.7988,-0.7988,-0.7988,-0.7988,-0.7988,-0.7988,-0.7988,-0.7988,-0.7988,-0.7988,-0.7988,-0.7988,-0.7988,-0.7988,-0.7988,-0.7988,-0.7988,-0.7988,-0.7988,-0.7988,-0.7988,-0.7988,-0.7988,-0.7988,-0.7988,-0.7988,-0.7988,-0.7988,-0.7988,-0.7988,-0.7988,-0.6908,-0.5981,-0.5881,-0.4757,-0.4268,-0.5479,-0.4881,-0.4648,-0.5643,-0.5664,-0.5835,-0.6502,-0.6484,-0.6365,-0.6193,-0.629,-0.6307,-0.6186,-0.6294,-0.6395,-0.6426,-0.6597,-0.6725,-0.6776,-0.6901,-0.724,-0.7806,0.0,0.0,0.0,0.0,0.0,0.0,0.0,0.0,0.0,0.0,0.0,0.0,0.0,0.0,0.0,0.0,0.0,0.0,0.0,0.0,0.0,0.0,0.0,-0.978,-0.9235,-0.9579,-1.2008,-1.0178,-0.9133,-1.0242,-0.9367,-0.9325,-1.0808,-1.1031,-1.1728,-1.321,-1.3291,-1.3291,-1.3291,-1.3291,-1.3291,-1.3291,-1.2962,-1.2715,-1.2551,-1.2279,-1.1373,-0.9941,-0.9936,-0.9249,-0.7995,-0.7992,-0.7988,-0.7988,-0.7988,-0.7988,-0.7988,-0.7988,-0.7988,-0.7988,-0.7988,-0.7988,-0.7988,-0.7988,-0.7988,-0.7988,-0.7988,-0.7988,-0.7988,-0.7988,-0.7988,-0.7988,-0.7988,-0.7988,-0.7988,-0.7988,-0.7988,-0.7988,-0.7988,-0.7988,-0.7988,-0.7988,-0.7988,-0.7988,-0.7988,-0.6958,-0.6054,-0.6054,-0.492,-0.439,-0.5557,-0.5592,0.0,-0.6869,-0.6909,-0.6808,-0.6722,-0.6705,-0.6641,-0.6512,-0.6498,-0.6498,-0.6498,-0.6498,-0.6569,-0.6702,-0.6712,-0.679,-0.6924,-0.7078,-0.7243,-0.7438,0.0,0.0,0.0,0.0,0.0,0.0,0.0,0.0,0.0,0.0,0.0,0.0,0.0,0.0,0.0,0.0,0.0,0.0,0.0,0.0,0.0,0.0,-0.8628,-0.8994,-0.8842,-0.8976,-0.9772,-0.9255,-0.8965,-0.9274,-0.904,-0.9468,-1.0921,-1.1076,-1.1728,-1.321,-1.3291,-1.3291,-1.3291,-1.3291,-1.3291,-1.3291,-1.2962,-1.2322,-1.137,-1.1044,-1.021,-0.8918,-0.8809,-0.8559,-0.8201,-0.8064,-0.7988,-0.7988,-0.7988,-0.7988,-0.7988,-0.7988,-0.7988,-0.7988,-0.7988,-0.7988,-0.7988,-0.7988,-0.7988,-0.7988,-0.7988,-0.7988,-0.7988,-0.7988,-0.7988,-0.7988,-0.7988,-0.7988,-0.7988,-0.7988,-0.7988,-0.7988,-0.7988,-0.7988,-0.7988,-0.7988,-0.7988,-0.7988,-0.7988,-0.7711,-0.7459,-0.7459,-0.552,-0.4116,-0.4433,0.0,0.0,-0.4418,-0.5173,-0.5912,-0.6762,-0.6766,-0.6681,-0.6641,-0.6637,-0.6637,-0.6637,-0.6637,-0.6705,-0.684,-0.6941,-0.7121,-0.7411,-0.8061,-0.8444,0.0,0.0,0.0,0.0,0.0,0.0,0.0,0.0,0.0,0.0,0.0,0.0,0.0,0.0,0.0,0.0,0.0,0.0,0.0,0.0,0.0,0.0,-0.8514,-0.8733,-0.877,-0.8777,-0.8811,-0.8899,-0.8912,-0.8912,-0.8912,-0.8912,-0.9265,-1.0104,-1.0186,-1.0539,-1.1406,-1.1456,-1.1456,-1.1456,-1.1456,-1.1456,-1.1456,-1.1266,-1.0772,-0.998,-0.9773,-0.9271,-0.8505,-0.8423,-0.8386,0.0,-0.8201,-0.8136,-0.8108,-0.804,-0.7988,0.0,0.0,0.0,0.0,0.0,-0.7988,-0.7988,-0.7988,-0.7988,-0.7988,-0.7988,-0.7988,-0.7988,-0.7988,-0.7988,-0.7988,-0.7988,-0.7587,-0.7157,-0.7157,-0.6753,-0.6326,-0.6326,-0.6753,-0.7008,-0.6451,-0.7207,-0.7662,-0.6551,0.0,0.0,-0.6426,-0.5497,-0.4829,-0.4829,-0.4063,-0.3733,0.0,-0.542,-0.6329,-0.7024,-0.6955,-0.6864,-0.6864,-0.6864,0.0,0.0,0.0,-0.7021,-0.7112,-0.7232,0.0,0.0,0.0,0.0,0.0,0.0,0.0,0.0,-0.8334,-0.8399,0.0,0.0,0.0,0.0,0.0,0.0,0.0,0.0,0.0,0.0,0.0,0.0,0.0,0.0,0.0,0.0,-0.8337,-0.8277,-0.8392,-0.8546,-0.8716,-0.8881,-0.8912,-0.8912,-0.8912,-0.8912,-0.8912,-0.8912,-0.8912,-0.8912,-0.8912,0.0,0.0,0.0,0.0,-0.8912,-0.8912,-0.8912,-0.8841,-0.871,-0.871,-0.8665,-0.8533,-0.8543,-0.8536,-0.8526,-0.8383,-0.8321,-0.8308,-0.8104,-0.803,-0.7988,-0.7988,-0.7988,-0.7988,-0.7988,-0.7988,0.0,0.0,0.0,0.0,-0.7814,-0.7761,-0.7736,-0.7584,-0.7559,-0.7559,-0.7559,-0.6681,-0.5777,-0.5777,-0.4895,-0.3991,-0.3991,-0.492,-0.545,-0.4268,-0.5872,-0.6852,-0.4468,-0.497,-0.54,-0.4216,-0.487,-0.5552,-0.5552,-0.5438,0.0,-0.5565,-0.6526,-0.7256,-0.7397,0.0,0.0,-0.7146,-0.7146,-0.7229,-0.7413,-0.7433,-0.7444,-0.7444,-0.7567,-0.7648,-0.7648,-0.7773,-0.7888,-0.804,-0.8204,-0.8315,-0.8368,-0.9249,-0.924,0.0,0.0,0.0,0.0,0.0,0.0,0.0,0.0,0.0,0.0,0.0,0.0,0.0,0.0,0.0,-0.7045,-0.6093,-0.5334,-0.5341,-0.6366,-0.7568,-0.8771,-0.8912,-0.8912,-0.8912,-0.8912,-0.8912,-0.8912,-0.8912,-0.8912,-0.8912,-0.8912,0.0,-0.8912,-0.8912,-0.8912,-0.8912,-0.8912,-0.8896,-0.8869,0.0,0.0,-0.8818,-0.8723,-0.8665,-0.8659,-0.8532,-0.8468,-0.8454,-0.8311,-0.815,-0.7988,-0.7988,-0.7988,-0.7988,-0.7988,-0.7988,-0.7988,-0.7988,-0.7988,-0.7814,-0.6734,-0.6381,-0.6179,-0.5095,-0.4768,0.0,-0.4768,-0.4593,-0.4393,-0.4393,-0.4191,-0.3991,-0.3991,-0.4191,-0.4316,-0.4066,-0.4416,-0.4616,-0.4091,-0.4216,-0.4291,-0.4041,-0.3316,-0.2766,-0.2766,-0.265,-0.296,-0.4056,-0.5215,-0.6365,-0.7436,-0.7529,-0.7512,-0.7512,-0.7512,-0.7522,-0.7553,-0.7662,-0.7726,-0.7726,-0.7847,-0.7929,-0.7929,-0.7956,-0.8047,-0.825,-0.8281,-0.8417,-0.8621,-0.8701,-0.8725,0.0,0.0,0.0,0.0,0.0,0.0,0.0,0.0,0.0,0.0,0.0,-0.6202,-0.6418,0.0,-0.5415,-0.5571,-0.4981,-0.4491,-0.4505,-0.5143,-0.614,-0.7629,-0.8463,-0.8912,-0.8912,-0.8912,-0.8912,-0.8912,-0.8912,-0.8912,-0.8912,-0.8912,-0.8912,-0.8912,-0.8912,-0.8912,-0.8912,-0.8912,-0.8912,-0.8912,-0.8912,-0.8912,-0.8909,-0.8831,-0.8798,-0.8787,-0.8662,-0.8598,-0.8577,-0.8386,-0.7836,-0.7147,-0.7034,-0.7409,-0.7988,-0.7988,-0.7587,-0.7008,-0.7008,-0.6553,-0.5897,-0.5222,-0.4995,-0.487,-0.4191,-0.3991,-0.3991,-0.3991,-0.3516,-0.299,-0.299,-0.2489,-0.1988,-0.1988,-0.2514,-0.2815,-0.2138,-0.3065,-0.3615,-0.2264,-0.2539,-0.279,-0.2113,-0.1436,-0.1234,-0.1887,-0.1948,-0.2135,-0.2802,-0.3947,-0.5221,-0.6547,-0.6632,-0.6907,-0.7627,-0.7753,-0.7797,-0.7797,-0.7861,-0.7902,-0.7902,-0.7973,-0.7988,-0.7988,-0.8091,-0.8194,-0.8298,-0.8444,-0.8567,-0.871,-0.871,-0.8723,0.0,0.0,0.0,0.0,0.0,0.0,0.0,0.0,-0.3922,-0.4074,-0.4106,-0.4137,-0.4266,-0.4019,-0.3891,-0.4086,-0.3829,-0.3628,-0.3614,-0.3862,-0.4492,-0.5678,-0.7146,-0.8042,-0.8042,-0.8042,-0.8051,-0.8047,-0.8051,-0.8035,-0.8031,-0.8034,-0.805,-0.8051,-0.8051,-0.8038,-0.8042,-0.8042,-0.8042,-0.8042,-0.8042,-0.8042,-0.8042,-0.8042,-0.8042,-0.8036,-0.7926,-0.7861,-0.7819,-0.7605,-0.6846,-0.5826,-0.5669,-0.627,-0.7227,-0.7225,-0.6528,-0.5602,-0.5602,-0.4895,-0.3966,-0.369,-0.3615,-0.3565,-0.3291,-0.3215,-0.3215,-0.3215,-0.244,-0.1611,-0.1611,-0.0807,0.0,0.0,-0.0832,-0.131,-0.0227,-0.1686,-0.2589,-0.0429,-0.0882,-0.126,-0.0177,0.0,-0.0379,-0.1461,-0.1611,-0.1711,-0.1962,-0.2854,-0.3955,-0.5301,-0.5348,-0.5766,-0.6958,-0.7168,-0.7332,-0.7587,-0.7612,-0.7739,-0.7988,-0.7988,-0.803,-0.8057,-0.8208,-0.8325,-0.8383,-0.8298,-0.8288,-0.8317,-0.813,-0.8349,-0.4155,-0.4104,-0.4006,-0.4101,-0.4037,-0.4043,0.0,0.0,-0.4222,-0.4404,-0.4454,-0.4482,-0.4614,-0.3436,-0.2484,-0.2698,-0.1471,-0.0506,-0.049,-0.1634,-0.2505,-0.2687,-0.405,-0.5001,-0.5001,-0.5001,-0.5002,-0.4985,-0.499,-0.4993,-0.4978,-0.4984,-0.498,-0.4992,-0.499,-0.4985,-0.5001,-0.5001,-0.5001,-0.5001,-0.5001,-0.5001,-0.5001,-0.5001,-0.5001,-0.4999,-0.4962,-0.486,-0.4707,-0.4662,-0.4504,-0.4255,-0.4246,-0.4322,-0.4437,-0.4447,-0.4343,-0.4218,-0.4218,-0.4116,-0.3815,-0.2614,-0.2213,-0.2013,-0.0807,-0.0454,-0.0454,-0.0454,-0.0328,-0.0227,-0.0227,-0.0101,0.0,0.0,-0.0126,-0.0177,-0.0025,-0.0227,-0.0353,-0.005,-0.0126,-0.0177,-0.0025,0.0,-0.005,-0.0202,-0.0227,-0.0656,-0.1837,-0.2109,-0.2707,-0.4054,-0.4196,-0.4242,-0.4401,-0.4435,-0.4945,-0.6154,-0.6229,-0.6756,-0.7963,-0.7988,-0.8077,-0.8267,-0.8287,-0.8423,-0.8662,-0.7361,-0.6803,-0.6906,-0.5607,-0.6394,-0.1679,-0.166,-0.1693,-0.1736,-0.1718,-0.1723,-0.1845,-0.1813,-0.1774,-0.1874,-0.189,-0.1906,-0.1949,-0.1404,-0.0946,0.0,-0.0458,0.0,0.0,-0.0527,-0.0926,-0.0911,-0.1477,-0.2581,-0.4334,-0.4503,-0.4505,-0.4491,-0.4496,-0.4511,-0.4511,-0.4513,-0.4498,-0.4497,-0.4496,-0.4491,-0.4505,-0.4503,-0.4511,-0.4498,-0.4498,-0.4498,-0.4498,-0.4498,-0.4498,-0.4498,-0.4498,-0.4453,-0.4364,-0.4238,-0.3715,-0.2936,-0.2878,-0.2364,-0.1855,-0.3427,-0.3496,-0.283,-0.2825,-0.2314,-0.1586,-0.1008,-0.0832,-0.0731,-0.0177,0.0,0.0,0.0,0.0,0.0,0.0,0.0,0.0,0.0,0.0,0.0,0.0,0.0,0.0,0.0,0.0,0.0,0.0,0.0,0.0,0.0,0.0,-0.0202,-0.0756,-0.0832,-0.136,-0.269,-0.3541,-0.3991,-0.3991,-0.3991,-0.4243,-0.4795,-0.4845,-0.5095,-0.5647,-0.5679,-0.5709,-0.5805,-0.5874,-0.5981,-0.6066,-0.5581,-0.5352,-0.5391,-0.4794,-0.5153,0.0,0.0,0.0,0.0,0.0,0.0,0.0,0.0,0.0,0.0,0.0,0.0,0.0,0.0,0.0,0.0,0.0,0.0,0.0,0.0,0.0,0.0,0.0,-0.0864,-0.3044,-0.3265,-0.3249,-0.3273,-0.3247,-0.3254,-0.3268,-0.327,-0.3263,-0.3249,-0.3247,-0.3252,-0.3256,-0.3256,-0.3267,-0.326,-0.326,-0.3252,-0.3265,-0.3249,-0.3271,-0.3271,-0.3271,-0.3271,-0.3239,-0.3088,-0.2471,-0.1593,-0.1491,-0.0864,-0.0243,-0.2193,-0.2276,-0.1457,-0.1456,-0.0813,0.0,0.0,0.0,0.0,0.0,0.0,0.0,0.0,0.0,0.0,0.0,0.0,0.0,0.0,0.0,0.0,0.0,0.0,0.0,0.0,0.0,0.0,0.0,0.0,0.0,0.0,0.0,0.0,0.0,0.0,-0.0379,-0.1335,-0.2314,-0.2889,-0.2889,-0.2889,-0.3065,-0.3416,-0.3457,-0.3619,-0.3996,-0.3991,-0.4013,-0.406,-0.4139,-0.423,-0.4279,-0.4,-0.3864,-0.3855,-0.3444,-0.325,0.0,0.0,0.0,0.0,0.0,0.0,0.0,0.0,0.0,0.0,0.0,0.0,0.0,0.0,0.0,0.0,0.0,0.0,0.0,0.0,0.0,0.0,0.0,-0.0029,0.0,-0.0148,-0.0148,-0.015,-0.0151,-0.0152,-0.0123,-0.0123,-0.0122,-0.0151,-0.0151,-0.015,-0.0147,-0.0147,-0.0147,-0.0147,-0.0147,-0.0146,-0.0143,-0.0141,-0.014,-0.014,-0.014,-0.014,-0.014,-0.014,-0.0112,-0.0056,-0.0056,-0.0028,0.0,-0.0082,-0.0108,-0.0053,-0.0052,-0.0026,0.0,0.0,0.0,0.0,0.0,0.0,0.0,0.0,0.0,0.0,0.0,0.0,0.0,0.0,0.0,0.0,0.0,0.0,0.0,0.0,0.0,0.0,0.0,0.0,0.0,0.0,0.0,0.0,0.0,0.0,-0.0025,-0.005,-0.0101,-0.0126,-0.0126,-0.0126,-0.0681,-0.1987,-0.2073,-0.2635,-0.3946,-0.3988,-0.406,-0.4185,-0.419,-0.4284,-0.4495,-0.2988,-0.2282,-0.2233,-0.0804,-0.0146,0.0,0.0,0.0,0.0,0.0,0.0,0.0,0.0,0.0,0.0,0.0,0.0,0.0,0.0,0.0,0.0,0.0,0.0,0.0,0.0,0.0,0.0,0.0,0.0,0.0,0.0,0.0,0.0,0.0,0.0,0.0,0.0,0.0,0.0,0.0,0.0,0.0,0.0,0.0,0.0,0.0,0.0,0.0,0.0,0.0,0.0,0.0,0.0,0.0,0.0,0.0,0.0,0.0,0.0,0.0,0.0,0.0,0.0,0.0,0.0,0.0,0.0,0.0,0.0,0.0,0.0,0.0,0.0,0.0,0.0,0.0,0.0,0.0,0.0,0.0,0.0,0.0,0.0,0.0,0.0,0.0,0.0,0.0,0.0,0.0,0.0,0.0,0.0,0.0,0.0,0.0,0.0,0.0,0.0,0.0,0.0,-0.0181,-0.0654,-0.0684,-0.0871,-0.1318,-0.1341,-0.1358,-0.142,-0.1407,-0.1455,-0.1508,-0.0996,-0.0746,-0.073,-0.0236,0.0,0.0,0.0,0.0,0.0,0.0,0.0,0.0,0.0,0.0,0.0,0.0,0.0,0.0,0.0,0.0,0.0,0.0,0.0,0.0,0.0,0.0,0.0,0.0,0.0,0.0,0.0,0.0,0.0,0.0,0.0,0.0,0.0,0.0,0.0,0.0,0.0,0.0,0.0,0.0,0.0,0.0,0.0,0.0,0.0,0.0,0.0,0.0,0.0,0.0,0.0,0.0,0.0,0.0,0.0,0.0,0.0,0.0,0.0,0.0,0.0,0.0,0.0,0.0,0.0,0.0,0.0,0.0,0.0,0.0,0.0,0.0,0.0,0.0,0.0,0.0,0.0,0.0,0.0,0.0,0.0,0.0,0.0,0.0,0.0,0.0,0.0,0.0,0.0,0.0,0.0,0.0,0.0,0.0,0.0,0.0,0.0,0.0,0.0,0.0,0.0,0.0,0.0,0.0,0.0,0.0,0.0,0.0,0.0,0.0,0.0,0.0,0.0,0.0,0.0,0.0,0.0,0.0,0.0,0.0,0.0,0.0029,0.0088,0.0118,0.0118,0.0118,0.0179,0.0212,0.0154,0.0219,0.0286,0.029,0.0287,0.0286,0.0,0.0,0.0,0.0,0.0,0.0,0.0,0.0,0.0,0.0,0.0,0.0,0.0,0.0,0.0,0.0,0.0,0.0,0.0,0.0,0.0,0.0,0.0,0.0,0.0,0.0,0.0,0.0,0.0,0.0,0.0,0.0,0.0,0.0,0.0,0.0056,0.0112,0.011,0.0055,0.0,0.0,0.0,0.0,0.0,0.0,0.0027,0.008,0.0107,0.0134,0.0214,0.0241,0.0241,0.0241,0.0241,0.0241,0.0241,0.0241,0.0241,0.0241,0.016,0.0107,0.0107,0.0053,0.0,0.0,0.0,0.0,0.0,0.0,0.0,0.0,0.0,0.0,0.0,0.0,0.0,0.0,0.0,0.0,0.0,0.0,0.0,0.0,0.0,0.0,0.0,0.0,0.0,0.0,0.0,0.0,0.0,0.0,0.0,0.0,0.0,0.0,0.0,0.0,0.0319,0.1407,0.163,0.1645,0.1645,0.2743,0.0,0.2178,0.3153,0.0,0.4016,0.401,0.0,0.4021,0.0,0.3499,0.2157,0.3246,0.0,0.0,0.0,0.0,0.0,0.0,0.0,0.0,0.0,0.0,0.0,0.0,0.0,0.0,0.0,0.0,0.0,0.0,0.0,0.0,0.0,0.0,0.0,0.0,0.0,0.0,0.0,0.0,0.0,0.0,0.07,0.1649,0.1643,0.0918,0.0,0.0,0.0,0.0,0.0,0.0,0.0217,0.133,0.1642,0.1905,0.3064,0.334,0.334,0.334,0.334,0.334,0.334,0.334,0.334,0.334,0.243,0.1629,0.1629,0.0719,0.0,0.0,0.0,0.0,0.0,0.0,0.0,0.0,0.0,0.0,0.0,0.0,0.0,0.0,0.0,0.0,0.0,0.0,0.0,0.0,0.0,0.0,0.0,0.0,0.0,0.0,0.0,0.0,0.1978,0.1973,0.1986,0.1986,0.1986,0.1959,0.1851,0.1919,0.2185,0.2927,0.3149,0.3202,0.3202,0.4125,0.4636,0.0,0.0,0.0,0.5396,0.5405,0.5416,0.0,0.5405,0.0,0.3997,0.4815,0.4559,0.0,0.1632,0.0841,0.0032,0.0,0.0,0.0,0.0,0.0,0.0,0.074,0.111,0.111,0.111,0.1479,0.2155,0.2136,0.2157,0.2156,0.0,0.2156,0.2137,0.2151,0.2161,0.2142,0.2097,0.2063,0.2062,0.1992,0.2489,0.3214,0.3214,0.2656,0.1986,0.1986,0.1974,0.1988,0.1988,0.1988,0.2153,0.2978,0.3219,0.3409,0.4275,0.4498,0.4498,0.4498,0.4498,0.4498,0.4498,0.4498,0.4498,0.4498,0.3799,0.3214,0.3214,0.2517,0.1986,0.1986,0.1399,0.0973,0.0955,0.0409,0.0,0.0,0.0,0.0,0.0,0.0,0.0,0.0,0.0,0.0,0.0,0.0,0.0,0.0,0.0,0.0,0.0,0.0,0.0,0.0,0.0,0.0,0.4505,0.4498,0.4498,0.4498,0.4498,0.4453,0.4277,0.4367,0.4507,0.4522,0.4672,0.4804,0.4804,0.5205,0.5461,0.5302,0.0,0.6099,0.6086,0.6099,0.6099,0.6099,0.6099,0.5999,0.5763,0.5964,0.5899,0.5431,0.4143,0.262,0.0809,0.0712,0.0707,0.0728,0.0695,0.069,0.0681,0.2096,0.2831,0.2831,0.2831,0.3537,0.4885,0.4885,0.4885,0.4913,0.0,0.0,0.4888,0.4909,0.4905,0.4889,0.4762,0.4734,0.4698,0.4607,0.4669,0.4836,0.4825,0.4961,0.5043,0.4641,0.4498,0.4498,0.4498,0.4498,0.4555,0.4751,0.4804,0.4832,0.5027,0.5085,0.5085,0.5085,0.5085,0.5087,0.5124,0.5128,0.5132,0.5144,0.4968,0.4825,0.4836,0.4697,0.4557,0.4557,0.3403,0.2559,0.2559,0.1067,0.0,0.0,0.0,0.0,0.0,0.0,0.0,0.0,0.0,0.0,0.0,0.0,0.0,0.0,0.0,0.0,0.0,0.0,0.0,0.0,0.0,0.0123,0.4505,0.4498,0.4498,0.4498,0.4498,0.4495,0.4455,0.4462,0.0,0.6035,0.6296,0.6311,0.6311,0.7673,0.8414,0.7314,0.854,0.9653,0.976,0.9782,0.9782,0.0,0.9782,0.9208,0.7698,0.8906,0.0,0.0,0.0,0.63,0.455,0.4448,0.4451,0.445,0.43,0.4203,0.4224,0.4391,0.4487,0.4487,0.4487,0.464,0.4885,0.4885,0.4885,0.4885,0.0,0.0,0.4894,0.491,0.4896,0.4894,0.488,0.4875,0.4873,0.4832,0.5611,0.6642,0.6521,0.7316,0.7957,0.5358,0.4498,0.4498,0.4498,0.4498,0.4751,0.5977,0.6311,0.6589,0.782,0.8128,0.8128,0.8128,0.8128,0.8183,0.8348,0.8373,0.8407,0.8523,0.7444,0.6519,0.664,0.5638,0.4828,0.4828,0.4594,0.4419,0.4419,0.1849,0.0,0.0,0.0,0.0,0.0,0.0,0.0,0.0,0.0,0.0,0.0,0.0,0.0,0.0,0.0,0.0,0.0,0.0,0.0,0.0,0.0,0.074,0.6798,0.6785,0.6785,0.6785,0.6785,0.6767,0.6708,0.0,0.0,0.7618,0.7797,0.7848,0.7848,0.881,0.939,0.8756,0.9615,1.0432,1.0582,1.0602,1.0629,1.0677,1.0688,1.0349,0.0,1.018,0.0,0.0,0.0,0.8245,0.5543,0.5403,0.5398,0.5391,0.6067,0.5993,0.5116,0.5844,0.62,0.62,0.62,0.663,0.7457,0.7457,0.7457,0.7457,0.7457,0.0,0.7437,0.7437,0.7463,0.7438,0.738,0.7359,0.7351,0.7259,0.7677,0.8285,0.8218,0.8689,0.9045,0.7446,0.6885,0.6785,0.6785,0.6785,0.6924,0.7651,0.7848,0.8029,0.8833,0.9049,0.9069,0.915,0.9167,0.9188,0.9284,0.9301,0.9322,0.9396,0.8765,0.8215,0.8282,0.7706,0.7238,0.7238,0.6562,0.6037,0.6037,0.3992,0.2552,0.2552,0.2552,0.2561,0.2552,0.1772,0.1287,0.1309,0.0477,0.0,0.0,0.0,0.0,0.0,0.086,0.1295,0.1295,0.2203,0.2646,0.2646,0.2761,0.3243,0.8919,0.8933,0.895,0.8919,0.8912,0.8879,0.8757,0.8825,0.8879,0.8757,0.8828,0.8919,0.8953,0.93,0.9581,0.9646,1.0005,1.0363,1.0473,1.0521,1.0585,1.0707,1.0688,0.0,1.0688,1.0688,0.0,0.0,0.0,0.0,0.67,0.6531,0.6524,0.6524,0.7591,0.7538,0.6212,0.7336,0.7914,0.7914,0.7914,0.859,0.9792,0.9792,0.9792,0.9792,0.9792,0.0,0.0,0.9792,0.9792,0.9781,0.9696,0.9656,0.9639,0.952,0.9476,0.9469,0.9442,0.9432,0.9434,0.9281,0.9103,0.895,0.8919,0.8912,0.8919,0.895,0.8956,0.9018,0.9192,0.923,0.926,0.9383,0.9434,0.9432,0.9432,0.9432,0.9439,0.9469,0.9452,0.9439,0.9469,0.9476,0.9476,0.9476,0.8466,0.7664,0.7664,0.6658,0.5949,0.5949,0.5326,0.4903,0.489,0.3744,0.3,0.3019,0.1784,0.1035,0.1048,0.1048,0.1048,0.1048,0.2377,0.306,0.306,0.448,0.5173,0.5175,0.5331,0.5586,0.8946,0.9032,0.9128,0.8943,0.8912,0.8906,0.8892,0.8899,0.8906,0.8892,0.8899,0.895,0.9138,0.9308,0.949,0.9727,1.007,1.0363,1.0473,1.0612,1.0704,1.0684,0.0,0.0,1.0688,0.0,0.0,0.0,0.0,0.0,0.0,1.0204,1.0197,1.0197,1.0119,0.9967,0.9808,0.9656,0.9576,0.9576,0.9576,0.9667,0.9792,0.9792,0.9792,0.9792,0.0,0.0,0.0,0.9792,0.9792,0.9788,0.9775,0.9771,0.9768,0.9754,0.9751,0.9734,0.9632,0.9588,0.9564,0.9437,0.9288,0.9138,0.895,0.8912,0.8936,0.9124,0.9162,0.9196,0.9349,0.939,0.9393,0.9407,0.9486,0.9588,0.9588,0.9588,0.9629,0.9724,0.9676,0.9629,0.9727,0.9751,0.9751,0.9751,0.9657,0.9566,0.9566,0.9442,0.9351,0.9351,0.6674,0.4895,0.4906,0.4764,0.4675,0.4687,0.4539,0.445,0.4456,0.4456,0.4456,0.4456,0.4731,0.4857,0.4857,0.5217,0.5383,0.5383,0.539,0.6195,0.9059,0.9206,0.9305,0.9218,0.9137,0.9066,0.9066,0.8973,0.8912,0.8912,0.9008,0.9114,0.92,0.9383,0.9585,0.9758,0.9971,1.0222,1.046,1.0544,1.0616,1.0677,1.0688,0.0,0.0,0.0,0.0,0.0,0.0,0.0,0.0,1.0688,1.0688,1.0688,1.0517,1.0409,1.0409,1.0202,1.0049,0.9927,0.9927,0.9879,0.9792,0.9792,0.9792,0.9792,0.0,0.0,0.0,0.9792,0.9792,0.9792,0.9792,0.9792,0.9792,0.9792,0.9792,0.9781,0.9724,0.9707,0.9683,0.9564,0.9479,0.9401,0.9249,0.9205,0.9218,0.9301,0.9318,0.9352,0.9479,0.9581,0.9646,0.9646,0.9693,0.9707,0.9707,0.9707,0.9724,0.9781,0.9744,0.9724,0.9781,0.9792,0.9792,0.9792,0.9792,0.9792,0.9792,0.9792,0.9792,0.9792,0.8621,0.7853,0.784,0.6964,0.6402,0.6411,0.5466,0.4937,0.501,0.5012,0.5065,0.5206,0.6216,0.6713,0.6744,0.7908,0.8482,0.8482,0.8559,0.8925,0.9155,0.9325,0.9439,0.942,0.9294,0.921,0.921,0.9104,0.9001,0.9001,0.9148,0.9264,0.9308,0.9462,0.9656,0.9768,0.9957,1.016,1.0399,1.0504,1.0599,1.0674,0.0,0.0,0.0,0.0,0.0,0.0,0.0,0.0,0.0,1.0688,1.0688,1.0688,1.0571,1.049,1.049,1.0383,1.0226,1.0086,1.0086,1.0008,0.9856,0.9856,0.9832,0.9792,0.0,0.0,0.0,0.9792,0.9792,0.9792,0.9792,0.9792,0.9792,0.9792,0.9792,0.9792,0.9792,0.9792,0.9775,0.9703,0.9673,0.9652,0.9544,0.9449,0.942,0.9435,0.9479,0.9537,0.9646,0.9717,0.9792,0.9792,0.9792,0.9792,0.9792,0.9792,0.9792,0.9792,0.9792,0.9792,0.9792,0.9792,0.9792,0.9792,0.9792,0.9792,0.9792,0.9792,0.9792,0.9792,0.9792,0.9792,0.9792,0.8809,0.8183,0.8183,0.7107,0.6536,0.6632,0.6634,0.6699,0.6835,0.7991,0.8592,0.8592,0.9928,1.0558,1.0561,1.067,1.0688,0.921,0.9403,0.9571,0.9418,0.9294,0.921,0.921,0.9207,0.9207,0.9207,0.9301,0.9425,0.9578,0.9608,0.9656,0.9768,1.008,1.0312,1.0315,1.0534,1.0684,0.0,0.0,1.0688,0.0,0.0,0.0,0.0,0.0,0.0,0.0,1.0688,1.0688,1.0688,1.0571,1.049,1.049,1.0383,1.0312,1.0312,1.0312,1.0198,0.9984,0.9984,0.9934,0.0,0.0,0.0,0.0,0.9792,0.9792,0.9792,0.9792,0.9792,0.9792,0.9792,0.9792,0.9792,0.9792,0.9792,0.9792,0.9788,0.9788,0.9788,0.9788,0.9612,0.9441,0.9564,0.9677,0.9788,0.9788,0.9788,0.9792,0.9792,0.9792,0.9792,0.9792,0.9792,0.9792,0.9792,0.9792,0.9792,0.9792,0.9792,0.9792,0.9792,0.9792,0.9792,0.9792,0.9792,0.9792,0.9792,0.9792,0.9792,0.9792,0.9896,0.9984,0.9984,1.0129,1.0245,1.0245,1.0245,1.0245,1.0248,1.0383,1.0458,1.0458,1.061,1.0684,1.0684,1.0688,1.0688,0.9128,0.9328,0.9442,0.9424,0.9294,0.9238,0.9315,0.9257,0.9241,0.9318,0.9432,0.9551,0.9602,0.969,0.9836,1.0093,1.0215,1.0351,1.0555,1.0718,0.0,1.0698,1.0688,0.0,0.0,0.0,0.0,0.0,0.0,0.0,0.0,1.0688,1.0688,1.0688,1.0673,1.0649,1.0649,1.0605,1.0527,1.0426,1.0426,1.0293,0.9987,0.9987,0.0,0.0,0.0,0.0,0.0,0.9792,0.9792,0.9792,0.9792,0.9792,0.9792,0.9792,0.9792,0.9792,0.9792,0.9792,0.9792,0.9792,0.9792,0.9792,0.9792,0.9754,0.9693,0.9741,0.9754,0.9792,0.9792,0.9792,0.9792,0.9792,0.9792,0.9792,0.9792,0.9792,0.9822,0.9927,0.9947,0.9981,1.0117,1.0134,1.0134,1.0134,1.0134,1.0134,1.0134,1.0134,1.0134,1.0134,1.0134,1.0093,0.9954,0.9991,1.0062,1.0202,1.0253,1.0324,1.0422,1.0426,1.0473,1.0578,1.0626,1.0649,1.0649,1.0664,1.0688,1.0688,1.0688,1.0688,0.91,0.9294,0.941,0.941,0.9339,0.9291,0.939,0.9379,0.9379,0.9449,0.9585,0.969,0.969,0.9778,0.994,1.0161,1.0287,1.0426,1.0609,0.0,0.0,1.0782,0.0,0.0,0.0,0.0,0.0,0.0,0.0,0.0,0.0,0.0,1.0688,1.0688,1.0688,1.0688,1.0688,1.0688,1.0673,1.0578,1.0578,1.0449,1.0184,1.0184,0.0,0.0,0.0,0.0,0.0,0.9995,0.9995,0.9995,0.9995,0.9995,0.9988,0.9896,0.9876,0.9866,0.9808,0.9792,0.9792,0.9792,0.9792,0.9792,0.9792,0.9792,0.9792,0.9792,0.9792,0.9792,0.9792,0.9792,0.9792,0.9792,0.9836,0.9876,0.9876,0.9923,1.0022,1.0089,1.0106,1.0136,1.0263,1.0312,1.0312,1.0312,1.0312,1.0312,1.0312,1.0312,1.0312,1.0312,1.0312,1.0263,1.0187,1.0184,1.0224,1.0354,1.0415,1.0487,1.0575,1.0578,1.0622,1.0684,1.0688,1.0688,1.0688,1.0688,1.0688,1.0688,1.0688,1.0688,0.0,0.9271,0.9383,0.939,0.9393,0.94,0.942,0.9507,0.0,0.9622,0.97,0.9795,0.9805,0.992,1.0025,1.0014,1.031,1.0493,0.0,1.0721,0.0,0.0,0.0,0.0,0.0,0.0,0.0,0.0,0.0,0.0,0.0,0.0,1.0688,1.0688,1.0688,1.0688,1.0688,1.0688,1.0688,1.0688,1.0688,1.0639,1.049,1.049,0.0,0.0,0.0,0.0,0.0,1.0312,1.0312,1.0312,1.0312,1.0312,1.0295,1.0086,1.0035,1.0011,0.9859,0.9805,0.9805,0.9795,0.9792,0.9792,0.9792,0.9792,0.9792,0.9792,0.9792,0.9792,0.9805,0.9805,0.9808,0.9822,0.993,1.0035,1.0035,1.0178,1.0315,1.0325,1.0297,1.0332,1.0342,1.0346,1.0346,1.0346,1.0346,1.0346,1.0346,1.0346,1.0346,1.0346,1.0346,1.0365,1.0497,1.05,1.0497,1.0507,1.0639,1.0688,1.0688,1.0688,1.0688,1.0688,1.0688,1.0688,1.0688,1.0688,1.0688,1.0688,1.0688,1.0688,0.8943,0.0,0.9041,0.9206,0.9237,0.9294,0.0,0.9585,0.9639,0.9717,0.9768,0.9825,0.9944,0.9994,1.0092,1.0351,1.0446,1.0531,1.0649,0.0,0.0,1.0901,0.0,0.0,0.0,0.0,0.0,0.0,0.0,0.0,0.0,0.0,1.0688,1.0688,1.0688,1.0688,1.0688,1.0688,1.0688,1.0688,1.0688,1.0639,1.049,1.049,0.0,0.0,0.0,0.0,1.0312,1.0312,1.0312,1.0312,1.0312,1.0312,1.0276,1.0239,1.0226,1.0205,1.0018,0.9964,0.9944,0.9829,0.9792,0.9792,0.9792,0.9792,0.9792,0.9792,0.9792,0.9815,0.9934,0.9964,0.9994,1.0144,1.0202,1.0226,1.0226,1.0256,1.0346,1.0422,1.0443,1.048,1.0599,1.0616,1.0616,1.0616,1.0616,1.0616,1.0616,1.0616,1.0616,1.0616,1.0616,1.0629,1.0663,1.0558,1.0541,1.066,1.0667,1.0688,1.0688,1.0688,1.0688,1.0688,1.0688,1.0688,1.0688,1.0688,1.0688,1.0688,1.0688,1.0688,0.8912,0.9011,0.9161,0.9267,0.9386,0.9503,0.9669,0.9707,0.9697,0.9775,0.9792,0.9839,0.9991,1.0076,1.0229,1.0456,1.0551,0.0,0.0,0.0,1.0742,1.0897,0.0,0.0,0.0,0.0,0.0,0.0,0.0,0.0,0.0,0.0,1.0688,1.0688,1.0688,1.0688,1.0688,1.0688,1.0688,1.0688,1.0688,1.0677,1.0599,1.0599,0.0,0.0,0.0,0.0,1.0483,1.0483,1.0483,1.0483,1.0483,1.0483,1.0473,1.0402,1.0378,1.0354,1.0209,1.0076,0.9974,0.992,0.9896,0.9896,0.9896,0.9944,1.0015,0.9913,0.9896,0.993,1.0082,1.0123,1.0178,1.0259,1.0363,1.0378,1.0378,1.0432,1.0507,1.0582,1.0599,1.0622,1.0707,1.0688,1.0688,1.0688,1.0688,1.0688,1.0688,1.0688,1.0688,1.0688,1.0688,1.0688,1.0688,1.0643,1.0633,1.0714,1.0688,1.0688,1.0688,1.0688,1.0688,1.0688,1.0688,1.0688,1.0688,1.0688,1.0688,1.0688,1.0688,1.0688,0.8967,0.9225,0.9439,0.942,0.9602,0.9792,0.9792,0.9792,0.9792,0.9792,0.9808,0.9873,1.0025,1.0229,0.0,0.0,0.0,0.0,1.0867,1.0769,1.0735,0.0,0.0,0.0,0.0,0.0,0.0,0.0,0.0,0.0,0.0,0.0,0.0,1.0688,1.0688,1.0688,1.0688,1.0688,1.0688,1.0688,1.0688,1.0688,1.0688,1.0688,1.0688,0.0,0.0,0.0,1.0688,1.0688,1.0688,1.0688,1.0688,1.0688,1.0704,1.0575,1.0527,1.0507,1.0397,1.0212,1.0055,1.0055,1.0055,1.0055,1.0055,1.0175,1.0256,1.0116,1.0069,1.0089,1.0273,1.0346,1.0352,1.0373,1.0439,1.0527,1.0527,1.0629,1.0688,1.0688,1.0688,1.0688,1.0688,1.0688,1.0688,1.0688,1.0688,1.0688,1.0688,1.0688,1.0688,1.0688,1.0688,1.0688,1.0688,1.0688,1.0688,1.0688,1.0688,1.0688,1.0688,1.0688,1.0688,1.0688,1.0688,1.0688,1.0688,1.0688,1.0688,1.0688,1.0688,1.0688,0.9245,0.953,0.9693,0.9442,0.9602,0.9792,0.9792,0.9792,0.9792,0.9792,0.9893,1.0032,1.0215,1.047,1.0671,0.0,0.0,1.0843,0.0,0.0,0.0,0.0,0.0,0.0,0.0,0.0,0.0,0.0,0.0,0.0,0.0,0.0,0.0,1.0688,1.0688,1.0688,1.0688,1.0688,1.0688,1.0688,1.0688,1.0688,1.0688,1.0688,1.0688,0.0,0.0,1.0688,1.0688,1.0688,1.0688,1.0688,1.0688,1.0688,1.0684,1.0694,1.0683,1.0663,1.051,1.0365,1.0246,1.0246,1.0246,1.0246,1.0246,1.0291,1.0332,1.0395,1.0337,1.028,1.0422,1.046,1.049,1.0622,1.0637,1.0683,1.0683,1.0704,1.0688,1.0688,1.0688,1.0688,1.0688,1.0688,1.0688,1.0688,1.0688,1.0688,1.0688,1.0688,1.0688,1.0688,1.0688,1.0688,1.0688,1.0688,1.0688,1.0688,1.0688,1.0688,1.0688,1.0688,1.0688,1.0688,1.0688,1.0688,1.0688,1.0688,1.0688,1.0688,1.0688,1.0688,0.9054,0.9418,0.9676,0.9537,0.9846,1.0181,1.0181,1.0124,1.007,1.007,1.0124,1.0219,1.0368,0.0,1.0646,1.0769,0.0,0.0,0.0,0.0,0.0,0.0,0.0,0.0,0.0,0.0,0.0,0.0,0.0,0.0,0.0,0.0,0.0,0.0,1.0688,1.0688,1.0688,1.0688,1.0688,1.0688,1.0688,1.0688,1.0688,1.0688,1.0688,1.0688,0.0,1.0688,1.0688,1.0688,1.0688,1.0688,1.0688,1.0688,1.0688,1.0688,1.0688,1.0677,1.0639,1.0517,1.0395,1.0395,1.0395,1.0395,1.0395,1.0453,1.0531,1.0599,1.051,1.0429,1.0575,1.0616,1.0633,1.0704,1.0688,1.0688,1.0688,1.0688,1.0688,1.0688,1.0688,1.0688,1.0688,1.0688,1.0688,1.0688,1.0688,1.0688,1.0688,1.0688,1.0688,1.0688,1.0688,1.0688,1.0688,1.0688,1.0688,1.0688,1.0688,1.0688,1.0688,1.0688,1.0688,1.0688,1.0688,1.0688,1.0688,1.0688,1.0688,1.0688,1.0688,1.0688,0.8909,0.9293,0.9625,0.9666,1.0053,1.0399,1.0432,1.0331,1.0236,1.0305,1.0307,1.0397,1.0473,1.087,0.0,1.1342,1.1692,0.0,0.0,0.0,0.0,0.0,0.0,0.0,0.0,0.0,0.0,0.0,0.0,0.0,0.0,0.0,0.0,0.0,1.0916,1.0688,1.0688,1.0688,1.0688,1.0688,1.0688,1.0688,1.0688,1.0688,1.0688,1.0688,1.0688,1.0688,1.0688,1.0688,1.0688,1.0688,1.0688,1.0688,1.0688,1.0688,1.0688,1.0688,1.0688,1.0643,1.0544,1.0544,1.0544,1.0544,1.0544,1.0626,1.0688,1.0688,1.0636,1.0571,1.0657,1.0688,1.0688,1.0688,1.0688,1.0688,1.0688,1.0688,1.0688,1.0688,1.0688,1.0688,1.0688,1.0688,1.0688,1.0688,1.0688,1.0688,1.0688,1.0688,1.0688,1.0688,1.0688,1.0688,1.0688,1.0688,1.0688,1.0688,1.0688,1.0688,1.0688,1.0688,1.0688,1.0688,1.0688,1.0688,1.0688,1.0688,1.0688,1.0688,1.0688,1.0688,0.9087,0.9396,0.9676,0.9917,0.9987,1.0086,1.0263,1.0147,1.0076,1.0249,1.0385,1.048,0.0,1.2029,1.3303,1.3286,0.0,0.0,0.0,0.0,0.0,0.0,0.0,0.0,0.0,0.0,0.0,0.0,0.0,0.0,0.0,0.0,0.0,0.0,0.0,1.0688,1.0688,1.0688,1.0688,1.0688,1.0688,1.0688,1.0688,1.0688,1.0688,1.0688,1.0688,1.0688,1.0688,1.0688,1.0688,1.0688,1.0688,1.0688,1.0688,1.0688,1.0688,1.0688,1.0688,1.0681,1.0704,1.0704,1.0704,1.0704,1.0704,1.0677,1.0688,1.0688,1.0677,1.0707,1.0684,1.0688,1.0688,1.0688,1.0688,1.0688,1.0688,1.0688,1.0688,1.0688,1.0688,1.0688,1.0688,1.0688,1.0688,1.0688,1.0688,1.0688,1.0688,1.0688,1.0688,1.0688,1.0688,1.0688,1.0688,1.0688,1.0688,1.0688,1.0688,1.0688,1.0688,1.0688,1.0688,1.0688,1.0688,1.0688,1.0688,1.0688,1.0688,1.0688,1.0688,1.0688,0.8821,0.9235,0.9635,0.9717,0.9957,1.0232,1.0378,1.0439,1.0451,1.0541,1.0599,1.0958,0.0,0.0,1.4997,1.4997,0.0,0.0,0.0,0.0,0.0,0.0,0.0,0.0,0.0,0.0,0.0,0.0,0.0,0.0,0.0,0.0,0.0,0.0,0.0,1.0688,1.0688,1.0688,1.0688,1.0688,1.0688,1.0688,1.0688,1.0688,1.0688,1.0688,1.0688,1.0688,1.0688,1.0688,1.0688,1.0688,1.0688,1.0688,1.0688,1.0688,1.0688,1.0688,1.0688,1.0688,1.0688,1.0688,1.0688,1.0688,1.0688,1.0688,1.0688,1.0688,1.0688,1.0688,1.0688,1.0688,1.0688,1.0688,1.0688,1.0688,1.0688,1.0688,1.0688,1.0688,1.0688,1.0688,1.0688,1.0688,1.0688,1.0688,1.0688,1.0688,1.0688,1.0688,1.0688,1.0688,1.0688,1.0688,1.0688,1.0688,1.0688,1.0688,1.0688,1.0688,1.0688,1.0688,1.0688,1.0688,1.0688,1.0688,1.0688,1.0688,1.0688,1.0688,1.0688,1.0688,0.8808,0.9252,0.9686,0.9707,1.0019,1.0349,1.046,1.0571,1.0663,1.0677,1.1144,1.2055,1.3811,0.0,0.0,0.0,0.0,0.0,0.0,0.0,0.0,0.0,0.0,0.0,0.0,0.0,0.0,0.0,0.0,0.0,0.0,0.0,0.0,0.0,0.0,1.0688,1.0688,1.0688,1.0688,1.0688,1.0688,1.0688,1.0688,1.0688,1.0688,1.0688,1.0688,1.0688,1.0688,1.0688,1.0688,1.0688,1.0688,1.0688,1.0688,1.0688,1.0688,1.0688,1.0688,1.0688,1.0688,1.0688,1.0688,1.0688,1.0688,1.0688,1.0688,1.0688,1.0688,1.0688,1.0688,1.0688,1.0688,1.0688,1.0688,1.0688,1.0688,1.0688,1.0688,1.0688,1.0688,1.0688,1.0688,1.0688,1.0688,1.0688,1.0688,1.0688,1.0688,1.0688,1.0688,1.0688,1.0688,1.0688,1.0688,1.0688,1.0688,1.0688,1.0688,1.0688,1.0688,1.0688,1.0688,1.0688,1.0688,1.0688,1.0688,1.124,1.1534,1.1534,1.1534,1.1534,0.9141,0.9479,0.9825,0.9978,1.0164,1.0352,1.0492,1.0526,1.0538,1.069,1.2121,1.3872,1.5627,1.7339,0.0,0.0,0.0,0.0,0.0,0.0,0.0,0.0,0.0,0.0,0.0,0.0,0.0,0.0,0.0,0.0,0.0,0.0,0.0,0.0,0.0,0.0,1.0721,1.0717,1.0721,1.0688,1.0688,1.0688,1.0688,1.0688,1.0688,1.0688,1.0688,1.0688,1.0688,1.0688,1.0688,1.0688,1.0688,1.0688,1.0688,1.0688,1.0688,1.0688,1.0688,1.0688,1.0688,1.0688,1.0688,1.0688,1.0688,1.0688,1.0688,1.0688,1.0688,1.0688,1.0688,1.0688,1.0688,1.0688,1.0688,1.0688,1.0688,1.0688,1.0688,1.0688,1.0688,1.0688,1.0688,1.0688,1.0688,1.0688,1.0688,1.0688,1.0688,1.0721,1.0717,1.0717,1.0754,1.0754,1.0754,1.0754,1.0754,1.0754,1.0754,1.0754,1.0721,1.0717,1.0721,1.0754,1.0754,1.0754,1.0754,1.2479,1.332,1.332,1.332,1.332,0.9018,0.933,0.9707,0.9822,1.0161,1.0758,1.2045,1.1442,1.0989,1.2274,1.4879,1.7114,1.7629,0.0,0.0,0.0,0.0,0.0,0.0,0.0,0.0,0.0,0.0,0.0,0.0,0.0,0.0,0.0,0.0,0.0,0.0,0.0,0.0,0.0,0.0,0.0,1.2541,1.2545,1.1927,1.0688,1.0688,1.0688,1.0688,1.0688,1.0688,1.0688,1.0688,1.0688,1.0688,1.0688,1.0688,1.0688,1.0688,1.0688,1.0688,1.0688,1.0688,1.0688,1.0688,1.0688,1.0688,1.0688,1.0688,1.0688,1.0688,1.0688,1.0688,1.0688,1.0688,1.0688,1.0688,1.0688,1.0688,1.0688,1.0688,1.0688,1.0688,1.0688,1.0688,1.0688,1.0688,1.0688,1.0688,1.0688,1.0688,1.0688,1.0688,1.0688,1.0688,1.1762,1.2545,1.2545,1.3615,1.4362,1.4362,1.4362,1.4362,1.4362,1.4362,1.3807,1.2574,1.2545,1.3095,1.4325,1.4362,1.4362,1.4358,1.4879,1.5139,1.5139,1.5139,1.5139,0.9429,0.9669,0.9924,1.0096,1.0337,1.0955,1.2783,1.2951,1.3259,0.0,1.7049,1.8698,1.9419,0.0,0.0,0.0,0.0,0.0,0.0,0.0,0.0,0.0,0.0,0.0,0.0,0.0,0.0,0.0,0.0,0.0,0.0,0.0,0.0,0.0,0.0,0.0,1.433,1.4325,1.3807,1.2771,1.2771,1.2413,1.1699,1.1012,1.0688,1.0688,1.0688,1.0688,1.0688,1.0688,1.0688,1.0688,1.0688,1.0688,1.0688,1.0688,1.0688,1.0688,1.0688,1.0688,1.0688,1.0688,1.0688,1.0688,1.0688,1.0688,1.0688,1.0688,1.0688,1.0688,1.0688,1.0688,1.0688,1.0688,1.0688,1.0883,1.1567,1.1178,1.1111,1.2512,1.2219,1.1956,1.2643,1.2186,1.1729,1.1729,1.1729,1.1989,1.2672,1.3681,1.4325,1.4325,1.5269,1.5913,1.5913,1.5913,1.5913,1.5913,1.5913,1.5751,1.5367,1.4716,1.4814,1.5886,1.5913,1.5913,1.5913,1.6592,1.692,1.692,1.692,1.692,1.0104,1.0239,1.0331,1.0626,1.0831,1.1481,1.3348,1.5107,1.6786,1.8218,0.0,1.9221,2.0817,0.0,0.0,0.0,0.0,0.0,0.0,0.0,0.0,0.0,0.0,0.0,0.0,0.0,0.0,0.0,0.0,0.0,0.0,0.0,0.0,0.0,0.0,0.0,1.6145,1.6145,1.6048,0.0,1.5913,1.5074,1.3484,1.1894,1.1078,1.0916,1.0784,1.0688,1.0688,1.0688,1.0688,1.0688,1.0688,1.0688,1.0688,1.0688,1.0688,1.0688,1.0688,1.0688,1.0688,1.0688,1.0688,1.0721,1.0883,1.0949,1.0982,1.1144,1.1178,1.1144,1.0982,1.0949,1.0916,1.0754,1.0688,1.1178,1.2931,1.2058,1.1927,1.5265,1.4619,1.4003,1.5432,1.4488,1.355,1.355,1.355,1.4101,1.5686,1.6043,1.6145,1.6145,1.6269,1.6366,1.6366,1.6366,1.6366,1.6366,1.6366,1.7082,1.8666,1.7049,1.621,1.6366,1.6366,1.6366,1.6366,1.7956,1.8736,1.8736,1.8736,1.8736,0.9747,0.9893,1.014,1.0466,1.267,1.5211,1.6974,1.8736,1.9712,1.8698,1.9578,2.0652,0.0,0.0,0.0,0.0,0.0,0.0,0.0,0.0,0.0,0.0,0.0,0.0,0.0,0.0,0.0,0.0,0.0,0.0,0.0,0.0,0.0,0.0,0.0,1.9317,1.7956,1.7956,1.7243,0.0,1.5913,1.5686,1.5329,1.4944,1.4036,1.2672,1.1273,1.0688,1.0688,1.0688,1.0688,1.0688,1.0688,1.0688,1.0688,1.0688,1.0688,1.0688,1.0688,1.0688,1.0688,1.0688,1.0688,1.0949,1.2314,1.2738,1.3029,1.439,1.4781,1.446,1.3095,1.2738,1.2413,1.1045,1.0688,1.1178,1.2931,1.2997,1.3353,1.5492,1.5589,1.5042,1.4036,1.4684,1.5329,1.5329,1.5329,1.5492,1.5848,1.7082,1.7956,1.7956,1.9158,1.9966,1.9966,1.9966,1.9966,1.9966,1.9966,2.0164,2.0519,1.8864,1.857,1.9935,1.9966,1.9966,1.9966,2.036,2.0557,2.0557,2.0557,2.0557,0.9873,1.0042,1.0419,1.1549,1.3895,1.6372,1.8084,1.9839,2.0849,1.9935,2.0456,0.0,0.0,0.0,0.0,0.0,0.0,0.0,0.0,0.0,0.0,0.0,0.0,0.0,0.0,0.0,0.0,0.0,0.0,0.0,0.0,0.0,0.0,0.0,2.1109,2.0652,1.9737,1.9737,1.9285,1.8378,1.8378,1.8378,1.8346,1.6662,1.4944,1.3292,1.3226,1.2705,1.2025,1.2836,1.3193,1.3095,1.2285,1.1923,1.1828,1.1016,1.0688,1.0688,1.0688,1.124,1.1923,1.1923,1.2512,1.3193,1.3292,1.3292,1.3325,1.339,1.3419,1.3193,1.2281,1.2058,1.1828,1.0916,1.0688,1.1178,1.2931,1.2639,1.3062,1.6463,1.6468,1.5886,1.5789,1.5848,1.6172,1.7017,1.7146,1.7436,1.8282,1.9189,1.9737,1.9737,2.0557,2.1109,2.1109,2.1109,2.1109,2.1109,2.1109,2.1109,2.1109,2.0227,2.0164,2.1077,2.1109,2.1109,2.1109,2.1109,2.1109,2.1109,2.1109,2.1109,1.0019,1.0451,1.1295,1.3618,1.5269,1.6824,1.8538,2.0068,2.1109,2.1109,2.1109,0.0,0.0,0.0,0.0,0.0,0.0,0.0,0.0,0.0,0.0,0.0,0.0,0.0,0.0,0.0,0.0,0.0,0.0,0.0,2.1109,0.0,2.1109,2.1109,2.1109,2.1109,2.1109,2.1109,2.1109,2.1109,2.1109,2.1109,2.1014,1.8116,1.5848,1.4264,1.5394,1.5074,1.3872,1.5302,1.5913,1.5751,1.4297,1.3746,1.3582,1.2121,1.16,1.16,1.16,1.2541,1.3746,1.3746,1.4716,1.5691,1.4553,1.4199,1.3905,1.2446,1.2055,1.1927,1.1306,1.1144,1.1078,1.0784,1.0688,1.1178,1.2931,1.2153,1.2512,1.7146,1.6888,1.6463,1.8212,1.7307,1.6953,1.8704,1.896,1.9483,2.0912,2.1109,2.1109,2.1109,2.1109,2.1109,2.1109,2.1109,2.1109,2.1109,2.1109,2.1109,2.1109,2.1109,2.1109,2.1109,2.1109,2.1109,2.1109,2.1109,2.1109,2.1109,2.1109,2.1109,0.9509,1.0993,1.3397,1.693,1.7988,1.8602,2.036,0.0,2.1109,0.0,0.0,0.0,0.0,0.0,0.0,0.0,0.0,0.0,0.0,0.0,0.0,0.0,0.0,0.0,0.0,0.0,0.0,0.0,0.0,0.0,2.1109,2.1109,2.1109,2.1109,2.1109,2.1109,2.1109,2.1109,2.1109,2.1109,2.1109,2.1109,2.1077,2.0621,1.9445,1.7731,1.6463,1.5756,1.5557,1.5789,1.5913,1.5886,1.5654,1.5557,1.5524,1.5297,1.5204,1.5204,1.5204,1.5367,1.5557,1.5557,1.5719,1.6145,1.7404,1.7795,1.7763,1.7532,1.7468,1.6759,1.3746,1.2964,1.2578,1.1045,1.0688,1.1178,1.2931,1.3128,1.3615,1.5816,1.6048,1.6463,1.8212,1.8314,1.873,2.0487,2.0748,2.0849,2.1077,2.1109,2.1109,2.1109,2.1109,2.1109,2.1109,2.1109,2.1109,2.1109,2.1109,2.1109,2.1109,2.1109,2.1109,2.1109,2.1109,2.1109,2.1109,2.1109,2.1109,2.1109,2.1109,2.1109,1.0903,1.2539,1.4799,1.7766,1.8506,1.896,2.0684,2.1109,2.1109,2.1109,0.0,0.0,0.0,0.0,0.0,0.0,0.0,0.0,0.0,0.0,0.0,0.0,0.0,0.0,0.0,0.0,0.0,0.0,0.0,2.1109,2.1109,2.1109,2.1109,2.1109,2.1109,2.1109,2.1109,2.1109,2.1109,2.1109,2.1109,2.1109,2.1109,2.1109,2.0164,1.8506,1.8736,1.8244,1.7436,1.841,1.88,1.8736,1.7731,1.7371,1.7243,1.6269,1.5913,1.5913,1.5913,1.6533,1.7371,1.7371,1.802,1.8608,1.7404,1.7049,1.663,1.4684,1.4134,1.3774,1.2252,1.1828,1.1894,1.2121,1.2153,1.238,1.3128,1.2545,1.2643,1.5362,1.6695,1.7923,1.9642,1.9158,1.9094,2.0849,2.1109,2.1109,2.1109,2.1109,2.1109,2.1109,2.1109,2.1109,2.1109,2.1109,2.1109,2.1109,2.1109,2.1109,2.1109,2.1109,2.1109,2.1109,2.1109,2.1109,2.1109,2.1109,2.1109,2.1109,2.1109,2.1109,1.28,1.4287,1.5905,1.8342,1.9006,1.9428,0.0,0.0,2.1109,0.0,0.0,0.0,0.0,0.0,0.0,0.0,0.0,0.0,0.0,0.0,0.0,0.0,0.0,0.0,0.0,0.0,0.0,0.0,0.0,2.1109,2.1109,2.1109,2.1109,2.1109,2.1109,2.1109,2.1109,2.1109,2.1109,2.1109,2.1109,2.1109,2.1109,2.1109,2.0392,1.9221,2.0557,2.036,1.9253,2.0551,2.1109,2.0976,1.968,1.9158,1.8992,1.7699,1.7211,1.7211,1.7211,1.8052,1.9094,1.8634,1.9381,1.9935,1.7339,1.6242,1.5367,1.2738,1.1699,1.1273,1.0817,1.0688,1.1144,1.2902,1.3292,1.3419,1.3877,1.2574,1.2252,1.5302,1.7307,1.8896,2.0227,1.9744,1.961,2.0912,2.1109,2.1109,2.1109,2.1109,2.1109,2.1109,2.1109,2.1109,2.1109,2.1109,2.1109,2.1109,2.1109,2.1109,2.1109,2.1109,2.1109,2.1109,2.1109,2.1109,2.1109,2.1109,2.1109,2.1109,2.1109,2.1109,1.4745,1.5974,1.6858,1.9464,2.0365,2.0675,0.0,0.0,0.0,0.0,0.0,0.0,0.0,0.0,0.0,0.0,0.0,0.0,0.0,0.0,0.0,0.0,0.0,0.0,0.0,0.0,0.0,0.0,0.0,2.1109,2.1109,2.1109,2.1109,2.1109,2.1109,2.1109,2.1109,2.1109,2.1109,2.1109,2.1109,2.1109,2.1109,2.1109,2.1046,2.0982,2.1046,2.1046,2.0976,2.1046,2.1109,2.1077,2.1014,2.0944,2.0944,2.0849,2.0817,2.0817,2.0817,2.0881,2.0684,1.903,1.857,1.8602,1.841,1.7211,1.5848,1.5686,1.4423,1.2771,1.1144,1.0688,1.1144,1.2902,1.3292,1.3746,1.5394,1.4395,1.3713,1.5529,1.7307,1.8538,1.8608,1.9935,2.1014,2.1077,2.1109,2.1109,2.1109,2.1109,2.1109,2.1109,2.1109,2.1109,2.1109,2.1109,2.1109,2.1109,2.1109,2.1109,2.1109,2.1109,2.1109,2.1109,2.1109,2.1109,2.1109,2.1109,2.1109,2.1109,2.1109,2.1109,1.5193,1.6531,1.7792,1.9512,2.0174,2.0468,2.0768,2.0975,2.1109,0.0,0.0,0.0,0.0,0.0,0.0,0.0,0.0,0.0,0.0,0.0,0.0,0.0,0.0,0.0,0.0,0.0,0.0,0.0,0.0,0.0,2.1109,2.1109,2.1109,2.1109,2.1109,2.1109,2.1109,2.1109,2.1109,2.1109,2.1109,2.1109,2.1109,2.1109,2.1109,2.1109,2.1109,2.1109,2.1109,2.1109,2.1109,2.1109,2.1109,2.1109,2.1109,2.1109,2.1109,2.1109,2.1109,2.036,1.9323,1.8704,1.7725,1.6824,1.6824,1.5627,1.4232,1.4232,1.2968,1.1501,1.085,1.0688,1.1144,1.2902,1.4166,1.5459,1.7178,1.7082,1.6824,1.7436,1.8992,2.0164,2.0164,2.0684,2.1109,2.1109,2.1109,2.1109,2.1109,2.1109,2.1109,2.1109,2.1109,2.1109,2.1109,2.1109,2.1109,2.1109,2.1109,2.1109,2.1109,2.1109,2.1109,2.1109,2.1109,2.1109,2.1109,2.1109,2.1109,2.1109,2.1109,2.1109,1.5635,1.6844,1.8029,1.9212,1.9726,2.0074,2.0592,0.0,2.0989,0.0,0.0,0.0,0.0,0.0,0.0,0.0,0.0,0.0,0.0,0.0,0.0,0.0,0.0,0.0,0.0,0.0,0.0,0.0,0.0,0.0,2.1109,2.1109,2.1109,2.1109,2.1109,2.1109,2.1109,2.1109,2.1109,2.1109,2.1109,2.1109,2.1109,2.1109,2.1109,2.1109,2.1109,2.1109,2.1109,2.1109,2.1109,2.1109,2.1109,2.1109,2.1109,2.1109,2.0716,2.0227,2.0227,1.9483,1.841,1.7827,1.7243,1.6759,1.6759,1.5557,1.4166,1.4166,1.3357,1.2186,1.1012,1.1567,1.2738,1.3905,1.5951,1.7956,1.9126,1.8442,1.7956,1.9158,2.0297,2.1109,2.1109,2.1109,2.1109,2.1109,2.1109,2.1109,2.1109,2.1109,2.1109,2.1109,2.1109,2.1109,2.1109,2.1109,2.1109,2.1109,2.1109,2.1109,2.1109,2.1109,2.1109,2.1109,2.1109,2.1109,2.1109,2.1109,2.1109,2.1109,2.1109,2.1109,0.0,0.0,0.0,0.0,0.0,0.0,2.0472,0.0,2.0766,0.0,0.0,0.0,0.0,0.0,0.0,0.0,0.0,0.0,0.0,0.0,0.0,0.0,0.0,0.0,0.0,0.0,0.0,0.0,0.0,2.1109,2.1109,2.1109,2.1109,2.1109,2.1109,2.1109,2.1109,2.1109,2.1109,2.1109,2.1109,2.1109,2.1109,2.1109,2.1109,2.1109,2.1109,2.1109,2.1109,2.1109,2.1109,2.1109,2.1109,2.1109,2.1109,2.1109,2.0036,1.857,1.857,1.8538,1.8218,1.6528,1.7082,1.8442,1.8474,1.7275,1.5913,1.5946,1.5946,1.5107,1.1729,1.3353,1.5881,1.5854,1.8442,2.0944,2.0944,1.8314,1.6985,2.0424,2.1109,2.1109,2.1109,2.1109,2.1109,2.1109,2.1109,2.1109,2.1109,2.1109,2.1109,2.1109,2.1109,2.1109,2.1109,2.1109,2.1109,2.1109,2.1109,2.1109,2.1109,2.1109,2.1109,2.1109,2.1109,2.1109,2.1109,2.1109,2.1109,2.1109,2.1109,2.1109,1.6273,0.0,0.0,0.0,0.0,0.0,0.0,0.0,0.0,0.0,0.0,0.0,0.0,0.0,0.0,0.0,0.0,0.0,0.0,0.0,0.0,0.0,0.0,0.0,0.0,0.0,0.0,0.0,2.1109,2.1109,2.1109,2.1109,2.1109,2.1109,2.1109,2.1109,2.1109,2.1109,2.1109,2.1109,2.1109,2.1109,2.1109,2.1109,2.1109,2.1109,2.1109,2.1109,2.1109,2.1109,2.1109,2.1109,2.1109,2.1109,2.1109,2.1109,2.0779,2.0392,2.0392,1.9546,1.841,1.7956,1.7243,1.6851,1.8116,1.7275,1.6172,1.7436,1.6856,1.5686,1.4716,1.5167,1.5594,1.433,1.5719,1.7339,1.7339,1.7564,1.8442,2.0652,2.1109,2.1109,2.1109,2.1109,2.1109,2.1109,2.1109,2.1109,2.1109,2.1109,2.1109,2.1109,2.1109,2.1109,2.1109,2.1109,2.1109,2.1109,2.1109,2.1109,2.1109,2.1109,2.1109,2.1109,2.1109,2.1109,2.1109,2.1109,2.1109,2.1109,2.1109,2.1109,1.6444,1.6732,0.0,0.0,0.0,0.0,0.0,1.9528,0.0,0.0,0.0,0.0,0.0,0.0,0.0,0.0,0.0,0.0,0.0,0.0,0.0,0.0,0.0,0.0,0.0,0.0,0.0,2.1109,2.1109,2.1109,2.1109,2.1109,2.1109,2.1109,2.1109,2.1109,2.1109,2.1109,2.1109,2.1109,2.1109,2.1109,2.1109,2.1109,2.1109,2.1109,2.1109,2.1109,2.1109,2.1109,2.1109,2.1109,2.1109,2.1109,2.1007,2.0297,2.0036,1.9903,1.9189,1.873,1.8506,1.8506,1.8314,1.8244,1.9285,1.8864,1.8116,1.841,1.7243,1.6075,1.6791,1.6985,1.6727,1.5719,1.6791,1.8052,1.8052,1.8864,1.9903,2.0912,2.1109,2.1109,2.1109,2.1109,2.1109,2.1109,2.1109,2.1109,2.1109,2.1109,2.1109,2.1109,2.1109,2.1109,2.1109,2.1109,2.1109,2.1109,2.1109,2.1109,2.1109,2.1109,2.1109,2.1109,2.1109,2.1109,2.1109,2.1109,2.1109,2.1109,2.1109,2.1109,1.6653,1.678,0.0,0.0,0.0,0.0,1.9045,1.9274,1.9455,0.0,0.0,0.0,0.0,0.0,0.0,0.0,0.0,0.0,0.0,0.0,0.0,0.0,0.0,0.0,0.0,2.1109,2.1109,2.1109,2.1109,2.1109,2.1109,2.1109,2.1109,2.1109,2.1109,2.1109,2.1109,2.1109,2.1109,2.1109,2.1109,2.1109,2.1109,2.1109,2.1109,2.1109,2.1109,2.1109,2.1109,2.1109,2.1109,2.1109,2.1109,2.1109,2.0912,1.9355,1.88,1.857,1.7017,1.75,1.88,1.88,1.9839,2.1109,2.1109,2.1109,2.0786,1.9221,1.7661,1.6824,1.8378,1.864,1.8506,1.8506,1.9674,2.0817,2.0817,2.0944,2.1109,2.1109,2.1109,2.1109,2.1109,2.1109,2.1109,2.1109,2.1109,2.1109,2.1109,2.1109,2.1109,2.1109,2.1109,2.1109,2.1109,2.1109,2.1109,2.1109,2.1109,2.1109,2.1109,2.1109,2.1109,2.1109,2.1109,2.1109,2.1109,2.1109,2.1109,2.1109,2.1109,2.1109,1.682,1.7221,1.7689,1.7421,0.0,0.0,1.8289,1.849,1.8758,0.0,0.0,0.0,0.0,0.0,0.0,0.0,0.0,0.0,0.0,0.0,0.0,0.0,0.0,0.0,0.0,2.1109,2.1109,2.1109,2.1109,2.1109,2.1109,2.1109,2.1109,2.1109,2.1109,2.1109,2.1109,2.1109,2.1109,2.1109,2.1109,2.1109,2.1109,2.1109,2.1109,2.1109,2.1109,2.1109,2.1109,2.1109,2.1109,2.1109,2.1109,2.1109,2.1046,2.0716,2.0589,2.0557,2.0195,2.0297,2.0589,2.0589,2.0817,2.1109,2.1109,2.1109,2.1046,2.0684,2.036,2.0164,2.0487,1.9546,1.8506,1.8506,1.8768,1.9024,1.9024,2.01,2.1109,2.1109,2.1109,2.1109,2.1109,2.1109,2.1109,2.1109,2.1109,2.1109,2.1109,2.1109,2.1109,2.1109,2.1109,2.1109,2.1109,2.1109,2.1109,2.1109,2.1109,2.1109,2.1109,2.1109,2.1109,2.1109,2.1109,2.1109,2.1109,2.1109,2.1109,2.1109,2.1109,2.1109,1.7073,1.7274,1.7615,1.7595,0.0,0.0,0.0,1.849,1.8617,1.9052,0.0,0.0,0.0,0.0,0.0,0.0,0.0,0.0,0.0,0.0,0.0,0.0,0.0,0.0,0.0,2.1109,2.1109,2.1109,2.1109,2.1109,2.1109,2.1109,2.1109,2.1109,2.1109,2.1109,2.1109,2.1109,2.1109,2.1109,2.1109,2.1109,2.1109,2.1109,2.1109,2.1109,2.1109,2.1109,2.1109,2.1109,2.1109,2.1109,2.1109,2.1109,2.0982,2.0132,2.036,2.0976,2.01,2.036,2.1109,2.1109,2.1109,2.1109,2.1109,2.1109,2.1109,2.1109,2.1109,2.1109,2.1109,2.0456,1.9807,1.9807,1.9807,1.9807,1.9807,2.0494,2.1109,2.1109,2.1109,2.1109,2.1109,2.1109,2.1109,2.1109,2.1109,2.1109,2.1109,2.1109,2.1109,2.1109,2.1109,2.1109,2.1109,2.1109,2.1109,2.1109,2.1109,2.1109,2.1109,2.1109,2.1109,2.1109,2.1109,2.1109,2.1109,2.1109,2.1109,2.1109,2.1109,2.1109,0.0,0.0,0.0,0.0,0.0,1.8003,0.0,0.0,0.0,1.9025,0.0,0.0,0.0,0.0,0.0,0.0,0.0,0.0,0.0,0.0,0.0,0.0,0.0,0.0,0.0,2.1056,2.1049,2.1109,2.1056,2.1049,2.1109,2.1109,2.1109,2.1109,2.1109,2.1109,2.1109,2.1109,2.1109,2.1109,2.1109,2.1109,2.1109,2.1109,2.1109,2.1109,2.1109,2.1109,2.1109,2.1109,2.1109,2.1109,2.1109,2.1109,2.0912,1.9515,1.9903,2.0912,1.9483,1.9903,2.1109,2.1109,2.1109,2.1109,2.1109,2.1109,2.1109,2.1109,2.1109,2.1109,2.1109,2.1109,2.1109,2.1109,2.1109,2.1109,2.1109,2.1109,2.1109,2.1109,2.1109,2.1109,2.1109,2.1109,2.1109,2.1109,2.1109,2.1109,2.1109,2.1109,2.1109,2.1109,2.1109,2.1109,2.1109,2.1109,2.1109,2.1109,2.1109,2.1109,2.1109,2.1109,2.1109,2.1109,2.1109,2.1109,2.1109,2.1109,2.1109,2.1109,2.1109,2.1109,0.0,0.0,0.0,0.0,1.821,0.0,0.0,0.0,1.8437,1.8209,0.0,0.0,0.0,0.0,0.0,0.0,0.0,0.0,0.0,0.0,0.0,0.0,0.0,0.0,0.0,0.0,2.0828,2.1089,2.0869,2.0842,2.1096,2.1109,2.1109,2.1109,2.1109,2.1109,2.1109,2.1109,2.1109,2.1109,2.1109,2.1109,2.1109,2.1109,2.1109,2.1109,2.1109,2.1109,2.1109,2.1109,2.1109,2.1109,2.1109,2.1109,2.1077,2.0881,2.0912,2.1077,2.0881,2.0944,2.1109,2.1109,2.1109,2.1109,2.1109,2.1109,2.1109,2.1109,2.1109,2.1109,2.1109,2.1109,2.1109,2.1109,2.1109,2.1109,2.1109,2.1109,2.1109,2.1109,2.1109,2.1109,2.1109,2.1109,2.1109,2.1109,2.1109,2.1109,2.1109,2.1109,2.1109,2.1109,2.1109,2.1109,2.1109,2.1109,2.1109,2.1109,2.1109,2.1109,2.1109,2.1109,2.1109,2.1109,2.1109,2.1109,2.1109,2.1109,2.1109,2.1109,2.1109,2.1109,0.0,0.0,0.0,0.0,0.0,0.0,1.8289,0.0,1.8223,0.0,0.0,0.0,0.0,0.0,0.0,0.0,0.0,0.0,0.0,0.0,0.0,0.0,0.0,0.0,0.0,0.0,0.0,0.0,0.0,2.0833,2.1096,2.1109,2.1109,2.1109,2.1109,2.1109,2.1109,2.1109,2.1109,2.1109,2.1109,2.1109,2.1109,2.1109,2.1109,2.1109,2.1109,2.1109,2.1109,2.1109,2.1109,2.1109,2.1109,2.1109,2.1109,2.1109,2.1109,2.1109,2.1109,2.1109,2.1109,2.1109,2.1109,2.1109,2.1109,2.1109,2.1109,2.1109,2.1109,2.1109,2.1109,2.1109,2.1109,2.1109,2.1109,2.1109,2.1109,2.1109,2.1109,2.1109,2.1109,2.1109,2.1109,2.1109,2.1109,2.1109,2.1109,2.1109,2.1109,2.1109,2.1109,2.1109,2.1109,2.1109,2.1109,2.1109,2.1109,2.1109,2.1109,2.1109,2.1109,2.1109,2.1109,2.1109,2.1109,2.1109,2.1109,2.1109,2.1109,2.1109,2.1109,2.1109,1.7642,0.0,0.0,0.0,0.0,0.0,0.0,0.0,0.0,0.0,0.0,0.0,0.0,0.0,0.0,0.0,0.0,0.0,0.0,0.0,0.0,0.0,0.0,0.0,0.0,0.0,0.0,0.0,0.0,0.0,2.1089,2.1109,2.1109,2.1109,2.1109,2.1109,2.1109,2.1109,2.1109,2.1109,2.1109,2.1109,2.1109,2.1109,2.1109,2.1109,2.1109,2.1109,2.1109,2.1109,2.1109,2.1109,2.1109,2.1109,2.1109,2.1109,2.1109,2.1109,2.1109,2.1109,2.1109,2.1109,2.1109,2.1109,2.1109,2.1109,2.1109,2.1109,2.1109,2.1109,2.1109,2.1109,2.1109,2.1109,2.1109,2.1109,2.1109,2.1109,2.1109,2.1109,2.1109,2.1109,2.1109,2.1109,2.1109,2.1109,2.1109,2.1109,2.1109,2.1109,2.1109,2.1109,2.1109,2.1109,2.1109,2.1109,2.1109,2.1109,2.1109,2.1109,2.1109,2.1109,2.1109,2.1109,2.1109,2.1109,2.1109,2.1109,2.1109,2.1109,2.1109,2.1109,0.0,0.0,0.0,1.7669,0.0,0.0,0.0,0.0,1.8477,0.0,0.0,0.0,0.0,0.0,0.0,0.0,0.0,0.0,0.0,0.0,0.0,0.0,0.0,0.0,0.0,0.0,0.0,0.0,0.0,0.0,2.1082,2.1109,2.1109,2.1109,2.1109,2.1109,2.1109,2.1109,2.1109,2.1109,2.1109,2.1109,2.1109,2.1109,2.1109,2.1109,2.1109,2.1109,2.1109,2.1109,2.1109,2.1109,2.1109,2.1109,2.1109,2.1109,2.1109,2.1109,2.1109,2.1109,2.1109,2.1109,2.1109,2.1109,2.1109,2.1109,2.1109,2.1109,2.1109,2.1109,2.1109,2.1109,2.1109,2.1109,2.1109,2.1109,2.1109,2.1109,2.1109,2.1109,2.1109,2.1109,2.1109,2.1109,2.1109,2.1109,2.1109,2.1109,2.1109,2.1109,2.1109,2.1109,2.1109,2.1109,2.1109,2.1109,2.1109,2.1109,2.1109,2.1109,2.1109,2.1109,2.1109,2.1109,2.1109,2.1109,2.1109,2.1109,2.1109,2.1109,2.1109,2.1109,0.0,0.0,1.7942,1.7662,0.0,0.0,0.0,0.0,0.0,0.0,0.0,0.0,0.0,0.0,0.0,0.0,0.0,0.0,0.0,0.0,0.0,0.0,0.0,0.0,0.0,0.0,0.0,0.0,0.0,0.0,0.0,2.1109,2.1109,2.1109,2.1109,2.1109,2.1109,2.1109,2.1109,2.1109,2.1109,2.1109,2.1109,2.1109,2.1109,2.1109,2.1109,2.1109,2.1109,2.1109,2.1109,2.1109,2.1109,2.1109,2.1109,2.1109,2.1109,2.1109,2.1109,2.1109,2.1109,2.1109,2.1109,2.1109,2.1109,2.1109,2.1109,2.1109,2.1109,2.1109,2.1109,2.1109,2.1109,2.1109,2.1109,2.1109,2.1109,2.1109,2.1109,2.1109,2.1109,2.1109,2.1109,2.1109,2.1109,2.1109,2.1109,2.1109,2.1109,2.1109,2.1109,2.1109,2.1109,2.1109,2.1109,2.1109,2.1109,2.1109,2.1109,2.1109,2.1109,2.1109,2.1109,2.1109,2.1109,2.1109,2.1109,2.1109,2.1109,2.1109,2.1109,2.1109,1.7608,1.7729,0.0,0.0,1.7736,0.0,1.7629,0.0,0.0,0.0,0.0,0.0,0.0,0.0,0.0,0.0,0.0,0.0,0.0,0.0,0.0,0.0,0.0,0.0,0.0,0.0,2.0525,2.0808,0.0,0.0,0.0,0.0,2.1109,2.1109,2.1109,2.1109,2.1109,2.1109,2.1109,2.1109,2.1109,2.1109,2.1109,2.1109,2.1109,2.1109,2.1109,2.1109,2.1109,2.1109,2.1109,2.1109,2.1109,2.1109,2.1109,2.1109,2.1109,2.1109,2.1109,2.1109,2.1109,2.1109,2.1109,2.1109,2.1109,2.1109,2.1109,2.1109,2.1109,2.1109,2.1109,2.1109,2.1109,2.1109,2.1109,2.1109,2.1109,2.1109,2.1109,2.1109,2.1109,2.1109,2.1109,2.1109,2.1109,2.1109,2.1109,2.1109,2.1109,2.1109,2.1109,2.1109,2.1109,2.1109,2.1109,2.1109,2.1109,2.1109,2.1109,2.1109,2.1109,2.1109,2.1109,2.1109,2.1109,2.1109,2.1109,2.1109,2.1109,2.1109,2.1109,2.1109]},{"header":{"parameterUnit":"m.s-1","parameterCategory":1,"la1":30.6,"la2":29.2853,"lo1":-89.7004,"lo2":-87.6739,"dy":0.0162,"dx":0.0183,"nx":112,"ny":82,"refTime":"2024-08-22T06:00:00:Z","depth":0,"parameterNumber":3,"parameterNumberName":"V-component_of_WINDS"},"data":[0.0,0.0,0.0,0.0,0.0,0.0,0.0,0.0,0.0,0.0,0.0,0.0,0.0,0.0,0.0,0.0,0.0,0.0,0.0,0.0,0.0,0.0,0.0,0.0,0.0,0.0,0.0,0.0,0.0,0.0,0.0,0.0,0.0,0.0,0.0,0.0,0.0,0.0,0.0,0.0,0.0,0.0,0.0,0.0,0.0,0.0,0.0,0.0,0.0,0.0,0.0,0.0,0.0,0.0,0.0,0.0,0.0,0.0,0.0,0.0,0.0,0.0,0.0,0.0,0.0,0.0,0.0,0.0,0.0,0.0,0.0,0.0,0.0,0.0,0.0,0.0,0.0,0.0,0.0,0.0,0.0,0.0,0.0,0.0,0.0,0.0,0.0,0.0,0.0,0.0,0.0,3.3398,3.2676,3.2148,3.2012,3.1997,3.1587,3.0585,0.0,0.0,0.0,0.0,0.0,0.0,0.0,0.0,0.0,0.0,0.0,0.0,0.0,0.0,0.0,0.0,0.0,0.0,0.0,0.0,0.0,0.0,0.0,0.0,0.0,0.0,0.0,0.0,0.0,0.0,0.0,0.0,0.0,0.0,0.0,0.0,0.0,0.0,0.0,0.0,0.0,0.0,0.0,0.0,0.0,0.0,0.0,0.0,0.0,0.0,0.0,0.0,0.0,0.0,0.0,0.0,0.0,0.0,0.0,0.0,0.0,0.0,0.0,0.0,0.0,0.0,0.0,0.0,0.0,0.0,0.0,0.0,0.0,0.0,0.0,0.0,0.0,0.0,0.0,0.0,0.0,0.0,0.0,0.0,0.0,0.0,0.0,0.0,0.0,0.0,0.0,0.0,0.0,0.0,0.0,0.0,0.0,0.0,0.0,0.0,0.0,0.0,0.0,0.0,3.3398,3.3398,3.2676,3.1894,3.1152,3.1645,3.1364,2.9862,0.0,0.0,0.0,0.0,0.0,0.0,0.0,0.0,0.0,0.0,0.0,0.0,0.0,0.0,0.0,0.0,0.0,0.0,0.0,0.0,0.0,0.0,0.0,0.0,0.0,0.0,0.0,0.0,0.0,0.0,0.0,0.0,0.0,0.0,0.0,0.0,0.0,0.0,0.0,0.0,0.0,0.0,0.0,0.0,0.0,0.0,0.0,0.0,0.0,0.0,0.0,0.0,0.0,0.0,0.0,0.0,0.0,0.0,0.0,0.0,0.0,0.0,0.0,0.0,0.0,0.0,0.0,0.0,0.0,0.0,0.0,0.0,0.0,0.0,0.0,0.0,0.0,0.0,0.0,0.0,0.0,0.0,0.0,0.0,0.0,0.0,0.0,0.0,0.0,0.0,0.0,0.0,0.0,0.0,0.0,0.0,0.0,0.0,0.0,0.0,0.0,0.0,0.0,3.2832,3.293,3.3359,3.1836,3.0625,3.0234,3.0504,2.9976,2.8301,2.8477,0.0,0.0,0.0,0.0,0.0,0.0,0.0,0.0,0.0,0.0,0.0,0.0,0.0,0.0,0.0,0.0,0.0,0.0,0.0,0.0,0.0,0.0,0.0,0.0,0.0,0.0,0.0,0.0,0.0,0.0,0.0,0.0,0.0,0.0,0.0,0.0,0.0,0.0,0.0,0.0,0.0,0.0,0.0,0.0,0.0,0.0,0.0,0.0,0.0,0.0,0.0,0.0,0.0,0.0,0.0,0.0,0.0,0.0,0.0,0.0,0.0,0.0,0.0,0.0,0.0,0.0,0.0,0.0,0.0,0.0,0.0,0.0,0.0,0.0,0.0,0.0,0.0,0.0,0.0,0.0,0.0,0.0,0.0,0.0,0.0,0.0,0.0,0.0,0.0,0.0,0.0,0.0,0.0,0.0,0.0,0.0,0.0,0.0,0.0,0.0,0.0,0.0,3.3281,3.2715,3.332,3.1113,2.9609,2.9609,2.9414,2.8633,2.7109,2.7569,0.0,0.0,0.0,0.0,0.0,0.0,0.0,0.0,0.0,0.0,0.0,0.0,0.0,0.0,0.0,0.0,0.0,0.0,0.0,0.0,0.0,0.0,0.0,0.0,0.0,0.0,0.0,0.0,0.0,0.0,0.0,0.0,0.0,0.0,0.0,0.0,0.0,0.0,0.0,0.0,0.0,0.0,0.0,0.0,0.0,0.0,0.0,0.0,0.0,0.0,0.0,0.0,0.0,0.0,0.0,0.0,0.0,0.0,0.0,0.0,0.0,0.0,0.0,0.0,0.0,0.0,0.0,0.0,0.0,0.0,0.0,0.0,0.0,0.0,0.0,0.0,0.0,0.0,0.0,0.0,0.0,0.0,0.0,0.0,0.0,0.0,0.0,0.0,0.0,0.0,0.0,0.0,0.0,0.0,0.0,0.0,0.0,0.0,0.0,0.0,0.0,0.0,3.3398,3.334,3.3398,3.1113,2.9609,2.9609,2.8867,2.7988,2.7051,2.6983,0.0,0.0,0.0,0.0,0.0,0.0,0.0,0.0,0.0,0.0,0.0,0.0,0.0,0.0,0.0,0.0,0.0,0.0,0.0,0.0,0.0,0.0,0.0,0.0,0.0,0.0,0.0,0.0,0.0,0.0,0.0,0.0,0.0,0.0,0.0,0.0,0.0,0.0,0.0,0.0,0.0,0.0,0.0,0.0,0.0,0.0,0.0,0.0,0.0,0.0,0.0,0.0,0.0,0.0,0.0,0.0,0.0,0.0,0.0,0.0,0.0,0.0,0.0,0.0,0.0,0.0,0.0,0.0,0.0,0.0,0.0,0.0,0.0,0.0,0.0,0.0,0.0,0.0,0.0,0.0,0.0,0.0,0.0,0.0,0.0,0.0,0.0,0.0,0.0,0.0,0.0,0.0,0.0,0.0,0.0,0.0,0.0,0.0,0.0,0.0,0.0,0.0,3.2969,3.2832,0.0,3.1113,2.9375,2.8848,2.8496,2.7695,2.6289,0.0,0.0,0.0,0.0,0.0,0.0,0.0,0.0,0.0,0.0,0.0,0.0,0.0,0.0,0.0,0.0,0.0,0.0,0.0,0.0,0.0,0.0,0.0,0.0,0.0,0.0,0.0,0.0,0.0,0.0,0.0,0.0,0.0,0.0,0.0,0.0,0.0,0.0,0.0,0.0,0.0,0.0,0.0,0.0,0.0,0.0,0.0,0.0,0.0,0.0,0.0,0.0,0.0,0.0,0.0,0.0,0.0,0.0,0.0,0.0,0.0,0.0,0.0,0.0,0.0,0.0,0.0,0.0,0.0,0.0,0.0,0.0,0.0,0.0,0.0,0.0,0.0,0.0,0.0,0.0,0.0,0.0,0.0,0.0,0.0,0.0,0.0,0.0,0.0,0.0,0.0,0.0,0.0,0.0,0.0,0.0,0.0,0.0,0.0,0.0,0.0,0.0,3.3105,3.293,3.2793,0.0,3.1113,2.9258,2.8379,2.8047,2.7266,2.5781,0.0,0.0,0.0,0.0,0.0,0.0,0.0,0.0,0.0,0.0,0.0,0.0,0.0,0.0,0.0,0.0,0.0,0.0,0.0,0.0,0.0,0.0,0.0,0.0,0.0,0.0,0.0,0.0,0.0,0.0,0.0,0.0,0.0,0.0,0.0,0.0,0.0,0.0,0.0,0.0,0.0,0.0,0.0,0.0,0.0,0.0,0.0,0.0,0.0,0.0,0.0,0.0,0.0,0.0,0.0,0.0,0.0,0.0,0.0,0.0,0.0,0.0,0.0,0.0,0.0,0.0,0.0,0.0,0.0,0.0,0.0,0.0,0.0,0.0,0.0,0.0,0.0,0.0,0.0,0.0,0.0,0.0,0.0,0.0,0.0,0.0,0.0,0.0,0.0,0.0,0.0,0.0,0.0,0.0,0.0,0.0,0.0,0.0,0.0,0.0,0.0,0.0,3.3184,3.3398,3.3398,3.3398,3.1133,2.9258,2.8398,2.7519,2.6641,0.0,0.0,0.0,0.0,0.0,0.0,0.0,0.0,0.0,0.0,0.0,0.0,0.0,0.0,0.0,0.0,0.0,0.0,0.0,0.0,0.0,0.0,0.0,0.0,0.0,0.0,0.0,0.0,0.0,0.0,0.0,0.0,0.0,0.0,0.0,0.0,0.0,0.0,0.0,0.0,0.0,0.0,0.0,0.0,0.0,0.0,0.0,0.0,0.0,0.0,0.0,0.0,0.0,0.0,0.0,0.0,0.0,0.0,0.0,0.0,0.0,0.0,0.0,0.0,0.0,0.0,0.0,0.0,0.0,0.0,0.0,0.0,0.0,0.0,0.0,0.0,0.0,0.0,0.0,0.0,0.0,0.0,0.0,0.0,0.0,0.0,0.0,0.0,0.0,0.0,0.0,0.0,0.0,0.0,0.0,0.0,0.0,0.0,0.0,0.0,0.0,0.0,0.0,3.3184,3.3398,3.3398,3.3398,3.168,3.0156,2.9297,2.8418,2.7539,2.668,0.0,0.0,0.0,0.0,0.0,0.0,0.0,0.0,0.0,0.0,0.0,0.0,0.0,0.0,0.0,0.0,0.0,0.0,0.0,0.0,0.0,0.0,0.0,0.0,0.0,0.0,0.0,0.0,0.0,0.0,0.0,0.0,0.0,0.0,0.0,0.0,0.0,0.0,0.0,0.0,0.0,0.0,0.0,0.0,0.0,0.0,0.0,0.0,0.0,0.0,0.0,0.0,0.0,0.0,0.0,0.0,0.0,0.0,0.0,0.0,0.0,0.0,0.0,0.0,0.0,0.0,0.0,0.0,0.0,0.0,0.0,0.0,0.0,0.0,0.0,0.0,0.0,0.0,0.0,0.0,0.0,0.0,0.0,0.0,0.0,0.0,0.0,0.0,0.0,0.0,0.0,0.0,0.0,0.0,0.0,0.0,0.0,0.0,0.0,0.0,0.0,0.0,3.3223,3.3398,3.3398,3.3398,3.1894,3.0547,2.9668,2.9121,2.8457,2.7578,0.0,0.0,0.0,0.0,0.0,0.0,0.0,0.0,0.0,0.0,0.0,0.0,0.0,0.0,0.0,0.0,0.0,0.0,0.0,0.0,0.0,0.0,0.0,0.0,0.0,0.0,0.0,0.0,0.0,0.0,0.0,0.0,0.0,0.0,0.0,0.0,0.0,0.0,0.0,0.0,0.0,0.0,0.0,0.0,0.0,0.0,0.0,0.0,0.0,0.0,0.0,0.0,0.0,0.0,0.0,0.0,0.0,0.0,0.0,0.0,0.0,0.0,0.0,0.0,0.0,0.0,0.0,0.0,0.0,0.0,0.0,0.0,0.0,0.0,0.0,0.0,0.0,0.0,0.0,0.0,0.0,0.0,0.0,0.0,0.0,0.0,0.0,0.0,0.0,0.0,0.0,0.0,0.0,0.0,0.0,0.0,0.0,0.0,0.0,0.0,0.0,0.0,3.3397,3.3594,3.3574,3.3418,3.1973,3.0664,2.9785,2.9648,2.9258,2.8476,0.0,0.0,0.0,0.0,0.0,0.0,0.0,0.0,0.0,0.0,0.0,0.0,0.0,0.0,0.0,0.0,0.0,0.0,0.0,0.0,0.0,0.0,0.0,0.0,0.0,0.0,0.0,0.0,0.0,0.0,0.0,0.0,0.0,0.0,0.0,0.0,0.0,0.0,0.0,0.0,0.0,0.0,0.0,0.0,0.0,0.0,0.0,0.0,0.0,0.0,0.0,0.0,0.0,0.0,0.0,0.0,0.0,0.0,0.0,0.0,3.6919,0.0,0.0,0.0,0.0,0.0,0.0,0.0,0.0,0.0,0.0,0.0,0.0,0.0,0.0,0.0,0.0,0.0,0.0,0.0,0.0,0.0,0.0,0.0,0.0,0.0,0.0,0.0,0.0,0.0,0.0,0.0,0.0,0.0,0.0,0.0,0.0,0.0,0.0,0.0,0.0,0.0,3.4312,3.4996,3.4922,3.3555,3.2519,3.1562,3.0703,2.998,2.9512,2.9336,2.8496,0.0,0.0,0.0,0.0,0.0,0.0,0.0,0.0,0.0,0.0,0.0,0.0,0.0,0.0,0.0,0.0,0.0,0.0,0.0,0.0,0.0,0.0,0.0,0.0,0.0,0.0,0.0,0.0,0.0,0.0,0.0,0.0,0.0,0.0,0.0,0.0,0.0,0.0,0.0,0.0,0.0,0.0,0.0,0.0,0.0,0.0,0.0,0.0,0.0,0.0,0.0,0.0,0.0,0.0,0.0,0.0,0.0,0.0,0.0,0.0,3.8633,0.0,0.0,0.0,0.0,0.0,0.0,0.0,0.0,0.0,0.0,0.0,0.0,0.0,0.0,0.0,0.0,0.0,0.0,0.0,0.0,0.0,0.0,0.0,0.0,0.0,0.0,0.0,0.0,0.0,0.0,0.0,0.0,0.0,0.0,0.0,0.0,0.0,0.0,0.0,0.0,3.4648,3.5424,3.5332,3.3594,3.2676,3.1855,3.0976,3.0488,3.0215,3.0215,2.9805,0.0,0.0,0.0,0.0,0.0,0.0,0.0,0.0,0.0,0.0,0.0,0.0,0.0,0.0,0.0,0.0,0.0,0.0,0.0,0.0,0.0,0.0,0.0,0.0,0.0,0.0,0.0,0.0,0.0,0.0,0.0,0.0,0.0,0.0,0.0,0.0,0.0,0.0,0.0,0.0,0.0,0.0,0.0,0.0,0.0,0.0,0.0,0.0,0.0,0.0,0.0,0.0,0.0,0.0,4.2875,4.3511,4.2844,4.3099,4.4005,4.2122,4.1664,4.2139,0.0,0.0,0.0,0.0,0.0,0.0,0.0,0.0,0.0,0.0,0.0,0.0,0.0,0.0,0.0,0.0,0.0,0.0,0.0,0.0,0.0,0.0,0.0,0.0,0.0,4.258,4.2925,0.0,0.0,0.0,0.0,0.0,0.0,0.0,0.0,0.0,0.0,0.0,0.0,3.5141,3.5847,3.5623,3.3571,3.277,3.1969,3.0934,3.0856,3.0914,3.105,3.107,3.1207,0.0,0.0,0.0,0.0,0.0,0.0,0.0,0.0,0.0,0.0,0.0,0.0,0.0,0.0,0.0,0.0,0.0,0.0,0.0,0.0,0.0,0.0,0.0,0.0,0.0,0.0,0.0,0.0,0.0,0.0,0.0,0.0,4.0231,4.1267,0.0,0.0,0.0,0.0,0.0,0.0,0.0,0.0,0.0,0.0,0.0,0.0,0.0,0.0,4.4482,4.4727,4.4569,4.3978,4.4178,4.4335,4.4423,4.4316,4.4516,4.4936,4.4619,0.0,4.3951,4.372,0.0,0.0,0.0,0.0,0.0,0.0,0.0,0.0,0.0,0.0,0.0,0.0,0.0,0.0,0.0,0.0,0.0,0.0,0.0,0.0,0.0,0.0,4.5485,4.5237,4.5361,4.5436,0.0,4.2515,4.0376,4.0377,0.0,0.0,0.0,0.0,0.0,0.0,0.0,0.0,3.6894,3.7504,3.6836,3.3564,3.3127,3.2405,3.0789,3.0633,3.0963,3.1717,3.1775,3.2457,3.3956,3.3396,0.0,0.0,0.0,0.0,0.0,0.0,0.0,0.0,0.0,0.0,0.0,0.0,0.0,0.0,0.0,0.0,0.0,0.0,0.0,0.0,0.0,0.0,0.0,0.0,0.0,0.0,0.0,0.0,0.0,4.0308,4.2065,4.2332,4.2515,4.2433,0.0,0.0,0.0,0.0,0.0,0.0,0.0,0.0,0.0,4.5051,4.5134,4.5193,4.5311,4.5454,4.5136,4.4332,4.4514,4.4593,4.4593,4.4593,4.4775,4.5096,4.5096,4.5068,4.4994,4.4494,4.3986,4.3503,0.0,0.0,0.0,0.0,0.0,4.3617,4.4267,0.0,0.0,0.0,0.0,0.0,0.0,0.0,0.0,0.0,0.0,0.0,0.0,0.0,0.0,4.5727,4.5727,4.5754,4.5828,4.4638,4.346,0.0,4.2731,4.1865,3.9933,0.0,0.0,0.0,0.0,0.0,3.7154,3.7752,3.7205,3.4246,3.393,3.3228,3.1475,3.1783,3.2015,3.1919,3.2814,3.3691,3.4471,3.4994,3.5234,0.0,0.0,0.0,0.0,0.0,0.0,0.0,0.0,0.0,0.0,0.0,0.0,0.0,0.0,0.0,0.0,0.0,0.0,0.0,0.0,0.0,0.0,0.0,0.0,0.0,0.0,0.0,0.0,4.2295,4.3617,4.3304,4.4131,4.4169,0.0,0.0,0.0,0.0,0.0,0.0,4.4065,4.4112,4.4866,4.6532,4.6578,4.6437,4.6132,4.5933,4.5423,4.462,4.4421,4.4364,4.4453,4.4453,4.4688,4.5096,4.5096,4.5297,4.5556,4.4898,4.457,4.4493,4.4493,4.4091,4.3656,4.4973,4.5054,4.4602,4.5361,4.5594,4.5494,4.484,0.0,4.3297,4.2639,0.0,0.0,0.0,0.0,4.4628,4.4628,0.0,4.5594,4.5594,4.5594,4.5637,4.5737,4.5751,4.5606,0.0,4.5034,4.4343,4.2111,0.0,0.0,0.0,0.0,3.9402,3.7475,3.7848,3.7288,3.4691,3.4415,3.3811,3.2293,3.2757,3.2929,3.2524,3.3714,3.4512,3.474,3.6106,3.6538,3.588,0.0,0.0,0.0,0.0,0.0,0.0,0.0,0.0,0.0,0.0,0.0,0.0,0.0,0.0,0.0,0.0,0.0,0.0,0.0,0.0,0.0,0.0,0.0,0.0,0.0,0.0,0.0,0.0,0.0,4.4594,4.4845,0.0,0.0,0.0,0.0,4.3878,4.5334,4.6104,4.58,4.5773,4.6168,4.704,4.7058,4.7068,4.7031,4.6278,4.5487,4.4697,4.3915,4.3718,4.402,4.402,4.4416,4.5096,4.5096,4.5297,4.5594,4.5556,4.5357,4.5061,4.5061,4.4836,4.4562,4.4981,4.5099,4.5117,4.5475,4.5594,4.5594,4.5556,4.4955,4.422,4.4182,4.4162,0.0,0.0,4.4859,4.5532,4.5532,4.5575,4.5594,4.5594,4.5594,4.5594,4.5607,4.5612,4.5658,0.0,4.594,4.5695,4.4674,0.0,4.4057,4.2173,4.1926,4.1038,3.8453,3.8188,3.7174,3.4501,3.4228,3.3843,3.2935,3.2897,3.3243,3.4036,3.417,3.4591,3.5412,3.6271,3.6691,3.6652,3.7453,0.0,0.0,0.0,0.0,0.0,0.0,0.0,0.0,0.0,0.0,0.0,0.0,0.0,0.0,0.0,0.0,0.0,0.0,0.0,0.0,0.0,0.0,0.0,0.0,0.0,0.0,0.0,0.0,4.6227,4.7003,0.0,4.5866,4.6029,4.6043,4.5643,4.6153,4.6545,4.6673,4.6663,4.7049,4.7856,4.7874,4.7617,4.7113,4.6296,4.5594,4.5006,4.4217,4.4016,4.4399,4.4399,4.4657,4.5096,4.5096,4.5297,4.5594,4.5594,4.5522,4.5424,4.5424,4.5347,4.5258,4.539,4.5424,4.5434,4.5564,4.5594,4.5594,4.5594,4.5398,4.5148,4.5148,4.5148,4.5148,4.5148,4.5359,4.5594,4.5594,4.5594,4.5594,4.5594,4.5594,4.5594,4.5594,4.5594,4.5622,4.5695,4.5823,4.5618,4.4738,4.4686,4.4158,4.2317,4.2062,4.1336,3.9245,3.8512,3.7583,3.5989,3.535,3.468,3.3817,3.4257,3.4468,3.4225,3.4737,3.5176,3.5481,3.6811,3.7546,3.7546,3.8392,3.7913,0.0,0.0,0.0,0.0,0.0,0.0,0.0,0.0,0.0,0.0,0.0,0.0,0.0,0.0,0.0,0.0,0.0,0.0,0.0,0.0,0.0,0.0,0.0,0.0,0.0,0.0,4.7574,4.7148,4.8279,4.8592,4.7384,4.7643,4.7719,4.732,4.7543,4.7769,4.7893,4.7904,4.8145,4.8683,4.8701,4.8442,4.7904,4.7105,4.6419,4.5799,4.4983,4.4664,4.4776,4.4776,4.4948,4.5263,4.5263,4.5381,4.5594,4.5594,4.5594,4.5594,4.5594,4.5594,4.5594,4.5594,4.5594,4.5594,4.5594,4.5594,4.5594,4.5594,4.5594,4.5594,4.5594,4.5594,4.5594,4.5594,4.5594,4.5594,4.5594,4.5594,4.5594,4.5594,4.5594,4.5594,4.5594,4.5594,4.5594,4.5594,4.5711,4.5625,4.5047,4.5023,4.4581,4.3071,4.2632,4.1813,3.9994,3.9064,3.8189,3.7229,3.6657,3.5984,3.5122,3.5561,3.5657,3.5084,3.558,3.6038,3.633,3.7411,3.8142,3.843,3.9261,3.918,3.8155,0.0,0.0,0.0,0.0,0.0,0.0,0.0,0.0,0.0,0.0,0.0,0.0,0.0,0.0,0.0,0.0,0.0,0.0,0.0,0.0,0.0,0.0,0.0,4.5284,4.7648,4.8855,4.7389,4.8534,4.898,4.7802,4.8757,4.9262,4.8878,4.9629,4.993,4.9518,4.9496,4.9496,4.9496,4.9496,4.9496,4.9496,4.8695,4.7871,4.7046,4.6229,4.5615,4.5189,4.517,4.5336,4.5633,4.5614,4.5594,4.5594,4.5594,4.5594,4.5594,4.5594,4.5594,4.5594,4.5594,4.5594,4.5594,4.5594,4.5594,4.5594,4.5594,4.5594,4.5594,4.5594,4.5594,4.5594,4.5594,4.5594,4.5594,4.5594,4.5594,4.5594,4.5594,4.5594,4.5594,4.5594,4.5594,4.5594,4.5594,4.5704,4.5793,4.5793,4.585,4.559,4.4655,4.3765,0.0,4.0773,3.9815,3.898,3.8123,3.8027,3.7661,3.6811,3.6734,3.6734,3.6734,3.6734,3.7138,3.8007,3.8065,3.8507,3.9396,4.0142,4.0946,4.1784,0.0,0.0,0.0,0.0,0.0,0.0,0.0,0.0,0.0,0.0,0.0,0.0,0.0,0.0,0.0,0.0,0.0,0.0,0.0,0.0,0.0,0.0,4.8318,4.8231,4.8894,4.9485,4.9693,5.0089,5.0202,4.9887,5.0149,5.0169,4.9773,4.9959,4.993,4.9518,4.9496,4.9496,4.9496,4.9496,4.9496,4.9496,4.8695,4.8297,4.8289,4.7482,4.7149,4.7252,4.6676,4.6464,4.6509,4.5879,4.5594,4.5594,4.5594,4.5594,4.5594,4.5594,4.5594,4.5594,4.5594,4.5594,4.5594,4.5594,4.5594,4.5594,4.5594,4.5594,4.5594,4.5594,4.5594,4.5594,4.5594,4.5594,4.5594,4.5594,4.5594,4.5594,4.5594,4.5594,4.5594,4.5594,4.5594,4.5594,4.5594,4.5622,4.5644,4.5644,4.5782,4.5615,4.4761,0.0,0.0,4.1818,4.0314,3.9264,3.8968,3.8373,3.7892,3.7661,3.7642,3.7642,3.7642,3.7642,3.8027,3.8915,3.9492,4.0512,4.2027,4.147,4.1274,0.0,0.0,0.0,0.0,0.0,0.0,0.0,0.0,0.0,0.0,0.0,0.0,0.0,0.0,0.0,0.0,0.0,0.0,0.0,0.0,0.0,0.0,4.8437,4.9529,4.9899,4.9938,5.013,5.063,5.0707,5.0707,5.0707,5.0707,5.0604,5.0364,5.0347,5.0254,5.0025,4.9993,4.9993,4.9993,4.9993,4.9993,4.9993,4.9536,4.9226,4.9054,4.8577,4.8258,4.8082,4.762,4.7408,0.0,4.6509,4.6144,4.6129,4.5744,4.5594,0.0,0.0,0.0,0.0,0.0,4.5594,4.5594,4.5594,4.5594,4.5594,4.5594,4.5594,4.5594,4.5594,4.5594,4.5594,4.5594,4.5643,4.5673,4.5673,4.5695,4.5736,4.5736,4.5695,4.5696,4.5719,4.5665,4.5631,4.5705,0.0,0.0,4.5722,4.5804,4.5703,4.5231,4.4483,4.3767,0.0,4.1523,4.0386,4.035,3.9569,3.905,3.905,3.905,0.0,0.0,0.0,3.9815,4.0335,4.1147,0.0,0.0,0.0,0.0,0.0,0.0,0.0,0.0,4.4162,4.4905,0.0,0.0,0.0,0.0,0.0,0.0,0.0,0.0,0.0,0.0,0.0,0.0,0.0,0.0,0.0,0.0,4.9656,4.9963,5.0657,5.073,5.0721,5.0693,5.0707,5.0707,5.0707,5.0707,5.0707,5.0707,5.0707,5.0707,5.0707,0.0,0.0,0.0,0.0,5.0707,5.0707,5.0707,5.0303,4.9553,4.9553,4.9144,4.8394,4.8293,4.8255,4.8197,4.7389,4.7043,4.6966,4.6109,4.5686,4.5594,4.5594,4.5594,4.5594,4.5594,4.5594,0.0,0.0,0.0,0.0,4.5625,4.5614,4.5618,4.5624,4.5628,4.5628,4.5628,4.5725,4.5809,4.5809,4.5853,4.5901,4.5901,4.585,4.5829,4.5896,4.5757,4.568,4.5877,4.5845,4.5835,4.5881,4.5855,4.5837,4.5837,4.5103,0.0,4.4517,4.3023,4.1955,4.195,0.0,0.0,4.0785,4.0785,4.1127,4.1908,4.2023,4.2081,4.2081,4.2912,4.3374,4.3374,4.4085,4.4878,4.5744,4.6528,4.7005,4.7154,4.5973,4.6453,0.0,0.0,0.0,0.0,0.0,0.0,0.0,0.0,0.0,0.0,0.0,0.0,0.0,0.0,0.0,5.0527,5.124,5.1561,5.1089,5.0932,5.0826,5.0712,5.0707,5.0707,5.0707,5.0707,5.0707,5.0707,5.0707,5.0707,5.0707,5.0707,0.0,5.0707,5.0707,5.0707,5.0707,5.0707,5.0611,5.0457,0.0,0.0,5.0168,4.9471,4.9144,4.9106,4.8235,4.787,4.7793,4.6985,4.622,4.5594,4.5594,4.5594,4.5594,4.5594,4.5594,4.5594,4.5594,4.5594,4.5625,4.5737,4.5768,4.5776,4.5831,4.5846,0.0,4.5846,4.5864,4.5884,4.5884,4.5883,4.5901,4.5901,4.5883,4.5872,4.5894,4.5862,4.5842,4.5892,4.5881,4.5874,4.5897,4.5974,4.605,4.605,4.5352,4.4785,4.4679,4.3654,4.2909,4.2856,4.2701,4.2604,4.2604,4.2604,4.2662,4.2835,4.3451,4.3816,4.3816,4.4648,4.5109,4.5109,4.5263,4.5782,4.6639,4.6812,4.7582,4.8894,4.7967,4.8102,0.0,0.0,0.0,0.0,0.0,0.0,0.0,0.0,0.0,0.0,0.0,4.9397,5.0669,0.0,5.1788,5.2184,5.2636,5.266,5.1816,5.1639,5.1392,5.0857,5.0744,5.0707,5.0707,5.0707,5.0707,5.0707,5.0707,5.0707,5.0707,5.0707,5.0707,5.0707,5.0707,5.0707,5.0707,5.0707,5.0707,5.0707,5.0707,5.0707,5.0688,5.0245,5.0053,4.9995,4.9125,4.8759,4.8644,4.7408,4.6671,4.6268,4.587,4.5653,4.5594,4.5594,4.5643,4.5696,4.5696,4.5724,4.5754,4.5836,4.5842,4.5855,4.5883,4.5901,4.5901,4.5901,4.5959,4.5997,4.5997,4.6046,4.6109,4.6109,4.6045,4.6027,4.6083,4.5992,4.5932,4.6077,4.6043,4.6029,4.6084,4.6169,4.6175,4.6114,4.5759,4.5477,4.5402,4.4552,4.3909,4.381,4.3402,4.33,4.3675,4.4109,4.4359,4.4359,4.4724,4.4955,4.4955,4.5359,4.5594,4.5594,4.6033,4.6471,4.6908,4.7735,4.8586,4.9394,4.9394,4.963,0.0,0.0,0.0,0.0,0.0,0.0,0.0,0.0,4.9493,5.0363,5.1105,5.1847,5.2738,5.2914,5.3139,5.379,5.3907,5.3569,5.2512,5.2358,5.1994,5.1072,5.0848,5.0773,5.0773,5.0773,5.0831,5.099,5.1009,5.1091,5.1249,5.1269,5.1187,5.1009,5.1009,5.0932,5.0773,5.0773,5.0773,5.0773,5.0773,5.0773,5.0773,5.0773,5.0773,5.0735,5.004,4.9635,4.9365,4.8015,4.7399,4.724,4.659,4.6257,4.6117,4.5781,4.5728,4.5831,4.5831,4.5853,4.5903,4.5926,4.5932,4.5936,4.5976,4.5981,4.5981,4.5981,4.6068,4.6144,4.6144,4.6223,4.6308,4.6308,4.6223,4.6173,4.6288,4.6121,4.604,4.6267,4.6202,4.6174,4.6289,4.6308,4.6268,4.6168,4.6144,4.612,4.6091,4.5438,4.4924,4.4785,4.415,4.3979,4.4558,4.5256,4.5645,4.5643,4.5639,4.5637,4.5594,4.5594,4.5686,4.584,4.6547,4.7062,4.7389,4.8772,4.9526,4.9699,5.0443,5.0743,4.5769,4.6322,4.7272,4.8714,4.9229,4.9973,0.0,0.0,5.2193,5.3001,5.3251,5.3582,5.4453,5.4716,5.4826,5.4914,5.5039,5.4548,5.2888,5.2553,5.2147,5.1277,5.1109,5.1064,5.1064,5.1064,5.1358,5.2066,5.2125,5.2458,5.3225,5.3283,5.293,5.2144,5.2125,5.1772,5.1064,5.1064,5.1064,5.1064,5.1064,5.1064,5.1064,5.1064,5.1064,5.1045,5.095,5.047,4.9739,4.9547,4.9012,4.8329,4.8231,4.8185,4.7998,4.6448,4.5889,4.59,4.59,4.589,4.5916,4.6039,4.608,4.6108,4.6223,4.6267,4.6267,4.6267,4.6268,4.6288,4.6288,4.6289,4.6308,4.6308,4.6289,4.6289,4.6308,4.6288,4.6268,4.6289,4.6289,4.6289,4.6308,4.6308,4.6289,4.6289,4.6288,4.6226,4.6116,4.6006,4.5897,4.5758,4.5667,4.5623,4.5706,4.5801,4.5847,4.578,4.5769,4.5714,4.5599,4.5594,4.5956,4.6735,4.6851,4.762,4.9125,4.9435,4.9988,5.0743,5.0942,5.0928,4.661,4.753,4.8486,4.9716,5.0772,5.1768,5.2839,5.3602,5.419,5.4518,5.4987,5.5455,5.5825,5.5939,5.5968,0.0,5.6014,5.5625,5.4394,5.3728,5.3058,5.2179,5.2049,5.1967,5.1811,5.1797,5.2149,5.2994,5.3052,5.3227,5.358,5.3599,5.3424,5.3071,5.3052,5.266,5.1816,5.1797,5.1561,5.1091,5.1091,5.1091,5.1091,5.1091,5.1091,5.1091,5.1091,5.0899,5.0515,5.0016,4.9627,4.9327,4.8802,4.8653,4.8558,4.7161,4.6705,4.6692,4.6183,4.6075,4.6145,4.62,4.6223,4.6225,4.6289,4.6308,4.6308,4.6308,4.6308,4.6308,4.6308,4.6308,4.6308,4.6308,4.6308,4.6308,4.6308,4.6308,4.6308,4.6308,4.6308,4.6308,4.6308,4.6308,4.6308,4.6308,4.6308,4.6289,4.6224,4.6223,4.6171,4.6035,4.5957,4.5901,4.5901,4.5901,4.5898,4.5863,4.5858,4.5831,4.5786,4.6254,4.6703,4.7065,4.806,4.8933,4.9631,5.0198,5.0655,5.1024,5.1555,5.1736,4.7187,4.8242,4.916,5.0254,5.1816,5.3125,5.3359,5.457,5.5664,5.5664,5.6152,5.6601,5.6601,5.6601,5.6601,5.6601,5.6601,5.6308,5.543,5.4551,5.3769,5.3125,5.2851,5.2805,5.3096,5.2907,5.3123,5.4002,5.4063,5.418,5.4414,5.4433,5.4316,5.4082,5.4063,5.3651,5.2771,5.2771,5.2476,5.1909,5.1909,5.1773,5.1537,5.1284,5.1185,5.1185,5.1185,5.1185,5.1128,5.0491,5.0291,5.0326,4.9685,4.9504,4.9452,4.8407,4.7934,4.7692,4.6813,4.6575,4.6621,4.6387,4.6308,4.6308,4.6308,4.6308,4.6308,4.6308,4.6308,4.6308,4.6308,4.6308,4.6308,4.6308,4.6308,4.6308,4.6308,4.6308,4.6308,4.6308,4.6308,4.6308,4.6308,4.6308,4.6308,4.6308,4.6308,4.6308,4.6308,4.6308,4.6268,4.6172,4.6075,4.6003,4.6003,4.6003,4.5992,4.5967,4.6179,4.6304,4.6253,4.7097,4.7663,4.7914,4.9162,4.9919,5.0169,5.0819,5.1241,5.1496,5.2113,5.2673,4.7363,4.8242,4.9297,5.0957,5.2676,5.418,5.5039,5.5918,5.6562,5.6562,5.6582,5.6601,5.6601,5.6601,5.6601,5.6601,5.6601,5.6308,5.543,5.4551,5.3984,5.3965,5.3203,5.3359,0.0,5.4433,5.4316,5.5175,5.5254,5.5625,5.6465,5.6504,5.6113,5.5273,5.5254,5.4824,5.3965,5.3945,5.3945,5.3906,5.3906,5.3476,5.2617,5.1777,5.1386,5.1386,5.1386,5.1386,5.1386,5.1367,5.1347,5.1348,5.1328,5.1328,5.123,5.041,4.959,4.873,4.7851,4.7558,4.7422,4.6562,4.6308,4.6308,4.6308,4.6308,4.6308,4.6308,4.6308,4.6308,4.6308,4.6308,4.6308,4.6308,4.6308,4.6308,4.6308,4.6308,4.6308,4.6308,4.6308,4.6308,4.6308,4.6308,4.6308,4.6308,4.6308,4.6308,4.6308,4.6308,4.6308,4.6289,4.6289,4.6289,4.6289,4.6289,4.6225,4.609,4.6888,4.7309,4.7179,4.7999,4.8855,4.9707,4.9765,5.0228,5.1052,5.1143,5.1629,5.2452,5.2611,5.3593,4.8223,4.9101,5.0156,5.1836,5.2695,5.3516,5.4961,5.5527,5.5898,5.6484,5.6133,5.5742,5.5742,5.5742,5.5742,5.5742,5.6211,5.6504,5.6191,5.5918,5.5508,5.4922,5.5117,0.0,0.0,0.0,0.0,5.6094,5.6152,5.6289,5.6582,5.6601,5.6465,5.6172,5.6152,5.5742,5.4863,5.4863,5.457,5.4004,5.4004,5.3848,5.3535,5.2656,5.2266,5.2226,5.1641,5.1406,5.1406,5.1406,5.1406,5.1406,5.1406,5.1406,5.1367,5.1094,5.0801,5.0351,4.8945,4.8457,4.8418,4.8125,4.7637,4.7168,4.7168,4.7168,4.7168,4.7168,4.7578,4.8027,4.8027,4.8027,4.8027,4.8027,4.8027,4.8027,4.8027,4.8027,4.8027,4.8027,4.8027,4.8027,4.8027,4.8027,4.8027,4.8027,4.7031,4.6308,4.6308,4.6308,4.6308,4.6308,4.6308,4.6523,4.7109,4.7168,4.7382,4.7925,4.8237,4.8371,4.8322,4.9161,4.9767,5.0058,5.0586,5.1288,5.2166,5.2178,5.2631,5.3511,5.412,5.4746,4.9043,4.9766,5.0527,5.1894,5.2461,5.2988,5.4121,5.4609,5.498,5.5566,5.5234,5.4844,5.4844,5.5098,5.539,5.5703,5.6504,5.7168,5.748,5.7265,5.6973,5.6719,5.6914,5.6973,0.0,0.0,0.0,5.6601,5.6894,5.6933,5.6621,5.6601,5.6601,5.6601,5.6601,5.6328,5.5762,5.5762,5.5488,5.4922,5.4609,5.4453,5.4433,5.3555,5.3164,5.3125,5.2246,5.1855,5.1836,5.1523,5.1406,5.1406,5.1406,5.1406,5.1406,5.1406,5.1406,5.1191,4.9844,4.9355,4.9316,4.9004,4.8516,4.8066,4.8066,4.8066,4.8066,4.8066,4.8476,4.8906,4.8906,4.8906,4.8906,4.8906,4.8906,4.8906,4.8906,4.8906,4.8906,4.8906,4.8906,4.8906,4.8906,4.8906,4.8906,4.8906,4.7949,4.7226,4.7226,4.7226,4.7226,4.7226,4.7226,4.7461,4.8027,4.8066,4.8301,4.8867,4.9199,4.9355,4.9355,5.0176,5.0781,5.1094,5.1601,5.2285,5.3164,5.3164,5.3613,5.4473,5.5039,5.5469,4.9746,5.0234,5.0449,5.1211,5.2012,5.2656,5.2695,5.334,5.3945,5.3984,5.3945,5.3926,5.3926,5.4668,5.5546,5.6386,5.7324,5.8222,5.9062,5.8495,5.83,0.0,0.0,0.0,0.0,0.0,0.0,5.6855,0.0,5.7598,5.6719,5.668,5.664,5.6601,5.6601,5.6601,5.6601,5.6601,5.6601,5.6582,5.5762,5.5371,5.5332,5.4453,5.4062,5.4023,5.3144,5.2734,5.2637,5.1816,5.1445,5.1406,5.1406,5.1406,5.1406,5.1406,5.1406,5.1289,5.0527,5.0254,5.0137,4.9297,4.9004,4.8965,4.8965,4.8965,4.8965,4.8965,4.8984,4.9023,4.9003,4.9003,4.9003,4.9003,4.9003,4.9003,4.9003,4.9003,4.9003,4.9003,4.9023,4.9023,4.9023,4.9023,4.9023,4.9023,4.9023,4.9004,4.8906,4.8906,4.8906,4.8906,4.8906,4.8926,4.8965,4.8965,4.8984,4.9023,4.9805,5.0254,5.0254,5.1035,5.1855,5.2676,5.2734,5.3203,5.4062,5.4062,5.4512,5.5371,5.5371,5.5801,4.9902,5.0644,5.1133,5.1348,5.1562,5.1894,5.2558,5.2871,5.3183,5.3731,5.3334,5.2884,5.2884,5.4032,0.0,5.5426,5.7179,0.0,5.8808,5.92,0.0,5.8886,0.0,5.933,5.9003,5.9462,0.0,0.0,5.873,5.8496,5.7617,5.7578,5.7265,5.6621,5.6601,5.6601,5.6601,5.6601,5.6601,5.6601,5.6367,5.6269,5.623,5.5371,5.4961,5.4922,5.4043,5.3301,5.2676,5.2461,5.1992,5.1406,5.1406,5.1406,5.1406,5.1406,5.1343,5.1223,5.1028,5.1007,5.1055,5.082,5.0351,4.9863,4.9863,4.9863,4.9843,4.9748,5.0149,5.0609,5.0552,5.0534,5.0534,5.0534,5.0534,5.0534,5.0534,5.0534,5.0534,5.0534,5.0586,5.0618,5.0618,5.0698,5.0762,5.0762,5.0762,5.0312,4.9062,4.8906,4.8906,4.8906,4.8906,4.916,4.9805,4.9863,5.0117,5.0723,5.0976,5.1094,5.1094,5.1914,5.2461,5.2695,5.334,5.4101,5.4961,5.4961,5.543,5.6269,5.6269,5.6387,5.0352,5.0919,5.127,5.127,5.127,5.1291,5.1392,5.1722,5.2005,5.2047,5.1955,5.1893,5.1893,5.3533,5.5059,0.0,0.0,0.0,5.9796,6.0266,6.0382,0.0,6.0266,0.0,5.9984,6.0335,6.0453,0.0,5.9821,5.9291,5.8515,5.8476,5.8066,5.7207,5.7168,5.6992,5.6601,5.6538,5.6512,5.6512,5.6512,5.6484,5.6404,5.5916,5.5681,5.5642,0.0,5.4117,5.3649,5.3257,5.2807,5.2339,5.193,5.1795,5.1756,5.1407,5.1229,5.1169,5.1169,5.122,5.127,5.127,5.0958,5.0586,5.0586,5.0586,5.0579,5.0498,5.0816,5.1156,5.111,5.1091,5.1091,5.1091,5.1091,5.1091,5.1091,5.1091,5.1091,5.1091,5.1128,5.1169,5.1169,5.1227,5.127,5.127,5.1289,5.0967,5.003,4.9959,5.0,5.0,5.0,5.0195,5.0683,5.0723,5.1074,5.1914,5.1973,5.2148,5.2539,5.3008,5.3457,5.3828,5.4316,5.5,5.5879,5.5879,5.6113,5.6601,5.6601,5.6601,5.0855,5.1091,5.1091,5.1091,5.1091,5.0899,5.015,5.0554,5.0875,5.0109,5.0546,5.1063,5.1063,5.3144,5.514,5.6019,0.0,6.0239,6.1104,6.124,6.124,6.124,6.124,6.125,6.1253,6.1234,6.1259,6.1303,6.0679,6.0001,5.933,5.9312,5.8902,5.8023,5.7886,5.7476,5.6715,5.6484,5.6374,5.6374,5.6374,5.6315,5.6194,5.6194,5.6194,5.6153,0.0,0.0,5.4841,5.4074,5.3702,5.3527,5.2774,5.2462,5.2387,5.1689,5.1429,5.1394,5.1277,5.1225,5.1197,5.1118,5.1091,5.1091,5.1091,5.1091,5.1106,5.1088,5.1063,5.1061,5.1042,5.1056,5.1056,5.1056,5.1056,5.1075,5.117,5.1209,5.1247,5.1364,5.1303,5.1277,5.1394,5.1426,5.1439,5.1439,5.1489,5.1518,5.1518,5.1454,5.1406,5.1406,5.1406,5.1445,5.1562,5.1562,5.1933,5.2812,5.2871,5.3203,5.3965,5.4101,5.4531,5.5293,5.541,5.584,5.6601,5.6601,5.6601,5.6601,5.6601,5.6582,5.0855,5.1091,5.1091,5.1091,5.1091,5.1052,5.0919,5.0996,0.0,5.0756,5.0822,5.0939,5.0939,5.2923,5.4866,5.5792,5.8007,5.9891,6.0764,6.0899,6.0899,0.0,6.0899,6.0929,6.104,6.0954,0.0,0.0,0.0,6.0572,5.9905,5.9854,5.9462,5.8581,5.7868,5.7405,5.7266,5.6588,5.6227,5.6227,5.6227,5.6215,5.6194,5.6194,5.6194,5.6194,0.0,0.0,5.4899,5.4741,5.4252,5.3585,5.343,5.3371,5.3352,5.3219,5.3103,5.2905,5.2172,5.185,5.1696,5.1244,5.1091,5.1091,5.1091,5.1091,5.1088,5.0979,5.0939,5.0903,5.0808,5.0779,5.0779,5.0779,5.0779,5.0948,5.1614,5.1769,5.1981,5.2694,5.2344,5.2153,5.2885,5.308,5.318,5.318,5.3181,5.3176,5.3176,5.2135,5.1406,5.1406,5.1406,5.1699,5.2402,5.2461,5.2851,5.3711,5.3769,5.3848,5.3984,5.4687,5.5156,5.5293,5.6015,5.6445,5.6601,5.6601,5.6601,5.6601,5.6601,5.6538,5.0777,5.0897,5.0897,5.0897,5.0897,5.0762,5.0316,0.0,0.0,5.0226,5.0475,5.0804,5.0804,5.2825,5.4648,5.509,5.7265,5.9165,6.0012,6.0127,6.0281,6.0748,6.0806,6.0825,0.0,6.0834,0.0,0.0,0.0,6.083,6.0685,6.0246,5.9815,5.9385,5.8023,5.7324,5.739,5.6495,5.6045,5.6045,5.6045,5.6015,5.5931,5.5931,5.5931,5.5931,5.5931,0.0,5.5323,5.5323,5.5063,5.4652,5.4227,5.4072,5.4014,5.3553,5.3357,5.3246,5.2821,5.2627,5.2468,5.1752,5.1219,5.0897,5.0897,5.0897,5.0879,5.0814,5.0804,5.0874,5.1236,5.1318,5.1433,5.1895,5.1991,5.2106,5.2486,5.2582,5.2697,5.3121,5.2912,5.2802,5.3227,5.3352,5.3398,5.3398,5.3446,5.3508,5.3508,5.2936,5.2536,5.2536,5.2536,5.2711,5.3122,5.3232,5.3637,5.4515,5.4646,5.4883,5.5332,5.5742,5.5976,5.5976,5.6321,5.6508,5.6508,5.6852,5.7028,5.7028,5.7473,5.7663,5.0745,5.0822,5.0919,5.0745,5.0707,5.0515,4.9822,5.0207,5.0515,4.9822,5.0226,5.0745,5.0938,5.2741,5.4337,5.4703,5.6742,5.8583,5.9396,5.9665,6.0031,6.0723,6.0806,0.0,6.0806,6.0806,0.0,0.0,0.0,0.0,6.1177,6.0547,6.0175,6.0175,5.8395,5.7496,5.7595,5.6439,5.5868,5.5868,5.5868,5.5808,5.5708,5.5708,5.5708,5.5708,5.5708,0.0,0.0,5.5708,5.5708,5.5651,5.4991,5.4761,5.4664,5.3991,5.3741,5.3703,5.3549,5.3491,5.3332,5.2467,5.1625,5.0919,5.0745,5.0707,5.0745,5.0919,5.0957,5.1144,5.1967,5.2178,5.2351,5.3044,5.3332,5.3491,5.3491,5.3491,5.353,5.3703,5.3606,5.353,5.3703,5.3741,5.3741,5.3741,5.383,5.3891,5.3891,5.3985,5.4048,5.4048,5.378,5.3683,5.386,5.3972,5.4409,5.5289,5.542,5.5791,5.6494,5.6514,5.6514,5.6514,5.6571,5.6616,5.6616,5.7325,5.7679,5.7698,5.837,5.868,5.0899,5.1221,5.1601,5.088,5.0707,5.0668,5.0592,5.063,5.0668,5.0592,5.063,5.0919,5.1659,5.262,5.3818,5.5343,5.7107,5.8583,5.9396,6.0185,6.0704,6.0787,0.0,0.0,6.0806,0.0,0.0,0.0,0.0,0.0,0.0,6.077,6.0732,6.0732,5.9081,5.8195,5.8222,5.6564,5.5726,5.5726,5.5726,5.571,5.5708,5.5708,5.5708,5.5708,0.0,0.0,0.0,5.5708,5.5708,5.5689,5.5612,5.5593,5.5574,5.5497,5.5478,5.5381,5.4626,5.4376,5.4241,5.3351,5.2505,5.1659,5.0919,5.0707,5.0842,5.1582,5.1793,5.1986,5.2851,5.3082,5.3101,5.3178,5.3799,5.4376,5.4376,5.4376,5.4607,5.5324,5.4876,5.4607,5.5343,5.5478,5.5478,5.5478,5.5474,5.549,5.549,5.5491,5.5507,5.5507,5.4357,5.3919,5.4702,5.4793,5.5173,5.6035,5.6106,5.6152,5.623,5.623,5.623,5.623,5.6933,5.7314,5.7314,5.8165,5.8581,5.8581,5.8659,5.8638,5.1375,5.2043,5.2601,5.2279,5.1818,5.1414,5.1414,5.1053,5.0707,5.0707,5.1087,5.1524,5.1846,5.3044,5.4357,5.5516,5.6728,5.7973,5.9319,5.98,6.0204,6.0748,6.0806,0.0,0.0,0.0,0.0,0.0,0.0,0.0,0.0,6.0806,6.0806,6.0806,5.9646,5.9031,5.9031,5.7857,5.6992,5.6478,5.6478,5.6209,5.5708,5.5708,5.5708,5.5708,0.0,0.0,0.0,5.5708,5.5708,5.5708,5.5708,5.5708,5.5708,5.5708,5.5708,5.5651,5.5324,5.5228,5.5093,5.4241,5.376,5.3318,5.2452,5.2202,5.2279,5.2582,5.2678,5.287,5.376,5.4337,5.4703,5.4703,5.4972,5.5228,5.5228,5.5228,5.5324,5.5651,5.5439,5.5324,5.5651,5.5708,5.5708,5.5708,5.5708,5.5708,5.5708,5.5708,5.5708,5.5708,5.521,5.5009,5.5346,5.5463,5.5648,5.6001,5.6121,5.6425,5.6909,5.6928,5.7178,5.7695,5.7929,5.807,5.8067,5.8826,5.918,5.918,5.9722,5.9945,5.1755,5.2717,5.353,5.3255,5.2544,5.1904,5.1904,5.1467,5.1048,5.1048,5.1717,5.237,5.262,5.3664,5.4761,5.5574,5.6651,5.7805,5.8973,5.9569,6.0108,6.0729,0.0,0.0,0.0,0.0,0.0,0.0,0.0,0.0,0.0,6.0806,6.0806,6.0806,5.9954,5.9492,5.9492,5.8698,5.7992,5.7382,5.7382,5.694,5.6074,5.6074,5.5939,5.5708,0.0,0.0,0.0,5.5708,5.5708,5.5708,5.5708,5.5708,5.5708,5.5708,5.5708,5.5708,5.5708,5.5708,5.5612,5.503,5.4857,5.4741,5.4126,5.3587,5.3255,5.351,5.376,5.4087,5.4703,5.5285,5.5708,5.5708,5.5708,5.5708,5.5708,5.5708,5.5708,5.5708,5.5708,5.5708,5.5708,5.5708,5.5708,5.5708,5.5708,5.5708,5.5708,5.5708,5.5708,5.5708,5.5708,5.5708,5.5708,5.6011,5.6224,5.6224,5.6606,5.7088,5.7647,5.7666,5.7954,5.8567,5.8716,5.8809,5.8809,5.9529,5.9877,5.9896,6.0512,6.0806,5.1904,5.3159,5.428,5.3414,5.2544,5.1904,5.1904,5.1885,5.1885,5.1885,5.2582,5.3453,5.4318,5.4491,5.4761,5.5574,5.7165,5.8294,5.8313,5.9742,6.0787,0.0,0.0,6.0806,0.0,0.0,0.0,0.0,0.0,0.0,0.0,6.0806,6.0806,6.0806,5.9954,5.9492,5.9492,5.8698,5.8294,5.8294,5.8294,5.7838,5.6983,5.6983,5.6516,0.0,0.0,0.0,0.0,5.5708,5.5708,5.5708,5.5708,5.5708,5.5708,5.5708,5.5708,5.5708,5.5708,5.5708,5.5708,5.5689,5.5689,5.5689,5.5689,5.4511,5.3371,5.4241,5.5054,5.5689,5.5689,5.5689,5.5708,5.5708,5.5708,5.5708,5.5708,5.5708,5.5708,5.5708,5.5708,5.5708,5.5708,5.5708,5.5708,5.5708,5.5708,5.5708,5.5708,5.5708,5.5708,5.5708,5.5708,5.5708,5.5708,5.6483,5.6983,5.6983,5.7811,5.8286,5.8286,5.8286,5.8286,5.8305,5.9075,5.9498,5.9498,6.0364,6.0787,6.0787,6.0806,6.0806,5.1601,5.2736,5.3549,5.3274,5.2544,5.2058,5.2659,5.2332,5.2077,5.2678,5.3491,5.4164,5.4453,5.4953,5.578,5.7242,5.7934,5.8704,5.9858,6.0979,0.0,6.0864,6.0806,0.0,0.0,0.0,0.0,0.0,0.0,0.0,0.0,6.0806,6.0806,6.0806,6.0531,6.0396,6.0396,6.0146,5.9704,5.9127,5.9127,5.8377,5.7003,5.7003,0.0,0.0,0.0,0.0,0.0,5.5708,5.5708,5.5708,5.5708,5.5708,5.5708,5.5708,5.5708,5.5708,5.5708,5.5708,5.5708,5.5708,5.5708,5.5708,5.5708,5.5318,5.4972,5.5241,5.5497,5.5708,5.5708,5.5708,5.5708,5.5708,5.5708,5.5708,5.5708,5.5708,5.5882,5.6478,5.6593,5.6786,5.7376,5.7473,5.7473,5.7473,5.7473,5.7473,5.7473,5.7473,5.7473,5.7473,5.7473,5.7242,5.6632,5.6843,5.7247,5.7857,5.8146,5.855,5.9108,5.9127,5.9396,5.9992,6.0262,6.0396,6.0396,6.0671,6.0806,6.0806,6.0806,6.0806,5.1447,5.2544,5.3197,5.3197,5.2794,5.2524,5.3082,5.3024,5.3024,5.3587,5.4357,5.4953,5.4953,5.5631,5.6555,5.7627,5.8338,5.9127,6.0165,0.0,0.0,6.1345,0.0,0.0,0.0,0.0,0.0,0.0,0.0,0.0,0.0,0.0,6.0806,6.0806,6.0806,6.0806,6.0806,6.0806,6.0531,5.9992,5.9992,5.9261,5.794,5.794,0.0,0.0,0.0,0.0,0.0,5.6684,5.6684,5.6684,5.6684,5.6684,5.6646,5.6305,5.6189,5.6132,5.5805,5.5708,5.5708,5.5708,5.5708,5.5708,5.5708,5.5708,5.5708,5.5708,5.5708,5.5708,5.5708,5.5708,5.5708,5.5708,5.5958,5.6189,5.6189,5.6459,5.6838,5.7401,5.7497,5.7671,5.8204,5.8294,5.8294,5.8294,5.8294,5.8294,5.8294,5.8294,5.8294,5.8294,5.8294,5.8204,5.7959,5.794,5.8171,5.8723,5.9069,5.9473,5.9973,5.9992,6.0242,6.0787,6.0806,6.0806,6.0806,6.0806,6.0806,6.0806,6.0806,6.0806,0.0,5.2409,5.3044,5.3082,5.3101,5.314,5.3255,5.3914,0.0,5.4568,5.5189,5.5728,5.5785,5.6439,5.7036,5.7157,5.8473,5.9511,0.0,6.0998,0.0,0.0,0.0,0.0,0.0,0.0,0.0,0.0,0.0,0.0,0.0,0.0,6.0806,6.0806,6.0806,6.0806,6.0806,6.0806,6.0806,6.0806,6.0806,6.0339,5.9492,5.9492,0.0,0.0,0.0,0.0,0.0,5.8294,5.8294,5.8294,5.8294,5.8294,5.8198,5.7382,5.7093,5.6959,5.6093,5.5785,5.5785,5.5728,5.5708,5.5708,5.5708,5.5708,5.5708,5.5708,5.5708,5.5708,5.5785,5.5785,5.5805,5.5882,5.6497,5.7093,5.7093,5.7723,5.8313,5.8371,5.8396,5.8409,5.8467,5.8486,5.8486,5.8486,5.8486,5.8486,5.8486,5.8486,5.8486,5.8486,5.8486,5.8781,5.9531,5.955,5.9531,5.9588,6.0339,6.0806,6.0806,6.0806,6.0806,6.0806,6.0806,6.0806,6.0806,6.0806,6.0806,6.0806,6.0806,6.0806,5.088,0.0,5.1438,5.2043,5.2217,5.2544,0.0,5.4357,5.4664,5.5285,5.5574,5.5901,5.6574,5.6863,5.742,5.8704,5.9242,5.9723,6.0396,0.0,0.0,6.2018,0.0,0.0,0.0,0.0,0.0,0.0,0.0,0.0,0.0,0.0,6.0806,6.0806,6.0806,6.0806,6.0806,6.0806,6.0806,6.0806,6.0806,6.0339,5.9492,5.9492,0.0,0.0,0.0,0.0,5.8294,5.8294,5.8294,5.8294,5.8294,5.8294,5.828,5.8069,5.7992,5.7877,5.6997,5.6689,5.6574,5.592,5.5708,5.5708,5.5708,5.5708,5.5708,5.5708,5.5708,5.5843,5.6516,5.6689,5.6863,5.753,5.7857,5.7992,5.7992,5.8165,5.8486,5.9108,5.9223,5.9435,6.0108,6.0204,6.0204,6.0204,6.0204,6.0204,6.0204,6.0204,6.0204,6.0204,6.0204,6.0281,6.0473,5.9877,5.9781,6.0454,6.0691,6.0806,6.0806,6.0806,6.0806,6.0806,6.0806,6.0806,6.0806,6.0806,6.0806,6.0806,6.0806,6.0806,5.0707,5.1265,5.1952,5.239,5.3063,5.3895,5.4838,5.5049,5.517,5.5612,5.5708,5.5978,5.6843,5.7324,5.8011,5.93,5.9838,0.0,0.0,0.0,6.1114,6.1999,0.0,0.0,0.0,0.0,0.0,0.0,0.0,0.0,0.0,0.0,6.0806,6.0806,6.0806,6.0806,6.0806,6.0806,6.0806,6.0806,6.0806,6.055,6.0108,6.0108,0.0,0.0,0.0,0.0,5.9454,5.9454,5.9454,5.9454,5.9454,5.9454,5.9396,5.8992,5.8858,5.8723,5.7896,5.7324,5.6926,5.6439,5.6305,5.6305,5.6305,5.6574,5.6799,5.6401,5.6305,5.6497,5.7363,5.7594,5.7723,5.8184,5.8583,5.8858,5.8858,5.9165,5.9588,6.0012,6.0108,6.0242,6.0723,6.0806,6.0806,6.0806,6.0806,6.0806,6.0806,6.0806,6.0806,6.0806,6.0806,6.0806,6.0806,6.0358,6.03,6.0762,6.0806,6.0806,6.0806,6.0806,6.0806,6.0806,6.0806,6.0806,6.0806,6.0806,6.0806,6.0806,6.0806,6.0806,5.1015,5.2318,5.353,5.3255,5.4453,5.5708,5.5708,5.5708,5.5708,5.5708,5.5805,5.617,5.7036,5.8011,0.0,0.0,0.0,0.0,6.1826,6.1268,6.1075,0.0,0.0,0.0,0.0,0.0,0.0,0.0,0.0,0.0,0.0,0.0,0.0,6.0806,6.0806,6.0806,6.0806,6.0806,6.0806,6.0806,6.0806,6.0806,6.0806,6.0806,6.0806,0.0,0.0,0.0,6.0806,6.0806,6.0806,6.0806,6.0806,6.0806,6.0704,5.9973,5.9704,5.9588,5.8775,5.7915,5.7209,5.7209,5.7209,5.7209,5.7209,5.7703,5.8165,5.7555,5.7286,5.7401,5.8261,5.8486,5.8525,5.864,5.9204,5.9704,5.9704,6.0281,6.0806,6.0806,6.0806,6.0806,6.0806,6.0806,6.0806,6.0806,6.0806,6.0806,6.0806,6.0806,6.0806,6.0806,6.0806,6.0806,6.0806,6.0806,6.0806,6.0806,6.0806,6.0806,6.0806,6.0806,6.0806,6.0806,6.0806,6.0806,6.0806,6.0806,6.0806,6.0806,6.0806,6.0806,5.2433,5.4049,5.4972,5.3549,5.4453,5.5708,5.5708,5.5708,5.5708,5.5708,5.6285,5.7074,5.7934,5.9377,6.071,0.0,0.0,6.1691,0.0,0.0,0.0,0.0,0.0,0.0,0.0,0.0,0.0,0.0,0.0,0.0,0.0,0.0,0.0,6.0806,6.0806,6.0806,6.0806,6.0806,6.0806,6.0806,6.0806,6.0806,6.0806,6.0806,6.0806,0.0,0.0,6.0806,6.0806,6.0806,6.0806,6.0806,6.0806,6.0806,6.0787,6.0646,6.0589,6.0473,5.9608,5.8781,5.8107,5.8107,5.8107,5.8107,5.8107,5.8179,5.8409,5.8954,5.8627,5.83,5.9108,5.9319,5.9492,6.0242,6.0517,6.0589,6.0589,6.0704,6.0806,6.0806,6.0806,6.0806,6.0806,6.0806,6.0806,6.0806,6.0806,6.0806,6.0806,6.0806,6.0806,6.0806,6.0806,6.0806,6.0806,6.0806,6.0806,6.0806,6.0806,6.0806,6.0806,6.0806,6.0806,6.0806,6.0806,6.0806,6.0806,6.0806,6.0806,6.0806,6.0806,6.0806,5.1515,5.3414,5.4876,5.4087,5.5838,5.7742,5.7742,5.7415,5.7107,5.7107,5.7415,5.7953,5.88,0.0,6.0377,6.1268,0.0,0.0,0.0,0.0,0.0,0.0,0.0,0.0,0.0,0.0,0.0,0.0,0.0,0.0,0.0,0.0,0.0,0.0,6.0806,6.0806,6.0806,6.0806,6.0806,6.0806,6.0806,6.0806,6.0806,6.0806,6.0806,6.0806,0.0,6.0806,6.0806,6.0806,6.0806,6.0806,6.0806,6.0806,6.0806,6.0806,6.0806,6.0748,6.0339,5.9646,5.8954,5.8954,5.8954,5.8954,5.8954,5.9281,5.9723,6.0108,5.9608,5.9146,5.9973,6.0204,6.03,6.0704,6.0806,6.0806,6.0806,6.0806,6.0806,6.0806,6.0806,6.0806,6.0806,6.0806,6.0806,6.0806,6.0806,6.0806,6.0806,6.0806,6.0806,6.0806,6.0806,6.0806,6.0806,6.0806,6.0806,6.0806,6.0806,6.0806,6.0806,6.0806,6.0806,6.0806,6.0806,6.0806,6.0806,6.0806,6.0806,6.0806,6.0806,6.0806,5.0688,5.2702,5.4587,5.4997,5.7011,5.8973,5.9165,5.8588,5.805,5.8256,5.8454,5.8775,5.9396,5.9742,0.0,6.0826,6.086,0.0,0.0,0.0,0.0,0.0,0.0,0.0,0.0,0.0,0.0,0.0,0.0,0.0,0.0,0.0,0.0,0.0,6.0746,6.0806,6.0806,6.0806,6.0806,6.0806,6.0806,6.0806,6.0806,6.0806,6.0806,6.0806,6.0806,6.0806,6.0806,6.0806,6.0806,6.0806,6.0806,6.0806,6.0806,6.0806,6.0806,6.0806,6.0806,6.0358,5.98,5.98,5.98,5.98,5.98,6.0262,6.0806,6.0806,6.0319,5.9954,6.0633,6.0806,6.0806,6.0806,6.0806,6.0806,6.0806,6.0806,6.0806,6.0806,6.0806,6.0806,6.0806,6.0806,6.0806,6.0806,6.0806,6.0806,6.0806,6.0806,6.0806,6.0806,6.0806,6.0806,6.0806,6.0806,6.0806,6.0806,6.0806,6.0806,6.0806,6.0806,6.0806,6.0806,6.0806,6.0806,6.0806,6.0806,6.0806,6.0806,6.0806,6.0806,5.137,5.3121,5.4876,5.642,5.7003,5.7382,5.8204,5.7728,5.7324,5.8127,5.8896,5.9435,0.0,6.0475,6.1268,6.1351,0.0,0.0,0.0,0.0,0.0,0.0,0.0,0.0,0.0,0.0,0.0,0.0,0.0,0.0,0.0,0.0,0.0,0.0,0.0,6.0806,6.0806,6.0806,6.0806,6.0806,6.0806,6.0806,6.0806,6.0806,6.0806,6.0806,6.0806,6.0806,6.0806,6.0806,6.0806,6.0806,6.0806,6.0806,6.0806,6.0806,6.0806,6.0806,6.0806,6.0768,6.0704,6.0704,6.0704,6.0704,6.0704,6.0748,6.0806,6.0806,6.0748,6.0723,6.0787,6.0806,6.0806,6.0806,6.0806,6.0806,6.0806,6.0806,6.0806,6.0806,6.0806,6.0806,6.0806,6.0806,6.0806,6.0806,6.0806,6.0806,6.0806,6.0806,6.0806,6.0806,6.0806,6.0806,6.0806,6.0806,6.0806,6.0806,6.0806,6.0806,6.0806,6.0806,6.0806,6.0806,6.0806,6.0806,6.0806,6.0806,6.0806,6.0806,6.0806,6.0806,5.0029,5.2375,5.4645,5.5285,5.6651,5.803,5.8858,5.9204,5.9459,5.9781,6.0108,6.0222,0.0,0.0,6.0151,6.0151,0.0,0.0,0.0,0.0,0.0,0.0,0.0,0.0,0.0,0.0,0.0,0.0,0.0,0.0,0.0,0.0,0.0,0.0,0.0,6.0806,6.0806,6.0806,6.0806,6.0806,6.0806,6.0806,6.0806,6.0806,6.0806,6.0806,6.0806,6.0806,6.0806,6.0806,6.0806,6.0806,6.0806,6.0806,6.0806,6.0806,6.0806,6.0806,6.0806,6.0806,6.0806,6.0806,6.0806,6.0806,6.0806,6.0806,6.0806,6.0806,6.0806,6.0806,6.0806,6.0806,6.0806,6.0806,6.0806,6.0806,6.0806,6.0806,6.0806,6.0806,6.0806,6.0806,6.0806,6.0806,6.0806,6.0806,6.0806,6.0806,6.0806,6.0806,6.0806,6.0806,6.0806,6.0806,6.0806,6.0806,6.0806,6.0806,6.0806,6.0806,6.0806,6.0806,6.0806,6.0806,6.0806,6.0806,6.0806,6.0806,6.0806,6.0806,6.0806,6.0806,4.9952,5.2472,5.4934,5.5228,5.6819,5.8506,5.9319,5.9954,6.0473,6.0748,6.0684,6.043,5.9973,0.0,0.0,0.0,0.0,0.0,0.0,0.0,0.0,0.0,0.0,0.0,0.0,0.0,0.0,0.0,0.0,0.0,0.0,0.0,0.0,0.0,0.0,6.0806,6.0806,6.0806,6.0806,6.0806,6.0806,6.0806,6.0806,6.0806,6.0806,6.0806,6.0806,6.0806,6.0806,6.0806,6.0806,6.0806,6.0806,6.0806,6.0806,6.0806,6.0806,6.0806,6.0806,6.0806,6.0806,6.0806,6.0806,6.0806,6.0806,6.0806,6.0806,6.0806,6.0806,6.0806,6.0806,6.0806,6.0806,6.0806,6.0806,6.0806,6.0806,6.0806,6.0806,6.0806,6.0806,6.0806,6.0806,6.0806,6.0806,6.0806,6.0806,6.0806,6.0806,6.0806,6.0806,6.0806,6.0806,6.0806,6.0806,6.0806,6.0806,6.0806,6.0806,6.0806,6.0806,6.0806,6.0806,6.0806,6.0806,6.0806,6.0806,6.0647,6.0572,6.0572,6.0572,6.0572,5.1678,5.376,5.5901,5.6766,5.7646,5.8525,5.9313,5.9506,5.9762,6.0627,6.0417,5.9939,5.9485,5.9009,0.0,0.0,0.0,0.0,0.0,0.0,0.0,0.0,0.0,0.0,0.0,0.0,0.0,0.0,0.0,0.0,0.0,0.0,0.0,0.0,0.0,0.0,6.08,6.0781,6.08,6.0806,6.0806,6.0806,6.0806,6.0806,6.0806,6.0806,6.0806,6.0806,6.0806,6.0806,6.0806,6.0806,6.0806,6.0806,6.0806,6.0806,6.0806,6.0806,6.0806,6.0806,6.0806,6.0806,6.0806,6.0806,6.0806,6.0806,6.0806,6.0806,6.0806,6.0806,6.0806,6.0806,6.0806,6.0806,6.0806,6.0806,6.0806,6.0806,6.0806,6.0806,6.0806,6.0806,6.0806,6.0806,6.0806,6.0806,6.0806,6.0806,6.0806,6.08,6.0781,6.0781,6.0794,6.0794,6.0794,6.0794,6.0794,6.0794,6.0794,6.0794,6.08,6.0781,6.08,6.0794,6.0794,6.0794,6.0794,6.0324,6.0084,6.0084,6.0084,6.0084,5.1144,5.2914,5.5049,5.5882,5.7627,5.9127,5.9038,5.9734,6.0395,6.0326,5.9677,5.9075,5.8923,0.0,0.0,0.0,0.0,0.0,0.0,0.0,0.0,0.0,0.0,0.0,0.0,0.0,0.0,0.0,0.0,0.0,0.0,0.0,0.0,0.0,0.0,0.0,6.0291,6.0311,6.0476,6.0806,6.0806,6.0806,6.0806,6.0806,6.0806,6.0806,6.0806,6.0806,6.0806,6.0806,6.0806,6.0806,6.0806,6.0806,6.0806,6.0806,6.0806,6.0806,6.0806,6.0806,6.0806,6.0806,6.0806,6.0806,6.0806,6.0806,6.0806,6.0806,6.0806,6.0806,6.0806,6.0806,6.0806,6.0806,6.0806,6.0806,6.0806,6.0806,6.0806,6.0806,6.0806,6.0806,6.0806,6.0806,6.0806,6.0806,6.0806,6.0806,6.0806,6.0508,6.0311,6.0311,6.0018,5.9823,5.9823,5.9823,5.9823,5.9823,5.9823,5.9954,6.0285,6.0311,6.0154,5.9812,5.9823,5.9823,5.9804,5.9677,5.9611,5.9611,5.9611,5.9611,5.3472,5.4838,5.628,5.744,5.8627,5.9468,5.9342,5.9805,6.0118,0.0,5.9093,5.8634,5.8461,0.0,0.0,0.0,0.0,0.0,0.0,0.0,0.0,0.0,0.0,0.0,0.0,0.0,0.0,0.0,0.0,0.0,0.0,0.0,0.0,0.0,0.0,0.0,5.9831,5.9812,5.9954,6.0243,6.0243,6.0338,6.054,6.0708,6.0806,6.0806,6.0806,6.0806,6.0806,6.0806,6.0806,6.0806,6.0806,6.0806,6.0806,6.0806,6.0806,6.0806,6.0806,6.0806,6.0806,6.0806,6.0806,6.0806,6.0806,6.0806,6.0806,6.0806,6.0806,6.0806,6.0806,6.0806,6.0806,6.0806,6.0806,6.0752,6.0565,6.0678,6.069,6.0317,6.0397,6.045,6.029,6.0404,6.0514,6.0514,6.0514,6.0443,6.0264,6.0003,5.9812,5.9812,5.9578,5.9389,5.9389,5.9389,5.9389,5.9389,5.9389,5.9432,5.9553,5.9717,5.9693,5.9417,5.9389,5.9389,5.9389,5.9203,5.913,5.913,5.913,5.913,5.7121,5.8069,5.8588,6.0262,6.0086,5.9587,5.9898,5.962,5.9148,5.8785,0.0,5.8505,5.8081,0.0,0.0,0.0,0.0,0.0,0.0,0.0,0.0,0.0,0.0,0.0,0.0,0.0,0.0,0.0,0.0,0.0,0.0,0.0,0.0,0.0,0.0,0.0,5.9347,5.9347,5.9373,0.0,5.9389,5.9628,6.0047,6.0482,6.0696,6.0746,6.0769,6.0806,6.0806,6.0806,6.0806,6.0806,6.0806,6.0806,6.0806,6.0806,6.0806,6.0806,6.0806,6.0806,6.0806,6.0806,6.0806,6.08,6.0752,6.074,6.0734,6.0684,6.0678,6.0684,6.0734,6.074,6.0746,6.0794,6.0806,6.0678,6.0189,6.045,6.0476,5.9559,5.9741,5.9908,5.9536,5.9773,6.0033,6.0033,6.0033,5.9885,5.945,5.9354,5.9347,5.9347,5.9293,5.9266,5.9266,5.9266,5.9266,5.9266,5.9266,5.9084,5.8644,5.9093,5.9329,5.9266,5.9266,5.9266,5.9266,5.8845,5.8642,5.8642,5.8642,5.8642,5.528,5.6285,5.769,5.9358,5.9606,5.9351,5.9074,5.8642,5.8383,5.8634,5.8407,5.8119,0.0,0.0,0.0,0.0,0.0,0.0,0.0,0.0,0.0,0.0,0.0,0.0,0.0,0.0,0.0,0.0,0.0,0.0,0.0,0.0,0.0,0.0,0.0,5.8474,5.8845,5.8845,5.9037,0.0,5.9389,5.945,5.9543,5.9661,5.9901,6.0264,6.0641,6.0806,6.0806,6.0806,6.0806,6.0806,6.0806,6.0806,6.0806,6.0806,6.0806,6.0806,6.0806,6.0806,6.0806,6.0806,6.0806,6.074,6.0358,6.025,6.0168,5.9797,5.9701,5.98,6.0154,6.025,6.0338,6.0702,6.0806,6.0678,6.0189,6.0175,6.0077,5.9501,5.9475,5.9636,5.9901,5.9725,5.9543,5.9543,5.9543,5.9501,5.9407,5.9084,5.8845,5.8845,5.8526,5.8297,5.8297,5.8297,5.8297,5.8297,5.8297,5.8249,5.8146,5.8601,5.8674,5.8307,5.8297,5.8297,5.8297,5.8201,5.8153,5.8153,5.8153,5.8153,5.5992,5.6953,5.7977,5.9415,5.9593,5.9285,5.8806,5.834,5.807,5.8307,5.8168,0.0,0.0,0.0,0.0,0.0,0.0,0.0,0.0,0.0,0.0,0.0,0.0,0.0,0.0,0.0,0.0,0.0,0.0,0.0,0.0,0.0,0.0,0.0,5.7997,5.8119,5.8354,5.8354,5.8484,5.8735,5.8735,5.8735,5.8745,5.9204,5.9661,6.011,6.0125,6.0257,6.0456,6.0229,6.0132,6.0154,6.0384,6.0457,6.0495,6.0728,6.0806,6.0806,6.0806,6.0647,6.0457,6.0457,6.0317,6.0132,6.011,6.011,6.0103,6.0089,6.0062,6.0132,6.0365,6.045,6.0495,6.0746,6.0806,6.0678,6.0189,6.0271,6.0161,5.9239,5.9258,5.9417,5.9443,5.9407,5.9319,5.9103,5.9065,5.8981,5.8765,5.8516,5.8354,5.8354,5.8153,5.7997,5.7997,5.7997,5.7997,5.7997,5.7997,5.7997,5.7997,5.8227,5.8249,5.8008,5.7997,5.7997,5.7997,5.7997,5.7997,5.7997,5.7997,5.7997,5.664,5.7793,5.845,5.9577,5.9578,5.9158,5.8684,5.8282,5.7997,5.7997,5.7997,0.0,0.0,0.0,0.0,0.0,0.0,0.0,0.0,0.0,0.0,0.0,0.0,0.0,0.0,0.0,0.0,0.0,0.0,0.0,5.7997,0.0,5.7997,5.7997,5.7997,5.7997,5.7997,5.7997,5.7997,5.7997,5.7997,5.7997,5.8031,5.8796,5.9407,5.9847,5.9526,5.9628,5.9939,5.957,5.9389,5.9432,5.9839,5.9988,6.0025,6.0417,6.0559,6.0559,6.0559,6.0291,5.9988,5.9988,5.9717,5.9468,5.9757,5.9862,5.9931,6.0331,6.043,6.0476,6.0634,6.0684,6.0696,6.0769,6.0806,6.0678,6.0189,6.0411,6.0317,5.9065,5.914,5.9239,5.8766,5.9018,5.9121,5.8652,5.857,5.8439,5.8047,5.7997,5.7997,5.7997,5.7997,5.7997,5.7997,5.7997,5.7997,5.7997,5.7997,5.7997,5.7997,5.7997,5.7997,5.7997,5.7997,5.7997,5.7997,5.7997,5.7997,5.7997,5.7997,5.7997,5.3755,5.5743,5.7884,5.8681,5.8835,5.8664,5.8201,0.0,5.7997,0.0,0.0,0.0,0.0,0.0,0.0,0.0,0.0,0.0,0.0,0.0,0.0,0.0,0.0,0.0,0.0,0.0,0.0,0.0,0.0,0.0,5.7997,5.7997,5.7997,5.7997,5.7997,5.7997,5.7997,5.7997,5.7997,5.7997,5.7997,5.7997,5.8008,5.813,5.8431,5.8913,5.9239,5.9451,5.9484,5.9443,5.9389,5.9417,5.9458,5.9484,5.9492,5.9551,5.9595,5.9595,5.9595,5.9553,5.9484,5.9484,5.9441,5.9347,5.899,5.8894,5.8903,5.8952,5.8971,5.9176,5.9988,6.0182,6.0304,6.0702,6.0806,6.0678,6.0189,6.0146,6.0018,5.9415,5.9373,5.9239,5.8766,5.8755,5.8623,5.8157,5.8085,5.807,5.8008,5.7997,5.7997,5.7997,5.7997,5.7997,5.7997,5.7997,5.7997,5.7997,5.7997,5.7997,5.7997,5.7997,5.7997,5.7997,5.7997,5.7997,5.7997,5.7997,5.7997,5.7997,5.7997,5.7997,5.359,5.5696,5.7481,5.8453,5.8694,5.857,5.8108,5.7997,5.7997,5.7997,0.0,0.0,0.0,0.0,0.0,0.0,0.0,0.0,0.0,0.0,0.0,0.0,0.0,0.0,0.0,0.0,0.0,0.0,0.0,5.7997,5.7997,5.7997,5.7997,5.7997,5.7997,5.7997,5.7997,5.7997,5.7997,5.7997,5.7997,5.7997,5.7997,5.7997,5.8249,5.8694,5.8642,5.8756,5.8981,5.8725,5.8621,5.8642,5.8913,5.9,5.9037,5.9293,5.9389,5.9389,5.9389,5.924,5.9,5.9,5.8825,5.8683,5.899,5.9093,5.9213,5.9725,5.9878,5.9962,6.0391,6.0495,6.0482,6.0417,6.0411,6.0345,6.0146,6.0311,6.029,5.9534,5.9195,5.8855,5.8386,5.8526,5.8547,5.807,5.7997,5.7997,5.7997,5.7997,5.7997,5.7997,5.7997,5.7997,5.7997,5.7997,5.7997,5.7997,5.7997,5.7997,5.7997,5.7997,5.7997,5.7997,5.7997,5.7997,5.7997,5.7997,5.7997,5.7997,5.7997,5.7997,5.2807,5.4627,5.5927,5.7517,5.8062,5.8169,0.0,0.0,5.7997,0.0,0.0,0.0,0.0,0.0,0.0,0.0,0.0,0.0,0.0,0.0,0.0,0.0,0.0,0.0,0.0,0.0,0.0,0.0,0.0,5.7997,5.7997,5.7997,5.7997,5.7997,5.7997,5.7997,5.7997,5.7997,5.7997,5.7997,5.7997,5.7997,5.7997,5.7997,5.819,5.8505,5.8153,5.8201,5.8495,5.8135,5.7997,5.8024,5.8394,5.8526,5.856,5.8923,5.9047,5.9047,5.9047,5.8815,5.8547,5.8654,5.8453,5.8307,5.9009,5.932,5.9553,6.025,6.054,6.0641,6.0763,6.0806,6.0684,6.0215,6.011,6.0062,5.9958,6.0285,6.0391,5.957,5.9018,5.8591,5.8227,5.8372,5.8397,5.8047,5.7997,5.7997,5.7997,5.7997,5.7997,5.7997,5.7997,5.7997,5.7997,5.7997,5.7997,5.7997,5.7997,5.7997,5.7997,5.7997,5.7997,5.7997,5.7997,5.7997,5.7997,5.7997,5.7997,5.7997,5.7997,5.7997,4.9878,5.0953,5.2271,5.5059,5.6334,5.7094,0.0,0.0,0.0,0.0,0.0,0.0,0.0,0.0,0.0,0.0,0.0,0.0,0.0,0.0,0.0,0.0,0.0,0.0,0.0,0.0,0.0,0.0,0.0,5.7997,5.7997,5.7997,5.7997,5.7997,5.7997,5.7997,5.7997,5.7997,5.7997,5.7997,5.7997,5.7997,5.7997,5.7997,5.802,5.8042,5.802,5.802,5.8024,5.802,5.7997,5.8008,5.8031,5.8035,5.8035,5.807,5.8081,5.8081,5.8081,5.8058,5.8108,5.8568,5.8674,5.8664,5.8725,5.9047,5.9407,5.945,5.9789,6.0243,6.0684,6.0806,6.0684,6.0215,6.011,5.9988,5.9526,5.9816,5.9996,5.9511,5.9018,5.8684,5.8683,5.8307,5.8031,5.8008,5.7997,5.7997,5.7997,5.7997,5.7997,5.7997,5.7997,5.7997,5.7997,5.7997,5.7997,5.7997,5.7997,5.7997,5.7997,5.7997,5.7997,5.7997,5.7997,5.7997,5.7997,5.7997,5.7997,5.7997,5.7997,5.7997,4.8742,4.9767,5.0947,5.4067,5.5427,5.6235,5.706,5.7629,5.7997,0.0,0.0,0.0,0.0,0.0,0.0,0.0,0.0,0.0,0.0,0.0,0.0,0.0,0.0,0.0,0.0,0.0,0.0,0.0,0.0,0.0,5.7997,5.7997,5.7997,5.7997,5.7997,5.7997,5.7997,5.7997,5.7997,5.7997,5.7997,5.7997,5.7997,5.7997,5.7997,5.7997,5.7997,5.7997,5.7997,5.7997,5.7997,5.7997,5.7997,5.7997,5.7997,5.7997,5.7997,5.7997,5.7997,5.8201,5.8492,5.8652,5.8894,5.9158,5.9158,5.9485,5.9855,5.9855,6.0201,6.0578,6.0757,6.0806,6.0684,6.0215,5.987,5.9509,5.9056,5.9084,5.9158,5.8981,5.856,5.8249,5.8249,5.8108,5.7997,5.7997,5.7997,5.7997,5.7997,5.7997,5.7997,5.7997,5.7997,5.7997,5.7997,5.7997,5.7997,5.7997,5.7997,5.7997,5.7997,5.7997,5.7997,5.7997,5.7997,5.7997,5.7997,5.7997,5.7997,5.7997,5.7997,5.7997,4.7328,4.832,4.9536,5.2784,5.4197,5.5152,5.648,0.0,5.7666,0.0,0.0,0.0,0.0,0.0,0.0,0.0,0.0,0.0,0.0,0.0,0.0,0.0,0.0,0.0,0.0,0.0,0.0,0.0,0.0,0.0,5.7997,5.7997,5.7997,5.7997,5.7997,5.7997,5.7997,5.7997,5.7997,5.7997,5.7997,5.7997,5.7997,5.7997,5.7997,5.7997,5.7997,5.7997,5.7997,5.7997,5.7997,5.7997,5.7997,5.7997,5.7997,5.7997,5.8097,5.8227,5.8227,5.8439,5.8725,5.8884,5.9037,5.9176,5.9176,5.9484,5.987,5.987,6.0096,6.0404,6.0708,6.0565,6.025,5.9931,5.9399,5.8845,5.8537,5.8715,5.8845,5.8526,5.8224,5.7997,5.7997,5.7997,5.7997,5.7997,5.7997,5.7997,5.7997,5.7997,5.7997,5.7997,5.7997,5.7997,5.7997,5.7997,5.7997,5.7997,5.7997,5.7997,5.7997,5.7997,5.7997,5.7997,5.7997,5.7997,5.7997,5.7997,5.7997,5.7997,5.7997,5.7997,0.0,0.0,0.0,0.0,0.0,0.0,5.615,0.0,5.6957,0.0,0.0,0.0,0.0,0.0,0.0,0.0,0.0,0.0,0.0,0.0,0.0,0.0,0.0,0.0,0.0,0.0,0.0,0.0,0.0,5.7997,5.7997,5.7997,5.7997,5.7997,5.7997,5.7997,5.7997,5.7997,5.7997,5.7997,5.7997,5.7997,5.7997,5.7997,5.7997,5.7997,5.7997,5.7997,5.7997,5.7997,5.7997,5.7997,5.7997,5.7997,5.7997,5.7997,5.8293,5.8674,5.8674,5.8684,5.8785,5.9221,5.9084,5.8715,5.8705,5.9028,5.9389,5.9381,5.9381,5.962,6.0514,6.0077,5.9398,5.9425,5.8715,5.8035,5.8035,5.8755,5.9112,5.8179,5.7997,5.7997,5.7997,5.7997,5.7997,5.7997,5.7997,5.7997,5.7997,5.7997,5.7997,5.7997,5.7997,5.7997,5.7997,5.7997,5.7997,5.7997,5.7997,5.7997,5.7997,5.7997,5.7997,5.7997,5.7997,5.7997,5.7997,5.7997,5.7997,5.7997,5.7997,5.7997,4.4937,0.0,0.0,0.0,0.0,0.0,0.0,0.0,0.0,0.0,0.0,0.0,0.0,0.0,0.0,0.0,0.0,0.0,0.0,0.0,0.0,0.0,0.0,0.0,0.0,0.0,0.0,0.0,5.7997,5.7997,5.7997,5.7997,5.7997,5.7997,5.7997,5.7997,5.7997,5.7997,5.7997,5.7997,5.7997,5.7997,5.7997,5.7997,5.7997,5.7997,5.7997,5.7997,5.7997,5.7997,5.7997,5.7997,5.7997,5.7997,5.7997,5.7997,5.8074,5.819,5.819,5.8418,5.8725,5.8845,5.9037,5.913,5.8796,5.9028,5.9319,5.8981,5.9149,5.945,5.9717,5.9584,5.9494,5.9831,5.9441,5.9009,5.9009,5.8942,5.8715,5.8119,5.7997,5.7997,5.7997,5.7997,5.7997,5.7997,5.7997,5.7997,5.7997,5.7997,5.7997,5.7997,5.7997,5.7997,5.7997,5.7997,5.7997,5.7997,5.7997,5.7997,5.7997,5.7997,5.7997,5.7997,5.7997,5.7997,5.7997,5.7997,5.7997,5.7997,5.7997,5.7997,4.5104,4.5893,0.0,0.0,0.0,0.0,0.0,5.3563,0.0,0.0,0.0,0.0,0.0,0.0,0.0,0.0,0.0,0.0,0.0,0.0,0.0,0.0,0.0,0.0,0.0,0.0,0.0,5.7997,5.7997,5.7997,5.7997,5.7997,5.7997,5.7997,5.7997,5.7997,5.7997,5.7997,5.7997,5.7997,5.7997,5.7997,5.7997,5.7997,5.7997,5.7997,5.7997,5.7997,5.7997,5.7997,5.7997,5.7997,5.7997,5.7997,5.8013,5.8224,5.8293,5.8318,5.8516,5.8623,5.8694,5.8694,5.8755,5.8756,5.8484,5.8601,5.8796,5.8725,5.9037,5.9346,5.9167,5.9112,5.9186,5.9441,5.9167,5.8815,5.8815,5.8601,5.8318,5.8047,5.7997,5.7997,5.7997,5.7997,5.7997,5.7997,5.7997,5.7997,5.7997,5.7997,5.7997,5.7997,5.7997,5.7997,5.7997,5.7997,5.7997,5.7997,5.7997,5.7997,5.7997,5.7997,5.7997,5.7997,5.7997,5.7997,5.7997,5.7997,5.7997,5.7997,5.7997,5.7997,4.5755,4.6104,0.0,0.0,0.0,0.0,5.2325,5.2865,5.3361,0.0,0.0,0.0,0.0,0.0,0.0,0.0,0.0,0.0,0.0,0.0,0.0,0.0,0.0,0.0,0.0,5.7997,5.7997,5.7997,5.7997,5.7997,5.7997,5.7997,5.7997,5.7997,5.7997,5.7997,5.7997,5.7997,5.7997,5.7997,5.7997,5.7997,5.7997,5.7997,5.7997,5.7997,5.7997,5.7997,5.7997,5.7997,5.7997,5.7997,5.7997,5.7997,5.8047,5.8482,5.8621,5.8674,5.9103,5.8961,5.8621,5.8621,5.834,5.7997,5.7997,5.7997,5.8092,5.8505,5.8914,5.9158,5.8735,5.8673,5.8694,5.8694,5.8375,5.8081,5.8081,5.8035,5.7997,5.7997,5.7997,5.7997,5.7997,5.7997,5.7997,5.7997,5.7997,5.7997,5.7997,5.7997,5.7997,5.7997,5.7997,5.7997,5.7997,5.7997,5.7997,5.7997,5.7997,5.7997,5.7997,5.7997,5.7997,5.7997,5.7997,5.7997,5.7997,5.7997,5.7997,5.7997,5.7997,5.7997,4.6214,4.7315,4.86,4.7783,0.0,0.0,5.0335,5.0802,5.1536,0.0,0.0,0.0,0.0,0.0,0.0,0.0,0.0,0.0,0.0,0.0,0.0,0.0,0.0,0.0,0.0,5.7997,5.7997,5.7997,5.7997,5.7997,5.7997,5.7997,5.7997,5.7997,5.7997,5.7997,5.7997,5.7997,5.7997,5.7997,5.7997,5.7997,5.7997,5.7997,5.7997,5.7997,5.7997,5.7997,5.7997,5.7997,5.7997,5.7997,5.7997,5.7997,5.802,5.8097,5.8142,5.8153,5.8238,5.8224,5.8142,5.8142,5.8081,5.7997,5.7997,5.7997,5.802,5.8108,5.8201,5.8249,5.8157,5.8418,5.8694,5.8694,5.8632,5.8549,5.8549,5.8271,5.7997,5.7997,5.7997,5.7997,5.7997,5.7997,5.7997,5.7997,5.7997,5.7997,5.7997,5.7997,5.7997,5.7997,5.7997,5.7997,5.7997,5.7997,5.7997,5.7997,5.7997,5.7997,5.7997,5.7997,5.7997,5.7997,5.7997,5.7997,5.7997,5.7997,5.7997,5.7997,5.7997,5.7997,4.6828,4.7379,4.8315,4.8343,0.0,0.0,0.0,5.0802,5.1151,5.2344,0.0,0.0,0.0,0.0,0.0,0.0,0.0,0.0,0.0,0.0,0.0,0.0,0.0,0.0,0.0,5.7997,5.7997,5.7997,5.7997,5.7997,5.7997,5.7997,5.7997,5.7997,5.7997,5.7997,5.7997,5.7997,5.7997,5.7997,5.7997,5.7997,5.7997,5.7997,5.7997,5.7997,5.7997,5.7997,5.7997,5.7997,5.7997,5.7997,5.7997,5.7997,5.8042,5.826,5.8201,5.8024,5.8271,5.8201,5.7997,5.7997,5.7997,5.7997,5.7997,5.7997,5.7997,5.7997,5.7997,5.7997,5.7997,5.8168,5.8351,5.8351,5.8351,5.8351,5.8351,5.8175,5.7997,5.7997,5.7997,5.7997,5.7997,5.7997,5.7997,5.7997,5.7997,5.7997,5.7997,5.7997,5.7997,5.7997,5.7997,5.7997,5.7997,5.7997,5.7997,5.7997,5.7997,5.7997,5.7997,5.7997,5.7997,5.7997,5.7997,5.7997,5.7997,5.7997,5.7997,5.7997,5.7997,5.7997,0.0,0.0,0.0,0.0,0.0,4.9462,0.0,0.0,0.0,5.227,0.0,0.0,0.0,0.0,0.0,0.0,0.0,0.0,0.0,0.0,0.0,0.0,0.0,0.0,0.0,5.785,5.7831,5.7997,5.785,5.7831,5.7997,5.7997,5.7997,5.7997,5.7997,5.7997,5.7997,5.7997,5.7997,5.7997,5.7997,5.7997,5.7997,5.7997,5.7997,5.7997,5.7997,5.7997,5.7997,5.7997,5.7997,5.7997,5.7997,5.7997,5.8047,5.8429,5.8318,5.8047,5.8439,5.8318,5.7997,5.7997,5.7997,5.7997,5.7997,5.7997,5.7997,5.7997,5.7997,5.7997,5.7997,5.7997,5.7997,5.7997,5.7997,5.7997,5.7997,5.7997,5.7997,5.7997,5.7997,5.7997,5.7997,5.7997,5.7997,5.7997,5.7997,5.7997,5.7997,5.7997,5.7997,5.7997,5.7997,5.7997,5.7997,5.7997,5.7997,5.7997,5.7997,5.7997,5.7997,5.7997,5.7997,5.7997,5.7997,5.7997,5.7997,5.7997,5.7997,5.7997,5.7997,5.7997,0.0,0.0,0.0,0.0,5.0031,0.0,0.0,0.0,5.0655,5.0115,0.0,0.0,0.0,0.0,0.0,0.0,0.0,0.0,0.0,0.0,0.0,0.0,0.0,0.0,0.0,0.0,5.7226,5.7941,5.7336,5.7262,5.796,5.7997,5.7997,5.7997,5.7997,5.7997,5.7997,5.7997,5.7997,5.7997,5.7997,5.7997,5.7997,5.7997,5.7997,5.7997,5.7997,5.7997,5.7997,5.7997,5.7997,5.7997,5.7997,5.7997,5.8008,5.8058,5.8047,5.8008,5.8058,5.8035,5.7997,5.7997,5.7997,5.7997,5.7997,5.7997,5.7997,5.7997,5.7997,5.7997,5.7997,5.7997,5.7997,5.7997,5.7997,5.7997,5.7997,5.7997,5.7997,5.7997,5.7997,5.7997,5.7997,5.7997,5.7997,5.7997,5.7997,5.7997,5.7997,5.7997,5.7997,5.7997,5.7997,5.7997,5.7997,5.7997,5.7997,5.7997,5.7997,5.7997,5.7997,5.7997,5.7997,5.7997,5.7997,5.7997,5.7997,5.7997,5.7997,5.7997,5.7997,5.7997,0.0,0.0,0.0,0.0,0.0,0.0,5.0335,0.0,5.0151,0.0,0.0,0.0,0.0,0.0,0.0,0.0,0.0,0.0,0.0,0.0,0.0,0.0,0.0,0.0,0.0,0.0,0.0,0.0,0.0,5.7141,5.796,5.7997,5.7997,5.7997,5.7997,5.7997,5.7997,5.7997,5.7997,5.7997,5.7997,5.7997,5.7997,5.7997,5.7997,5.7997,5.7997,5.7997,5.7997,5.7997,5.7997,5.7997,5.7997,5.7997,5.7997,5.7997,5.7997,5.7997,5.7997,5.7997,5.7997,5.7997,5.7997,5.7997,5.7997,5.7997,5.7997,5.7997,5.7997,5.7997,5.7997,5.7997,5.7997,5.7997,5.7997,5.7997,5.7997,5.7997,5.7997,5.7997,5.7997,5.7997,5.7997,5.7997,5.7997,5.7997,5.7997,5.7997,5.7997,5.7997,5.7997,5.7997,5.7997,5.7997,5.7997,5.7997,5.7997,5.7997,5.7997,5.7997,5.7997,5.7997,5.7997,5.7997,5.7997,5.7997,5.7997,5.7997,5.7997,5.7997,5.7997,5.7997,4.8471,0.0,0.0,0.0,0.0,0.0,0.0,0.0,0.0,0.0,0.0,0.0,0.0,0.0,0.0,0.0,0.0,0.0,0.0,0.0,0.0,0.0,0.0,0.0,0.0,0.0,0.0,0.0,0.0,0.0,5.7941,5.7997,5.7997,5.7997,5.7997,5.7997,5.7997,5.7997,5.7997,5.7997,5.7997,5.7997,5.7997,5.7997,5.7997,5.7997,5.7997,5.7997,5.7997,5.7997,5.7997,5.7997,5.7997,5.7997,5.7997,5.7997,5.7997,5.7997,5.7997,5.7997,5.7997,5.7997,5.7997,5.7997,5.7997,5.7997,5.7997,5.7997,5.7997,5.7997,5.7997,5.7997,5.7997,5.7997,5.7997,5.7997,5.7997,5.7997,5.7997,5.7997,5.7997,5.7997,5.7997,5.7997,5.7997,5.7997,5.7997,5.7997,5.7997,5.7997,5.7997,5.7997,5.7997,5.7997,5.7997,5.7997,5.7997,5.7997,5.7997,5.7997,5.7997,5.7997,5.7997,5.7997,5.7997,5.7997,5.7997,5.7997,5.7997,5.7997,5.7997,5.7997,0.0,0.0,0.0,4.8545,0.0,0.0,0.0,0.0,5.0765,0.0,0.0,0.0,0.0,0.0,0.0,0.0,0.0,0.0,0.0,0.0,0.0,0.0,0.0,0.0,0.0,0.0,0.0,0.0,0.0,0.0,5.7923,5.7997,5.7997,5.7997,5.7997,5.7997,5.7997,5.7997,5.7997,5.7997,5.7997,5.7997,5.7997,5.7997,5.7997,5.7997,5.7997,5.7997,5.7997,5.7997,5.7997,5.7997,5.7997,5.7997,5.7997,5.7997,5.7997,5.7997,5.7997,5.7997,5.7997,5.7997,5.7997,5.7997,5.7997,5.7997,5.7997,5.7997,5.7997,5.7997,5.7997,5.7997,5.7997,5.7997,5.7997,5.7997,5.7997,5.7997,5.7997,5.7997,5.7997,5.7997,5.7997,5.7997,5.7997,5.7997,5.7997,5.7997,5.7997,5.7997,5.7997,5.7997,5.7997,5.7997,5.7997,5.7997,5.7997,5.7997,5.7997,5.7997,5.7997,5.7997,5.7997,5.7997,5.7997,5.7997,5.7997,5.7997,5.7997,5.7997,5.7997,5.7997,0.0,0.0,4.938,4.8526,0.0,0.0,0.0,0.0,0.0,0.0,0.0,0.0,0.0,0.0,0.0,0.0,0.0,0.0,0.0,0.0,0.0,0.0,0.0,0.0,0.0,0.0,0.0,0.0,0.0,0.0,0.0,5.7997,5.7997,5.7997,5.7997,5.7997,5.7997,5.7997,5.7997,5.7997,5.7997,5.7997,5.7997,5.7997,5.7997,5.7997,5.7997,5.7997,5.7997,5.7997,5.7997,5.7997,5.7997,5.7997,5.7997,5.7997,5.7997,5.7997,5.7997,5.7997,5.7997,5.7997,5.7997,5.7997,5.7997,5.7997,5.7997,5.7997,5.7997,5.7997,5.7997,5.7997,5.7997,5.7997,5.7997,5.7997,5.7997,5.7997,5.7997,5.7997,5.7997,5.7997,5.7997,5.7997,5.7997,5.7997,5.7997,5.7997,5.7997,5.7997,5.7997,5.7997,5.7997,5.7997,5.7997,5.7997,5.7997,5.7997,5.7997,5.7997,5.7997,5.7997,5.7997,5.7997,5.7997,5.7997,5.7997,5.7997,5.7997,5.7997,5.7997,5.7997,4.8296,4.871,0.0,0.0,4.8728,0.0,4.8434,0.0,0.0,0.0,0.0,0.0,0.0,0.0,0.0,0.0,0.0,0.0,0.0,0.0,0.0,0.0,0.0,0.0,0.0,0.0,5.6297,5.7171,0.0,0.0,0.0,0.0,5.7997,5.7997,5.7997,5.7997,5.7997,5.7997,5.7997,5.7997,5.7997,5.7997,5.7997,5.7997,5.7997,5.7997,5.7997,5.7997,5.7997,5.7997,5.7997,5.7997,5.7997,5.7997,5.7997,5.7997,5.7997,5.7997,5.7997,5.7997,5.7997,5.7997,5.7997,5.7997,5.7997,5.7997,5.7997,5.7997,5.7997,5.7997,5.7997,5.7997,5.7997,5.7997,5.7997,5.7997,5.7997,5.7997,5.7997,5.7997,5.7997,5.7997,5.7997,5.7997,5.7997,5.7997,5.7997,5.7997,5.7997,5.7997,5.7997,5.7997,5.7997,5.7997,5.7997,5.7997,5.7997,5.7997,5.7997,5.7997,5.7997,5.7997,5.7997,5.7997,5.7997,5.7997,5.7997,5.7997,5.7997,5.7997,5.7997,5.7997]}]]